<?xml version="1.0" encoding="UTF-8" standalone="no" ?>
<gpx xmlns="http://www.topografix.com/GPX/1/1" xmlns:xsi="http://www.w3.org/2001/XMLSchema-instance" xsi:schemaLocation="http://www.topografix.com/GPX/1/1 http://www.topografix.com/GPX/1/1/gpx.xsd" version="1.1" creator="VisuGPX - https://www.visugpx.com">
  <metadata>
    <name>Leschaux Revard</name>
  </metadata>
  <trk>
    <name><![CDATA[Leschaux Revard]]></name>
    <trkseg>
      <trkpt lat="45.75858" lon="6.29719">
        <ele>502.35137939453</ele>
        <time>2020-07-07T19:55:18.000Z</time>
      </trkpt>
      <trkpt lat="45.75779" lon="6.29674">
        <ele>503.12249755859</ele>
        <time>2020-07-07T19:55:18.014Z</time>
      </trkpt>
      <trkpt lat="45.75779" lon="6.29674">
        <ele>503.1220703125</ele>
        <time>2020-07-07T19:55:18.028Z</time>
      </trkpt>
      <trkpt lat="45.75745" lon="6.29667">
        <ele>502.46557617188</ele>
        <time>2020-07-07T19:55:18.047Z</time>
      </trkpt>
      <trkpt lat="45.75706" lon="6.29672">
        <ele>501.74307250977</ele>
        <time>2020-07-07T19:55:18.072Z</time>
      </trkpt>
      <trkpt lat="45.75674" lon="6.29689">
        <ele>499.24801635742</ele>
        <time>2020-07-07T19:55:18.103Z</time>
      </trkpt>
      <trkpt lat="45.75637" lon="6.29704">
        <ele>497.22952270508</ele>
        <time>2020-07-07T19:55:18.140Z</time>
      </trkpt>
      <trkpt lat="45.75625" lon="6.29699">
        <ele>497.48696899414</ele>
        <time>2020-07-07T19:55:18.179Z</time>
      </trkpt>
      <trkpt lat="45.75615" lon="6.29711">
        <ele>497.19232177734</ele>
        <time>2020-07-07T19:55:18.220Z</time>
      </trkpt>
      <trkpt lat="45.75564" lon="6.29722">
        <ele>501.0798034668</ele>
        <time>2020-07-07T19:55:18.269Z</time>
      </trkpt>
      <trkpt lat="45.75528" lon="6.29711">
        <ele>501.59393310547</ele>
        <time>2020-07-07T19:55:18.324Z</time>
      </trkpt>
      <trkpt lat="45.75487" lon="6.29687">
        <ele>500.89901733398</ele>
        <time>2020-07-07T19:55:18.386Z</time>
      </trkpt>
      <trkpt lat="45.75414" lon="6.29645">
        <ele>502.38052368164</ele>
        <time>2020-07-07T19:55:18.461Z</time>
      </trkpt>
      <trkpt lat="45.75405" lon="6.29631">
        <ele>502.75384521484</ele>
        <time>2020-07-07T19:55:18.538Z</time>
      </trkpt>
      <trkpt lat="45.75395" lon="6.296">
        <ele>503.38458251953</ele>
        <time>2020-07-07T19:55:18.619Z</time>
      </trkpt>
      <trkpt lat="45.75387" lon="6.29541">
        <ele>504</ele>
        <time>2020-07-07T19:55:18.707Z</time>
      </trkpt>
      <trkpt lat="45.75388" lon="6.29323">
        <ele>502.26275634766</ele>
        <time>2020-07-07T19:55:18.819Z</time>
      </trkpt>
      <trkpt lat="45.75388" lon="6.29323">
        <ele>502.2629699707</ele>
        <time>2020-07-07T19:55:18.931Z</time>
      </trkpt>
      <trkpt lat="45.75387" lon="6.29102">
        <ele>503.53323364258</ele>
        <time>2020-07-07T19:55:19.068Z</time>
      </trkpt>
      <trkpt lat="45.75401" lon="6.29017">
        <ele>507.25894165039</ele>
        <time>2020-07-07T19:55:19.215Z</time>
      </trkpt>
      <trkpt lat="45.75408" lon="6.28894">
        <ele>513.7119140625</ele>
        <time>2020-07-07T19:55:19.375Z</time>
      </trkpt>
      <trkpt lat="45.75393" lon="6.28819">
        <ele>508.84609985352</ele>
        <time>2020-07-07T19:55:19.544Z</time>
      </trkpt>
      <trkpt lat="45.75388" lon="6.28736">
        <ele>507.27127075195</ele>
        <time>2020-07-07T19:55:19.722Z</time>
      </trkpt>
      <trkpt lat="45.7538" lon="6.2869">
        <ele>506.15078735352</ele>
        <time>2020-07-07T19:55:19.906Z</time>
      </trkpt>
      <trkpt lat="45.75384" lon="6.28682">
        <ele>505.89334106445</ele>
        <time>2020-07-07T19:55:20.091Z</time>
      </trkpt>
      <trkpt lat="45.75384" lon="6.28681">
        <ele>505.86749267578</ele>
        <time>2020-07-07T19:55:20.276Z</time>
      </trkpt>
      <trkpt lat="45.75382" lon="6.28674">
        <ele>505.73876953125</ele>
        <time>2020-07-07T19:55:20.462Z</time>
      </trkpt>
      <trkpt lat="45.75372" lon="6.28673">
        <ele>505.82897949219</ele>
        <time>2020-07-07T19:55:20.649Z</time>
      </trkpt>
      <trkpt lat="45.75321" lon="6.28506">
        <ele>502.91885375977</ele>
        <time>2020-07-07T19:55:20.857Z</time>
      </trkpt>
      <trkpt lat="45.75302" lon="6.28447">
        <ele>503.0212097168</ele>
        <time>2020-07-07T19:55:21.072Z</time>
      </trkpt>
      <trkpt lat="45.75299" lon="6.28435">
        <ele>503.0598449707</ele>
        <time>2020-07-07T19:55:21.288Z</time>
      </trkpt>
      <trkpt lat="45.75352" lon="6.28359">
        <ele>502.44943237305</ele>
        <time>2020-07-07T19:55:21.516Z</time>
      </trkpt>
      <trkpt lat="45.75457" lon="6.28265">
        <ele>501.91757202148</ele>
        <time>2020-07-07T19:55:21.764Z</time>
      </trkpt>
      <trkpt lat="45.75457" lon="6.28265">
        <ele>501.91738891602</ele>
        <time>2020-07-07T19:55:22.012Z</time>
      </trkpt>
      <trkpt lat="45.75476" lon="6.28247">
        <ele>501.66012573242</ele>
        <time>2020-07-07T19:55:22.264Z</time>
      </trkpt>
      <trkpt lat="45.75625" lon="6.28127">
        <ele>499.37658691406</ele>
        <time>2020-07-07T19:55:22.543Z</time>
      </trkpt>
      <trkpt lat="45.75723" lon="6.2802">
        <ele>500.09872436523</ele>
        <time>2020-07-07T19:55:22.842Z</time>
      </trkpt>
      <trkpt lat="45.75919" lon="6.27682">
        <ele>494.61965942383</ele>
        <time>2020-07-07T19:55:23.190Z</time>
      </trkpt>
      <trkpt lat="45.75972" lon="6.27564">
        <ele>490.07766723633</ele>
        <time>2020-07-07T19:55:23.554Z</time>
      </trkpt>
      <trkpt lat="45.76031" lon="6.27331">
        <ele>489.5625</ele>
        <time>2020-07-07T19:55:23.946Z</time>
      </trkpt>
      <trkpt lat="45.76031" lon="6.27331">
        <ele>489.5625</ele>
        <time>2020-07-07T19:55:24.338Z</time>
      </trkpt>
      <trkpt lat="45.76073" lon="6.27155">
        <ele>492.10766601562</ele>
        <time>2020-07-07T19:55:24.751Z</time>
      </trkpt>
      <trkpt lat="45.76161" lon="6.26739">
        <ele>485.23284912109</ele>
        <time>2020-07-07T19:55:25.212Z</time>
      </trkpt>
      <trkpt lat="45.76187" lon="6.2658">
        <ele>485.24160766602</ele>
        <time>2020-07-07T19:55:25.691Z</time>
      </trkpt>
      <trkpt lat="45.76248" lon="6.26297">
        <ele>481</ele>
        <time>2020-07-07T19:55:26.204Z</time>
      </trkpt>
      <trkpt lat="45.76266" lon="6.26149">
        <ele>482.58145141602</ele>
        <time>2020-07-07T19:55:26.734Z</time>
      </trkpt>
      <trkpt lat="45.76273" lon="6.26018">
        <ele>483.884765625</ele>
        <time>2020-07-07T19:55:27.278Z</time>
      </trkpt>
      <trkpt lat="45.76269" lon="6.25693">
        <ele>481.70178222656</ele>
        <time>2020-07-07T19:55:27.859Z</time>
      </trkpt>
      <trkpt lat="45.76256" lon="6.25641">
        <ele>480.47766113281</ele>
        <time>2020-07-07T19:55:28.446Z</time>
      </trkpt>
      <trkpt lat="45.76216" lon="6.25558">
        <ele>480.7919921875</ele>
        <time>2020-07-07T19:55:29.044Z</time>
      </trkpt>
      <trkpt lat="45.76222" lon="6.25546">
        <ele>481.02075195312</ele>
        <time>2020-07-07T19:55:29.644Z</time>
      </trkpt>
      <trkpt lat="45.76248" lon="6.25532">
        <ele>481.63882446289</ele>
        <time>2020-07-07T19:55:30.248Z</time>
      </trkpt>
      <trkpt lat="45.76265" lon="6.25513">
        <ele>482.17590332031</ele>
        <time>2020-07-07T19:55:30.856Z</time>
      </trkpt>
      <trkpt lat="45.76284" lon="6.25457">
        <ele>482.65280151367</ele>
        <time>2020-07-07T19:55:31.471Z</time>
      </trkpt>
      <trkpt lat="45.76303" lon="6.25367">
        <ele>478.6379699707</ele>
        <time>2020-07-07T19:55:32.096Z</time>
      </trkpt>
      <trkpt lat="45.76356" lon="6.25237">
        <ele>478.89456176758</ele>
        <time>2020-07-07T19:55:32.738Z</time>
      </trkpt>
      <trkpt lat="45.76356" lon="6.25237">
        <ele>478.89465332031</ele>
        <time>2020-07-07T19:55:33.380Z</time>
      </trkpt>
      <trkpt lat="45.76482" lon="6.25002">
        <ele>479.54528808594</ele>
        <time>2020-07-07T19:55:34.055Z</time>
      </trkpt>
      <trkpt lat="45.76482" lon="6.25002">
        <ele>479.54528808594</ele>
        <time>2020-07-07T19:55:34.730Z</time>
      </trkpt>
      <trkpt lat="45.76666" lon="6.24679">
        <ele>476.55239868164</ele>
        <time>2020-07-07T19:55:35.452Z</time>
      </trkpt>
      <trkpt lat="45.7688" lon="6.24398">
        <ele>474.73199462891</ele>
        <time>2020-07-07T19:55:36.220Z</time>
      </trkpt>
      <trkpt lat="45.7688" lon="6.24398">
        <ele>474.73239135742</ele>
        <time>2020-07-07T19:55:36.988Z</time>
      </trkpt>
      <trkpt lat="45.77756" lon="6.23251">
        <ele>468.26480102539</ele>
        <time>2020-07-07T19:55:37.947Z</time>
      </trkpt>
      <trkpt lat="45.77756" lon="6.23251">
        <ele>468.26480102539</ele>
        <time>2020-07-07T19:55:38.906Z</time>
      </trkpt>
      <trkpt lat="45.77763" lon="6.23233">
        <ele>468.04595947266</ele>
        <time>2020-07-07T19:55:39.867Z</time>
      </trkpt>
      <trkpt lat="45.77757" lon="6.23223">
        <ele>468.13980102539</ele>
        <time>2020-07-07T19:55:40.829Z</time>
      </trkpt>
      <trkpt lat="45.77817" lon="6.23121">
        <ele>469.29278564453</ele>
        <time>2020-07-07T19:55:41.806Z</time>
      </trkpt>
      <trkpt lat="45.77839" lon="6.2306">
        <ele>470</ele>
        <time>2020-07-07T19:55:42.791Z</time>
      </trkpt>
      <trkpt lat="45.78005" lon="6.22845">
        <ele>466.59561157227</ele>
        <time>2020-07-07T19:55:43.812Z</time>
      </trkpt>
      <trkpt lat="45.78034" lon="6.22825">
        <ele>466.248046875</ele>
        <time>2020-07-07T19:55:44.838Z</time>
      </trkpt>
      <trkpt lat="45.78072" lon="6.2283">
        <ele>465.79751586914</ele>
        <time>2020-07-07T19:55:45.870Z</time>
      </trkpt>
      <trkpt lat="45.78087" lon="6.22818">
        <ele>465.61727905273</ele>
        <time>2020-07-07T19:55:46.905Z</time>
      </trkpt>
      <trkpt lat="45.78087" lon="6.22818">
        <ele>465.6171875</ele>
        <time>2020-07-07T19:55:47.940Z</time>
      </trkpt>
      <trkpt lat="45.78099" lon="6.228">
        <ele>465.46270751953</ele>
        <time>2020-07-07T19:55:48.978Z</time>
      </trkpt>
      <trkpt lat="45.78342" lon="6.22487">
        <ele>466.00769042969</ele>
        <time>2020-07-07T19:55:50.068Z</time>
      </trkpt>
      <trkpt lat="45.78342" lon="6.22487">
        <ele>466.00750732422</ele>
        <time>2020-07-07T19:55:51.158Z</time>
      </trkpt>
      <trkpt lat="45.7837" lon="6.2245">
        <ele>465.17358398438</ele>
        <time>2020-07-07T19:55:52.254Z</time>
      </trkpt>
      <trkpt lat="45.78424" lon="6.22368">
        <ele>462.24609375</ele>
        <time>2020-07-07T19:55:53.363Z</time>
      </trkpt>
      <trkpt lat="45.7849" lon="6.22244">
        <ele>461.35510253906</ele>
        <time>2020-07-07T19:55:54.489Z</time>
      </trkpt>
      <trkpt lat="45.7849" lon="6.22244">
        <ele>461.35510253906</ele>
        <time>2020-07-07T19:55:55.615Z</time>
      </trkpt>
      <trkpt lat="45.78599" lon="6.22004">
        <ele>458.77124023438</ele>
        <time>2020-07-07T19:55:56.773Z</time>
      </trkpt>
      <trkpt lat="45.78599" lon="6.22004">
        <ele>458.77114868164</ele>
        <time>2020-07-07T19:55:57.931Z</time>
      </trkpt>
      <trkpt lat="45.78672" lon="6.21857">
        <ele>458.09094238281</ele>
        <time>2020-07-07T19:55:59.109Z</time>
      </trkpt>
      <trkpt lat="45.78712" lon="6.21793">
        <ele>456.10876464844</ele>
        <time>2020-07-07T19:56:00.297Z</time>
      </trkpt>
      <trkpt lat="45.78721" lon="6.21778">
        <ele>455.61990356445</ele>
        <time>2020-07-07T19:56:01.487Z</time>
      </trkpt>
      <trkpt lat="45.78721" lon="6.21778">
        <ele>455.61959838867</ele>
        <time>2020-07-07T19:56:02.677Z</time>
      </trkpt>
      <trkpt lat="45.78811" lon="6.21661">
        <ele>454.07162475586</ele>
        <time>2020-07-07T19:56:03.887Z</time>
      </trkpt>
      <trkpt lat="45.78886" lon="6.21583">
        <ele>455.69747924805</ele>
        <time>2020-07-07T19:56:05.111Z</time>
      </trkpt>
      <trkpt lat="45.79147" lon="6.21333">
        <ele>454.30075073242</ele>
        <time>2020-07-07T19:56:06.386Z</time>
      </trkpt>
      <trkpt lat="45.79235" lon="6.21259">
        <ele>451.79559326172</ele>
        <time>2020-07-07T19:56:07.677Z</time>
      </trkpt>
      <trkpt lat="45.79346" lon="6.212">
        <ele>452.9899597168</ele>
        <time>2020-07-07T19:56:08.987Z</time>
      </trkpt>
      <trkpt lat="45.79346" lon="6.212">
        <ele>452.99014282227</ele>
        <time>2020-07-07T19:56:10.297Z</time>
      </trkpt>
      <trkpt lat="45.79488" lon="6.21166">
        <ele>456.3581237793</ele>
        <time>2020-07-07T19:56:11.630Z</time>
      </trkpt>
      <trkpt lat="45.79528" lon="6.21166">
        <ele>456.65609741211</ele>
        <time>2020-07-07T19:56:12.969Z</time>
      </trkpt>
      <trkpt lat="45.80285" lon="6.21146">
        <ele>465.93682861328</ele>
        <time>2020-07-07T19:56:14.430Z</time>
      </trkpt>
      <trkpt lat="45.80405" lon="6.21129">
        <ele>467.78457641602</ele>
        <time>2020-07-07T19:56:15.910Z</time>
      </trkpt>
      <trkpt lat="45.80919" lon="6.20947">
        <ele>469.11712646484</ele>
        <time>2020-07-07T19:56:17.475Z</time>
      </trkpt>
      <trkpt lat="45.80943" lon="6.20951">
        <ele>469.00128173828</ele>
        <time>2020-07-07T19:56:19.043Z</time>
      </trkpt>
      <trkpt lat="45.80953" lon="6.2094">
        <ele>468.66595458984</ele>
        <time>2020-07-07T19:56:20.614Z</time>
      </trkpt>
      <trkpt lat="45.80967" lon="6.20929">
        <ele>468.16390991211</ele>
        <time>2020-07-07T19:56:22.187Z</time>
      </trkpt>
      <trkpt lat="45.81241" lon="6.20835">
        <ele>462.60494995117</ele>
        <time>2020-07-07T19:56:23.805Z</time>
      </trkpt>
      <trkpt lat="45.81814" lon="6.207">
        <ele>455.90670776367</ele>
        <time>2020-07-07T19:56:25.516Z</time>
      </trkpt>
      <trkpt lat="45.81951" lon="6.20643">
        <ele>456.70401000977</ele>
        <time>2020-07-07T19:56:27.250Z</time>
      </trkpt>
      <trkpt lat="45.81951" lon="6.20643">
        <ele>456.70349121094</ele>
        <time>2020-07-07T19:56:28.984Z</time>
      </trkpt>
      <trkpt lat="45.82024" lon="6.2062">
        <ele>463.41275024414</ele>
        <time>2020-07-07T19:56:30.730Z</time>
      </trkpt>
      <trkpt lat="45.82076" lon="6.20625">
        <ele>468.30770874023</ele>
        <time>2020-07-07T19:56:32.484Z</time>
      </trkpt>
      <trkpt lat="45.82124" lon="6.20638">
        <ele>469.56921386719</ele>
        <time>2020-07-07T19:56:34.246Z</time>
      </trkpt>
      <trkpt lat="45.82171" lon="6.20667">
        <ele>470.12020874023</ele>
        <time>2020-07-07T19:56:36.016Z</time>
      </trkpt>
      <trkpt lat="45.82302" lon="6.20799">
        <ele>461.85903930664</ele>
        <time>2020-07-07T19:56:37.812Z</time>
      </trkpt>
      <trkpt lat="45.82387" lon="6.20837">
        <ele>457.42468261719</ele>
        <time>2020-07-07T19:56:39.622Z</time>
      </trkpt>
      <trkpt lat="45.82418" lon="6.20841">
        <ele>456.70129394531</ele>
        <time>2020-07-07T19:56:41.437Z</time>
      </trkpt>
      <trkpt lat="45.82492" lon="6.20828">
        <ele>460.31481933594</ele>
        <time>2020-07-07T19:56:43.264Z</time>
      </trkpt>
      <trkpt lat="45.8253" lon="6.20811">
        <ele>458.50427246094</ele>
        <time>2020-07-07T19:56:45.098Z</time>
      </trkpt>
      <trkpt lat="45.82584" lon="6.20767">
        <ele>457.18225097656</ele>
        <time>2020-07-07T19:56:46.941Z</time>
      </trkpt>
      <trkpt lat="45.82633" lon="6.20702">
        <ele>459.23083496094</ele>
        <time>2020-07-07T19:56:48.795Z</time>
      </trkpt>
      <trkpt lat="45.82653" lon="6.20659">
        <ele>467.00756835938</ele>
        <time>2020-07-07T19:56:50.655Z</time>
      </trkpt>
      <trkpt lat="45.82653" lon="6.20659">
        <ele>467.00677490234</ele>
        <time>2020-07-07T19:56:52.515Z</time>
      </trkpt>
      <trkpt lat="45.82676" lon="6.20576">
        <ele>493.88888549805</ele>
        <time>2020-07-07T19:56:54.385Z</time>
      </trkpt>
      <trkpt lat="45.82697" lon="6.20439">
        <ele>468.28225708008</ele>
        <time>2020-07-07T19:56:56.271Z</time>
      </trkpt>
      <trkpt lat="45.82696" lon="6.20423">
        <ele>465.65417480469</ele>
        <time>2020-07-07T19:56:58.158Z</time>
      </trkpt>
      <trkpt lat="45.82694" lon="6.20409">
        <ele>463.68469238281</ele>
        <time>2020-07-07T19:57:00.047Z</time>
      </trkpt>
      <trkpt lat="45.8269" lon="6.20372">
        <ele>456.02868652344</ele>
        <time>2020-07-07T19:57:01.940Z</time>
      </trkpt>
      <trkpt lat="45.82572" lon="6.19641">
        <ele>453.98721313477</ele>
        <time>2020-07-07T19:57:03.917Z</time>
      </trkpt>
      <trkpt lat="45.82564" lon="6.19534">
        <ele>454.92749023438</ele>
        <time>2020-07-07T19:57:05.906Z</time>
      </trkpt>
      <trkpt lat="45.82566" lon="6.19438">
        <ele>455.37390136719</ele>
        <time>2020-07-07T19:57:07.906Z</time>
      </trkpt>
      <trkpt lat="45.82573" lon="6.19378">
        <ele>455.12814331055</ele>
        <time>2020-07-07T19:57:09.913Z</time>
      </trkpt>
      <trkpt lat="45.82583" lon="6.19322">
        <ele>455.21826171875</ele>
        <time>2020-07-07T19:57:11.926Z</time>
      </trkpt>
      <trkpt lat="45.82668" lon="6.19056">
        <ele>454.95568847656</ele>
        <time>2020-07-07T19:57:13.972Z</time>
      </trkpt>
      <trkpt lat="45.82718" lon="6.18829">
        <ele>457.77853393555</ele>
        <time>2020-07-07T19:57:16.045Z</time>
      </trkpt>
      <trkpt lat="45.82718" lon="6.18829">
        <ele>457.77813720703</ele>
        <time>2020-07-07T19:57:18.118Z</time>
      </trkpt>
      <trkpt lat="45.82729" lon="6.18783">
        <ele>458.59033203125</ele>
        <time>2020-07-07T19:57:20.196Z</time>
      </trkpt>
      <trkpt lat="45.8278" lon="6.18549">
        <ele>456.66674804688</ele>
        <time>2020-07-07T19:57:22.301Z</time>
      </trkpt>
      <trkpt lat="45.8278" lon="6.18549">
        <ele>456.66632080078</ele>
        <time>2020-07-07T19:57:24.406Z</time>
      </trkpt>
      <trkpt lat="45.8291" lon="6.17955">
        <ele>456.01638793945</ele>
        <time>2020-07-07T19:57:26.581Z</time>
      </trkpt>
      <trkpt lat="45.82956" lon="6.17778">
        <ele>458.98443603516</ele>
        <time>2020-07-07T19:57:28.777Z</time>
      </trkpt>
      <trkpt lat="45.82956" lon="6.17778">
        <ele>458.98434448242</ele>
        <time>2020-07-07T19:57:30.973Z</time>
      </trkpt>
      <trkpt lat="45.82983" lon="6.17713">
        <ele>459.73477172852</ele>
        <time>2020-07-07T19:57:33.178Z</time>
      </trkpt>
      <trkpt lat="45.83175" lon="6.17319">
        <ele>461.47024536133</ele>
        <time>2020-07-07T19:57:35.436Z</time>
      </trkpt>
      <trkpt lat="45.83175" lon="6.17319">
        <ele>461.47015380859</ele>
        <time>2020-07-07T19:57:37.694Z</time>
      </trkpt>
      <trkpt lat="45.83188" lon="6.17291">
        <ele>461.65048217773</ele>
        <time>2020-07-07T19:57:39.956Z</time>
      </trkpt>
      <trkpt lat="45.83188" lon="6.17291">
        <ele>461.65036010742</ele>
        <time>2020-07-07T19:57:42.218Z</time>
      </trkpt>
      <trkpt lat="45.83227" lon="6.17267">
        <ele>461.47024536133</ele>
        <time>2020-07-07T19:57:44.487Z</time>
      </trkpt>
      <trkpt lat="45.83241" lon="6.17177">
        <ele>461.77801513672</ele>
        <time>2020-07-07T19:57:46.766Z</time>
      </trkpt>
      <trkpt lat="45.83251" lon="6.17144">
        <ele>461.64916992188</ele>
        <time>2020-07-07T19:57:49.049Z</time>
      </trkpt>
      <trkpt lat="45.8351" lon="6.16599">
        <ele>462.64105224609</ele>
        <time>2020-07-07T19:57:51.406Z</time>
      </trkpt>
      <trkpt lat="45.8351" lon="6.16599">
        <ele>462.64074707031</ele>
        <time>2020-07-07T19:57:53.763Z</time>
      </trkpt>
      <trkpt lat="45.83514" lon="6.16589">
        <ele>462.32180786133</ele>
        <time>2020-07-07T19:57:56.121Z</time>
      </trkpt>
      <trkpt lat="45.83522" lon="6.16575">
        <ele>461.79403686523</ele>
        <time>2020-07-07T19:57:58.481Z</time>
      </trkpt>
      <trkpt lat="45.83566" lon="6.1649">
        <ele>459.75509643555</ele>
        <time>2020-07-07T19:58:00.853Z</time>
      </trkpt>
      <trkpt lat="45.83617" lon="6.16394">
        <ele>460.00619506836</ele>
        <time>2020-07-07T19:58:03.239Z</time>
      </trkpt>
      <trkpt lat="45.83659" lon="6.16337">
        <ele>460.68533325195</ele>
        <time>2020-07-07T19:58:05.634Z</time>
      </trkpt>
      <trkpt lat="45.83697" lon="6.16298">
        <ele>460.14559936523</ele>
        <time>2020-07-07T19:58:08.036Z</time>
      </trkpt>
      <trkpt lat="45.83761" lon="6.16247">
        <ele>459.2333984375</ele>
        <time>2020-07-07T19:58:10.450Z</time>
      </trkpt>
      <trkpt lat="45.83761" lon="6.16247">
        <ele>459.2333984375</ele>
        <time>2020-07-07T19:58:12.864Z</time>
      </trkpt>
      <trkpt lat="45.83969" lon="6.16115">
        <ele>455.42514038086</ele>
        <time>2020-07-07T19:58:15.315Z</time>
      </trkpt>
      <trkpt lat="45.83969" lon="6.16115">
        <ele>455.42492675781</ele>
        <time>2020-07-07T19:58:17.766Z</time>
      </trkpt>
      <trkpt lat="45.84072" lon="6.16047">
        <ele>454.5944519043</ele>
        <time>2020-07-07T19:58:20.235Z</time>
      </trkpt>
      <trkpt lat="45.84128" lon="6.15997">
        <ele>456.60284423828</ele>
        <time>2020-07-07T19:58:22.714Z</time>
      </trkpt>
      <trkpt lat="45.84191" lon="6.15915">
        <ele>455.98892211914</ele>
        <time>2020-07-07T19:58:25.207Z</time>
      </trkpt>
      <trkpt lat="45.84258" lon="6.15782">
        <ele>453.14984130859</ele>
        <time>2020-07-07T19:58:27.718Z</time>
      </trkpt>
      <trkpt lat="45.84399" lon="6.15466">
        <ele>453.75149536133</ele>
        <time>2020-07-07T19:58:30.271Z</time>
      </trkpt>
      <trkpt lat="45.84427" lon="6.15425">
        <ele>453.16799926758</ele>
        <time>2020-07-07T19:58:32.831Z</time>
      </trkpt>
      <trkpt lat="45.84427" lon="6.15425">
        <ele>453.16787719727</ele>
        <time>2020-07-07T19:58:35.391Z</time>
      </trkpt>
      <trkpt lat="45.84516" lon="6.15314">
        <ele>453.38360595703</ele>
        <time>2020-07-07T19:58:37.969Z</time>
      </trkpt>
      <trkpt lat="45.84594" lon="6.15246">
        <ele>453.45416259766</ele>
        <time>2020-07-07T19:58:40.562Z</time>
      </trkpt>
      <trkpt lat="45.84931" lon="6.15027">
        <ele>450.90649414062</ele>
        <time>2020-07-07T19:58:43.214Z</time>
      </trkpt>
      <trkpt lat="45.84931" lon="6.15027">
        <ele>450.90637207031</ele>
        <time>2020-07-07T19:58:45.866Z</time>
      </trkpt>
      <trkpt lat="45.8511" lon="6.14907">
        <ele>452.19848632812</ele>
        <time>2020-07-07T19:58:48.550Z</time>
      </trkpt>
      <trkpt lat="45.8511" lon="6.14907">
        <ele>452.19839477539</ele>
        <time>2020-07-07T19:58:51.234Z</time>
      </trkpt>
      <trkpt lat="45.85348" lon="6.14688">
        <ele>448.90737915039</ele>
        <time>2020-07-07T19:58:53.963Z</time>
      </trkpt>
      <trkpt lat="45.85408" lon="6.14652">
        <ele>447.77563476562</ele>
        <time>2020-07-07T19:58:56.703Z</time>
      </trkpt>
      <trkpt lat="45.85456" lon="6.14639">
        <ele>447.25881958008</ele>
        <time>2020-07-07T19:58:59.450Z</time>
      </trkpt>
      <trkpt lat="45.85554" lon="6.14631">
        <ele>449.73770141602</ele>
        <time>2020-07-07T19:59:02.213Z</time>
      </trkpt>
      <trkpt lat="45.85603" lon="6.14617">
        <ele>452.86801147461</ele>
        <time>2020-07-07T19:59:04.984Z</time>
      </trkpt>
      <trkpt lat="45.85649" lon="6.14594">
        <ele>452.87908935547</ele>
        <time>2020-07-07T19:59:07.763Z</time>
      </trkpt>
      <trkpt lat="45.85704" lon="6.14543">
        <ele>452.0846862793</ele>
        <time>2020-07-07T19:59:10.552Z</time>
      </trkpt>
      <trkpt lat="45.85829" lon="6.14352">
        <ele>450.26913452148</ele>
        <time>2020-07-07T19:59:13.371Z</time>
      </trkpt>
      <trkpt lat="45.85877" lon="6.1431">
        <ele>451</ele>
        <time>2020-07-07T19:59:16.199Z</time>
      </trkpt>
      <trkpt lat="45.8593" lon="6.1429">
        <ele>450.01348876953</ele>
        <time>2020-07-07T19:59:19.036Z</time>
      </trkpt>
      <trkpt lat="45.8592" lon="6.14238">
        <ele>450.51211547852</ele>
        <time>2020-07-07T19:59:21.879Z</time>
      </trkpt>
      <trkpt lat="45.85914" lon="6.14207">
        <ele>450.94976806641</ele>
        <time>2020-07-07T19:59:24.725Z</time>
      </trkpt>
      <trkpt lat="45.8598" lon="6.14182">
        <ele>452.73049926758</ele>
        <time>2020-07-07T19:59:27.582Z</time>
      </trkpt>
      <trkpt lat="45.86069" lon="6.1415">
        <ele>455.79681396484</ele>
        <time>2020-07-07T19:59:30.454Z</time>
      </trkpt>
      <trkpt lat="45.86106" lon="6.14136">
        <ele>457.29498291016</ele>
        <time>2020-07-07T19:59:33.332Z</time>
      </trkpt>
      <trkpt lat="45.86129" lon="6.14127">
        <ele>458.09228515625</ele>
        <time>2020-07-07T19:59:36.214Z</time>
      </trkpt>
      <trkpt lat="45.86146" lon="6.14121">
        <ele>457.81484985352</ele>
        <time>2020-07-07T19:59:39.099Z</time>
      </trkpt>
      <trkpt lat="45.86146" lon="6.14121">
        <ele>457.81625366211</ele>
        <time>2020-07-07T19:59:41.984Z</time>
      </trkpt>
      <trkpt lat="45.86147" lon="6.14121">
        <ele>457.81979370117</ele>
        <time>2020-07-07T19:59:44.869Z</time>
      </trkpt>
      <trkpt lat="45.86207" lon="6.141">
        <ele>459.42013549805</ele>
        <time>2020-07-07T19:59:47.764Z</time>
      </trkpt>
      <trkpt lat="45.86234" lon="6.14083">
        <ele>459.73303222656</ele>
        <time>2020-07-07T19:59:50.663Z</time>
      </trkpt>
      <trkpt lat="45.86252" lon="6.14091">
        <ele>459.99047851562</ele>
        <time>2020-07-07T19:59:53.565Z</time>
      </trkpt>
      <trkpt lat="45.8626" lon="6.14071">
        <ele>459.68295288086</ele>
        <time>2020-07-07T19:59:56.470Z</time>
      </trkpt>
      <trkpt lat="45.86252" lon="6.14057">
        <ele>459.7236328125</ele>
        <time>2020-07-07T19:59:59.377Z</time>
      </trkpt>
      <trkpt lat="45.86245" lon="6.14028">
        <ele>460.50885009766</ele>
        <time>2020-07-07T20:00:02.287Z</time>
      </trkpt>
      <trkpt lat="45.86217" lon="6.13969">
        <ele>462.37365722656</ele>
        <time>2020-07-07T20:00:05.205Z</time>
      </trkpt>
      <trkpt lat="45.86217" lon="6.13969">
        <ele>462.37405395508</ele>
        <time>2020-07-07T20:00:08.123Z</time>
      </trkpt>
      <trkpt lat="45.86095" lon="6.13883">
        <ele>469.01113891602</ele>
        <time>2020-07-07T20:00:11.063Z</time>
      </trkpt>
      <trkpt lat="45.86056" lon="6.13858">
        <ele>470.56912231445</ele>
        <time>2020-07-07T20:00:14.010Z</time>
      </trkpt>
      <trkpt lat="45.86022" lon="6.1385">
        <ele>472.12628173828</ele>
        <time>2020-07-07T20:00:16.962Z</time>
      </trkpt>
      <trkpt lat="45.85918" lon="6.13831">
        <ele>476.05606079102</ele>
        <time>2020-07-07T20:00:19.931Z</time>
      </trkpt>
      <trkpt lat="45.85855" lon="6.13826">
        <ele>477.48919677734</ele>
        <time>2020-07-07T20:00:22.910Z</time>
      </trkpt>
      <trkpt lat="45.85825" lon="6.13827">
        <ele>477.92684936523</ele>
        <time>2020-07-07T20:00:25.894Z</time>
      </trkpt>
      <trkpt lat="45.85822" lon="6.13827">
        <ele>477.96548461914</ele>
        <time>2020-07-07T20:00:28.879Z</time>
      </trkpt>
      <trkpt lat="45.85781" lon="6.13834">
        <ele>478.46691894531</ele>
        <time>2020-07-07T20:00:31.870Z</time>
      </trkpt>
      <trkpt lat="45.85721" lon="6.13843">
        <ele>479.15286254883</ele>
        <time>2020-07-07T20:00:34.871Z</time>
      </trkpt>
      <trkpt lat="45.85601" lon="6.13848">
        <ele>483.79534912109</ele>
        <time>2020-07-07T20:00:37.891Z</time>
      </trkpt>
      <trkpt lat="45.85526" lon="6.13829">
        <ele>487.48202514648</ele>
        <time>2020-07-07T20:00:40.923Z</time>
      </trkpt>
      <trkpt lat="45.85433" lon="6.13803">
        <ele>492.17098999023</ele>
        <time>2020-07-07T20:00:43.970Z</time>
      </trkpt>
      <trkpt lat="45.85416" lon="6.13805">
        <ele>491.8166809082</ele>
        <time>2020-07-07T20:00:47.020Z</time>
      </trkpt>
      <trkpt lat="45.85416" lon="6.13805">
        <ele>491.8166809082</ele>
        <time>2020-07-07T20:00:50.070Z</time>
      </trkpt>
      <trkpt lat="45.85416" lon="6.13805">
        <ele>491.81536865234</ele>
        <time>2020-07-07T20:00:53.120Z</time>
      </trkpt>
      <trkpt lat="45.8529" lon="6.13822">
        <ele>493.02551269531</ele>
        <time>2020-07-07T20:00:56.190Z</time>
      </trkpt>
      <trkpt lat="45.85131" lon="6.13792">
        <ele>503.67816162109</ele>
        <time>2020-07-07T20:00:59.286Z</time>
      </trkpt>
      <trkpt lat="45.85072" lon="6.13727">
        <ele>511.80630493164</ele>
        <time>2020-07-07T20:01:02.394Z</time>
      </trkpt>
      <trkpt lat="45.8504" lon="6.13714">
        <ele>512.07592773438</ele>
        <time>2020-07-07T20:01:05.507Z</time>
      </trkpt>
      <trkpt lat="45.8504" lon="6.13714">
        <ele>512.07611083984</ele>
        <time>2020-07-07T20:01:08.620Z</time>
      </trkpt>
      <trkpt lat="45.85015" lon="6.13719">
        <ele>511.57388305664</ele>
        <time>2020-07-07T20:01:11.737Z</time>
      </trkpt>
      <trkpt lat="45.84982" lon="6.13729">
        <ele>510.46765136719</ele>
        <time>2020-07-07T20:01:14.860Z</time>
      </trkpt>
      <trkpt lat="45.84958" lon="6.13778">
        <ele>508.96380615234</ele>
        <time>2020-07-07T20:01:17.989Z</time>
      </trkpt>
      <trkpt lat="45.84949" lon="6.13825">
        <ele>506.12243652344</ele>
        <time>2020-07-07T20:01:21.124Z</time>
      </trkpt>
      <trkpt lat="45.84926" lon="6.13851">
        <ele>506.9482421875</ele>
        <time>2020-07-07T20:01:24.264Z</time>
      </trkpt>
      <trkpt lat="45.84798" lon="6.13844">
        <ele>521.31695556641</ele>
        <time>2020-07-07T20:01:27.424Z</time>
      </trkpt>
      <trkpt lat="45.84679" lon="6.13853">
        <ele>525.66864013672</ele>
        <time>2020-07-07T20:01:30.603Z</time>
      </trkpt>
      <trkpt lat="45.84657" lon="6.13851">
        <ele>529.05407714844</ele>
        <time>2020-07-07T20:01:33.786Z</time>
      </trkpt>
      <trkpt lat="45.84644" lon="6.13848">
        <ele>531.33251953125</ele>
        <time>2020-07-07T20:01:36.971Z</time>
      </trkpt>
      <trkpt lat="45.84519" lon="6.13804">
        <ele>537.92645263672</ele>
        <time>2020-07-07T20:01:40.176Z</time>
      </trkpt>
      <trkpt lat="45.84473" lon="6.13792">
        <ele>539.62561035156</ele>
        <time>2020-07-07T20:01:43.389Z</time>
      </trkpt>
      <trkpt lat="45.84355" lon="6.13799">
        <ele>547.09875488281</ele>
        <time>2020-07-07T20:01:46.621Z</time>
      </trkpt>
      <trkpt lat="45.84327" lon="6.13792">
        <ele>550.22601318359</ele>
        <time>2020-07-07T20:01:49.857Z</time>
      </trkpt>
      <trkpt lat="45.84247" lon="6.13772">
        <ele>560.93225097656</ele>
        <time>2020-07-07T20:01:53.106Z</time>
      </trkpt>
      <trkpt lat="45.84178" lon="6.13781">
        <ele>564.71411132812</ele>
        <time>2020-07-07T20:01:56.366Z</time>
      </trkpt>
      <trkpt lat="45.84171" lon="6.13793">
        <ele>565.29339599609</ele>
        <time>2020-07-07T20:01:59.628Z</time>
      </trkpt>
      <trkpt lat="45.8417" lon="6.13829">
        <ele>564.67565917969</ele>
        <time>2020-07-07T20:02:02.894Z</time>
      </trkpt>
      <trkpt lat="45.84236" lon="6.13864">
        <ele>553.79852294922</ele>
        <time>2020-07-07T20:02:06.171Z</time>
      </trkpt>
      <trkpt lat="45.84239" lon="6.1387">
        <ele>553.57971191406</ele>
        <time>2020-07-07T20:02:09.449Z</time>
      </trkpt>
      <trkpt lat="45.84244" lon="6.1388">
        <ele>553.00152587891</ele>
        <time>2020-07-07T20:02:12.729Z</time>
      </trkpt>
      <trkpt lat="45.84241" lon="6.139">
        <ele>553.04205322266</ele>
        <time>2020-07-07T20:02:16.011Z</time>
      </trkpt>
      <trkpt lat="45.84197" lon="6.13959">
        <ele>553.93939208984</ele>
        <time>2020-07-07T20:02:19.303Z</time>
      </trkpt>
      <trkpt lat="45.84153" lon="6.13972">
        <ele>558.72796630859</ele>
        <time>2020-07-07T20:02:22.602Z</time>
      </trkpt>
      <trkpt lat="45.83848" lon="6.14016">
        <ele>576.48370361328</ele>
        <time>2020-07-07T20:02:25.950Z</time>
      </trkpt>
      <trkpt lat="45.83832" lon="6.14025">
        <ele>576.14001464844</ele>
        <time>2020-07-07T20:02:29.301Z</time>
      </trkpt>
      <trkpt lat="45.83832" lon="6.14025">
        <ele>576.14080810547</ele>
        <time>2020-07-07T20:02:32.652Z</time>
      </trkpt>
      <trkpt lat="45.83733" lon="6.14116">
        <ele>576.08386230469</ele>
        <time>2020-07-07T20:02:36.021Z</time>
      </trkpt>
      <trkpt lat="45.83702" lon="6.14146">
        <ele>578.92462158203</ele>
        <time>2020-07-07T20:02:39.396Z</time>
      </trkpt>
      <trkpt lat="45.83643" lon="6.1418">
        <ele>586.65106201172</ele>
        <time>2020-07-07T20:02:42.781Z</time>
      </trkpt>
      <trkpt lat="45.83565" lon="6.14222">
        <ele>592.12115478516</ele>
        <time>2020-07-07T20:02:46.180Z</time>
      </trkpt>
      <trkpt lat="45.83513" lon="6.14239">
        <ele>595.55023193359</ele>
        <time>2020-07-07T20:02:49.587Z</time>
      </trkpt>
      <trkpt lat="45.8347" lon="6.14241">
        <ele>599.90087890625</ele>
        <time>2020-07-07T20:02:53.001Z</time>
      </trkpt>
      <trkpt lat="45.83424" lon="6.14229">
        <ele>602.03765869141</ele>
        <time>2020-07-07T20:02:56.423Z</time>
      </trkpt>
      <trkpt lat="45.83317" lon="6.1419">
        <ele>603.46240234375</ele>
        <time>2020-07-07T20:02:59.862Z</time>
      </trkpt>
      <trkpt lat="45.83284" lon="6.14172">
        <ele>603.56127929688</ele>
        <time>2020-07-07T20:03:03.307Z</time>
      </trkpt>
      <trkpt lat="45.83204" lon="6.14101">
        <ele>607.57159423828</ele>
        <time>2020-07-07T20:03:06.767Z</time>
      </trkpt>
      <trkpt lat="45.83173" lon="6.14093">
        <ele>607.04431152344</ele>
        <time>2020-07-07T20:03:10.232Z</time>
      </trkpt>
      <trkpt lat="45.83108" lon="6.14122">
        <ele>605.55584716797</ele>
        <time>2020-07-07T20:03:13.708Z</time>
      </trkpt>
      <trkpt lat="45.83084" lon="6.14124">
        <ele>607.25500488281</ele>
        <time>2020-07-07T20:03:17.188Z</time>
      </trkpt>
      <trkpt lat="45.83028" lon="6.14109">
        <ele>612.94268798828</ele>
        <time>2020-07-07T20:03:20.677Z</time>
      </trkpt>
      <trkpt lat="45.82961" lon="6.14057">
        <ele>623.39636230469</ele>
        <time>2020-07-07T20:03:24.178Z</time>
      </trkpt>
      <trkpt lat="45.8295" lon="6.14055">
        <ele>624.58062744141</ele>
        <time>2020-07-07T20:03:27.681Z</time>
      </trkpt>
      <trkpt lat="45.8294" lon="6.14064">
        <ele>624.40979003906</ele>
        <time>2020-07-07T20:03:31.186Z</time>
      </trkpt>
      <trkpt lat="45.82935" lon="6.14079">
        <ele>623.59954833984</ele>
        <time>2020-07-07T20:03:34.693Z</time>
      </trkpt>
      <trkpt lat="45.82936" lon="6.14135">
        <ele>618.50256347656</ele>
        <time>2020-07-07T20:03:38.206Z</time>
      </trkpt>
      <trkpt lat="45.82926" lon="6.14166">
        <ele>616.73291015625</ele>
        <time>2020-07-07T20:03:41.723Z</time>
      </trkpt>
      <trkpt lat="45.82912" lon="6.14185">
        <ele>615.50854492188</ele>
        <time>2020-07-07T20:03:45.243Z</time>
      </trkpt>
      <trkpt lat="45.82912" lon="6.14185">
        <ele>615.5087890625</ele>
        <time>2020-07-07T20:03:48.763Z</time>
      </trkpt>
      <trkpt lat="45.82871" lon="6.14215">
        <ele>614.29449462891</ele>
        <time>2020-07-07T20:03:52.290Z</time>
      </trkpt>
      <trkpt lat="45.82808" lon="6.14224">
        <ele>620.08618164062</ele>
        <time>2020-07-07T20:03:55.827Z</time>
      </trkpt>
      <trkpt lat="45.82613" lon="6.14211">
        <ele>626.27276611328</ele>
        <time>2020-07-07T20:03:59.396Z</time>
      </trkpt>
      <trkpt lat="45.82613" lon="6.14211">
        <ele>626.27264404297</ele>
        <time>2020-07-07T20:04:02.965Z</time>
      </trkpt>
      <trkpt lat="45.82591" lon="6.14193">
        <ele>628.84716796875</ele>
        <time>2020-07-07T20:04:06.538Z</time>
      </trkpt>
      <trkpt lat="45.82524" lon="6.14056">
        <ele>642.06842041016</ele>
        <time>2020-07-07T20:04:10.129Z</time>
      </trkpt>
      <trkpt lat="45.82524" lon="6.14056">
        <ele>642.06683349609</ele>
        <time>2020-07-07T20:04:13.720Z</time>
      </trkpt>
      <trkpt lat="45.82459" lon="6.13961">
        <ele>651.47442626953</ele>
        <time>2020-07-07T20:04:17.326Z</time>
      </trkpt>
      <trkpt lat="45.82437" lon="6.13901">
        <ele>657.55023193359</ele>
        <time>2020-07-07T20:04:20.940Z</time>
      </trkpt>
      <trkpt lat="45.82394" lon="6.13817">
        <ele>658.57061767578</ele>
        <time>2020-07-07T20:04:24.566Z</time>
      </trkpt>
      <trkpt lat="45.82382" lon="6.13766">
        <ele>661.96270751953</ele>
        <time>2020-07-07T20:04:28.198Z</time>
      </trkpt>
      <trkpt lat="45.82379" lon="6.13709">
        <ele>667.07696533203</ele>
        <time>2020-07-07T20:04:31.836Z</time>
      </trkpt>
      <trkpt lat="45.8237" lon="6.13682">
        <ele>666.24029541016</ele>
        <time>2020-07-07T20:04:35.477Z</time>
      </trkpt>
      <trkpt lat="45.82242" lon="6.13657">
        <ele>657.40728759766</ele>
        <time>2020-07-07T20:04:39.139Z</time>
      </trkpt>
      <trkpt lat="45.82139" lon="6.13552">
        <ele>668.74584960938</ele>
        <time>2020-07-07T20:04:42.821Z</time>
      </trkpt>
      <trkpt lat="45.82127" lon="6.13523">
        <ele>672.27294921875</ele>
        <time>2020-07-07T20:04:46.507Z</time>
      </trkpt>
      <trkpt lat="45.82108" lon="6.13434">
        <ele>689.24310302734</ele>
        <time>2020-07-07T20:04:50.203Z</time>
      </trkpt>
      <trkpt lat="45.82092" lon="6.13413">
        <ele>691.75323486328</ele>
        <time>2020-07-07T20:04:53.903Z</time>
      </trkpt>
      <trkpt lat="45.82052" lon="6.13403">
        <ele>688.11126708984</ele>
        <time>2020-07-07T20:04:57.609Z</time>
      </trkpt>
      <trkpt lat="45.82005" lon="6.13413">
        <ele>681.36676025391</ele>
        <time>2020-07-07T20:05:01.323Z</time>
      </trkpt>
      <trkpt lat="45.81953" lon="6.13405">
        <ele>678.21661376953</ele>
        <time>2020-07-07T20:05:05.045Z</time>
      </trkpt>
      <trkpt lat="45.81857" lon="6.13348">
        <ele>694.67352294922</ele>
        <time>2020-07-07T20:05:08.784Z</time>
      </trkpt>
      <trkpt lat="45.81825" lon="6.13371">
        <ele>690.62231445312</ele>
        <time>2020-07-07T20:05:12.529Z</time>
      </trkpt>
      <trkpt lat="45.81798" lon="6.13476">
        <ele>684.26300048828</ele>
        <time>2020-07-07T20:05:16.286Z</time>
      </trkpt>
      <trkpt lat="45.81796" lon="6.13485">
        <ele>684.51977539062</ele>
        <time>2020-07-07T20:05:20.044Z</time>
      </trkpt>
      <trkpt lat="45.81778" lon="6.1355">
        <ele>687.29833984375</ele>
        <time>2020-07-07T20:05:23.810Z</time>
      </trkpt>
      <trkpt lat="45.81768" lon="6.1357">
        <ele>688.09045410156</ele>
        <time>2020-07-07T20:05:27.579Z</time>
      </trkpt>
      <trkpt lat="45.81617" lon="6.13716">
        <ele>695.83599853516</ele>
        <time>2020-07-07T20:05:31.377Z</time>
      </trkpt>
      <trkpt lat="45.8152" lon="6.1378">
        <ele>694.40447998047</ele>
        <time>2020-07-07T20:05:35.192Z</time>
      </trkpt>
      <trkpt lat="45.81496" lon="6.13785">
        <ele>695.26690673828</ele>
        <time>2020-07-07T20:05:39.011Z</time>
      </trkpt>
      <trkpt lat="45.8142" lon="6.13775">
        <ele>703.19421386719</ele>
        <time>2020-07-07T20:05:42.842Z</time>
      </trkpt>
      <trkpt lat="45.81341" lon="6.1378">
        <ele>702.73547363281</ele>
        <time>2020-07-07T20:05:46.686Z</time>
      </trkpt>
      <trkpt lat="45.81282" lon="6.13727">
        <ele>716.42999267578</ele>
        <time>2020-07-07T20:05:50.541Z</time>
      </trkpt>
      <trkpt lat="45.81249" lon="6.13729">
        <ele>713.48461914062</ele>
        <time>2020-07-07T20:05:54.401Z</time>
      </trkpt>
      <trkpt lat="45.81224" lon="6.13721">
        <ele>714.7314453125</ele>
        <time>2020-07-07T20:05:58.265Z</time>
      </trkpt>
      <trkpt lat="45.81146" lon="6.13695">
        <ele>722.30218505859</ele>
        <time>2020-07-07T20:06:02.142Z</time>
      </trkpt>
      <trkpt lat="45.81062" lon="6.13685">
        <ele>724.02532958984</ele>
        <time>2020-07-07T20:06:06.033Z</time>
      </trkpt>
      <trkpt lat="45.81024" lon="6.13668">
        <ele>729.98767089844</ele>
        <time>2020-07-07T20:06:09.930Z</time>
      </trkpt>
      <trkpt lat="45.80994" lon="6.13668">
        <ele>729.73187255859</ele>
        <time>2020-07-07T20:06:13.832Z</time>
      </trkpt>
      <trkpt lat="45.80972" lon="6.13681">
        <ele>726.92864990234</ele>
        <time>2020-07-07T20:06:17.738Z</time>
      </trkpt>
      <trkpt lat="45.80938" lon="6.13686">
        <ele>724.12243652344</ele>
        <time>2020-07-07T20:06:21.649Z</time>
      </trkpt>
      <trkpt lat="45.80903" lon="6.1368">
        <ele>724.52227783203</ele>
        <time>2020-07-07T20:06:25.566Z</time>
      </trkpt>
      <trkpt lat="45.80879" lon="6.13665">
        <ele>727.52362060547</ele>
        <time>2020-07-07T20:06:29.487Z</time>
      </trkpt>
      <trkpt lat="45.80858" lon="6.1363">
        <ele>735.59143066406</ele>
        <time>2020-07-07T20:06:33.413Z</time>
      </trkpt>
      <trkpt lat="45.80844" lon="6.1362">
        <ele>737.17474365234</ele>
        <time>2020-07-07T20:06:37.342Z</time>
      </trkpt>
      <trkpt lat="45.80795" lon="6.13618">
        <ele>731.95458984375</ele>
        <time>2020-07-07T20:06:41.279Z</time>
      </trkpt>
      <trkpt lat="45.8078" lon="6.13609">
        <ele>732.08459472656</ele>
        <time>2020-07-07T20:06:45.218Z</time>
      </trkpt>
      <trkpt lat="45.80753" lon="6.13576">
        <ele>737.47686767578</ele>
        <time>2020-07-07T20:06:49.163Z</time>
      </trkpt>
      <trkpt lat="45.80723" lon="6.13562">
        <ele>736.81402587891</ele>
        <time>2020-07-07T20:06:53.113Z</time>
      </trkpt>
      <trkpt lat="45.80678" lon="6.13566">
        <ele>737.68835449219</ele>
        <time>2020-07-07T20:06:57.070Z</time>
      </trkpt>
      <trkpt lat="45.80658" lon="6.1358">
        <ele>734.93408203125</ele>
        <time>2020-07-07T20:07:01.031Z</time>
      </trkpt>
      <trkpt lat="45.80641" lon="6.13582">
        <ele>735.64385986328</ele>
        <time>2020-07-07T20:07:04.994Z</time>
      </trkpt>
      <trkpt lat="45.80577" lon="6.13551">
        <ele>746.8388671875</ele>
        <time>2020-07-07T20:07:08.968Z</time>
      </trkpt>
      <trkpt lat="45.80496" lon="6.1359">
        <ele>745.58251953125</ele>
        <time>2020-07-07T20:07:12.956Z</time>
      </trkpt>
      <trkpt lat="45.80475" lon="6.13598">
        <ele>747.17980957031</ele>
        <time>2020-07-07T20:07:16.947Z</time>
      </trkpt>
      <trkpt lat="45.80441" lon="6.1359">
        <ele>752.19641113281</ele>
        <time>2020-07-07T20:07:20.944Z</time>
      </trkpt>
      <trkpt lat="45.80391" lon="6.13664">
        <ele>748.47729492188</ele>
        <time>2020-07-07T20:07:24.952Z</time>
      </trkpt>
      <trkpt lat="45.80312" lon="6.13785">
        <ele>750.82977294922</ele>
        <time>2020-07-07T20:07:28.979Z</time>
      </trkpt>
      <trkpt lat="45.8027" lon="6.13826">
        <ele>752.6201171875</ele>
        <time>2020-07-07T20:07:33.014Z</time>
      </trkpt>
      <trkpt lat="45.80232" lon="6.13842">
        <ele>755.4990234375</ele>
        <time>2020-07-07T20:07:37.055Z</time>
      </trkpt>
      <trkpt lat="45.80193" lon="6.13846">
        <ele>759.0400390625</ele>
        <time>2020-07-07T20:07:41.103Z</time>
      </trkpt>
      <trkpt lat="45.80127" lon="6.13829">
        <ele>765.93939208984</ele>
        <time>2020-07-07T20:07:45.161Z</time>
      </trkpt>
      <trkpt lat="45.80104" lon="6.13803">
        <ele>772.92932128906</ele>
        <time>2020-07-07T20:07:49.224Z</time>
      </trkpt>
      <trkpt lat="45.80094" lon="6.1377">
        <ele>778.97937011719</ele>
        <time>2020-07-07T20:07:53.291Z</time>
      </trkpt>
      <trkpt lat="45.80075" lon="6.13744">
        <ele>784.46539306641</ele>
        <time>2020-07-07T20:07:57.362Z</time>
      </trkpt>
      <trkpt lat="45.80055" lon="6.13745">
        <ele>784.97796630859</ele>
        <time>2020-07-07T20:08:01.436Z</time>
      </trkpt>
      <trkpt lat="45.80041" lon="6.13758">
        <ele>784.466796875</ele>
        <time>2020-07-07T20:08:05.513Z</time>
      </trkpt>
      <trkpt lat="45.8003" lon="6.13795">
        <ele>779.306640625</ele>
        <time>2020-07-07T20:08:09.595Z</time>
      </trkpt>
      <trkpt lat="45.80012" lon="6.13813">
        <ele>776.57763671875</ele>
        <time>2020-07-07T20:08:13.680Z</time>
      </trkpt>
      <trkpt lat="45.79979" lon="6.13818">
        <ele>777.74737548828</ele>
        <time>2020-07-07T20:08:17.770Z</time>
      </trkpt>
      <trkpt lat="45.79947" lon="6.13802">
        <ele>780.11157226562</ele>
        <time>2020-07-07T20:08:21.866Z</time>
      </trkpt>
      <trkpt lat="45.79933" lon="6.13767">
        <ele>789.49932861328</ele>
        <time>2020-07-07T20:08:25.966Z</time>
      </trkpt>
      <trkpt lat="45.79919" lon="6.13754">
        <ele>792.27978515625</ele>
        <time>2020-07-07T20:08:30.069Z</time>
      </trkpt>
      <trkpt lat="45.79899" lon="6.13753">
        <ele>790.88580322266</ele>
        <time>2020-07-07T20:08:34.175Z</time>
      </trkpt>
      <trkpt lat="45.7988" lon="6.1378">
        <ele>781.1728515625</ele>
        <time>2020-07-07T20:08:38.286Z</time>
      </trkpt>
      <trkpt lat="45.79845" lon="6.13783">
        <ele>782.21704101562</ele>
        <time>2020-07-07T20:08:42.402Z</time>
      </trkpt>
      <trkpt lat="45.79784" lon="6.13701">
        <ele>803.11486816406</ele>
        <time>2020-07-07T20:08:46.532Z</time>
      </trkpt>
      <trkpt lat="45.79761" lon="6.13701">
        <ele>802.96594238281</ele>
        <time>2020-07-07T20:08:50.665Z</time>
      </trkpt>
      <trkpt lat="45.79725" lon="6.13745">
        <ele>796.62200927734</ele>
        <time>2020-07-07T20:08:54.806Z</time>
      </trkpt>
      <trkpt lat="45.79702" lon="6.13755">
        <ele>795.27142333984</ele>
        <time>2020-07-07T20:08:58.951Z</time>
      </trkpt>
      <trkpt lat="45.79686" lon="6.13751">
        <ele>796.23687744141</ele>
        <time>2020-07-07T20:09:03.098Z</time>
      </trkpt>
      <trkpt lat="45.79663" lon="6.13683">
        <ele>803.89837646484</ele>
        <time>2020-07-07T20:09:07.254Z</time>
      </trkpt>
      <trkpt lat="45.79654" lon="6.13674">
        <ele>804.61926269531</ele>
        <time>2020-07-07T20:09:11.411Z</time>
      </trkpt>
      <trkpt lat="45.79624" lon="6.13695">
        <ele>803.17010498047</ele>
        <time>2020-07-07T20:09:15.574Z</time>
      </trkpt>
      <trkpt lat="45.79602" lon="6.137">
        <ele>802.28253173828</ele>
        <time>2020-07-07T20:09:19.740Z</time>
      </trkpt>
      <trkpt lat="45.79583" lon="6.13688">
        <ele>802.7587890625</ele>
        <time>2020-07-07T20:09:23.910Z</time>
      </trkpt>
      <trkpt lat="45.79566" lon="6.13641">
        <ele>806.64105224609</ele>
        <time>2020-07-07T20:09:28.086Z</time>
      </trkpt>
      <trkpt lat="45.79546" lon="6.13624">
        <ele>809.81811523438</ele>
        <time>2020-07-07T20:09:32.265Z</time>
      </trkpt>
      <trkpt lat="45.79517" lon="6.13627">
        <ele>810.96258544922</ele>
        <time>2020-07-07T20:09:36.449Z</time>
      </trkpt>
      <trkpt lat="45.79491" lon="6.13644">
        <ele>810.56506347656</ele>
        <time>2020-07-07T20:09:40.637Z</time>
      </trkpt>
      <trkpt lat="45.79471" lon="6.13674">
        <ele>808.44146728516</ele>
        <time>2020-07-07T20:09:44.830Z</time>
      </trkpt>
      <trkpt lat="45.79471" lon="6.13674">
        <ele>808.44226074219</ele>
        <time>2020-07-07T20:09:49.023Z</time>
      </trkpt>
      <trkpt lat="45.79441" lon="6.13703">
        <ele>807.08483886719</ele>
        <time>2020-07-07T20:09:53.222Z</time>
      </trkpt>
      <trkpt lat="45.79404" lon="6.13693">
        <ele>809.09295654297</ele>
        <time>2020-07-07T20:09:57.427Z</time>
      </trkpt>
      <trkpt lat="45.79243" lon="6.1362">
        <ele>826.36218261719</ele>
        <time>2020-07-07T20:10:01.659Z</time>
      </trkpt>
      <trkpt lat="45.79128" lon="6.13525">
        <ele>831.59692382812</ele>
        <time>2020-07-07T20:10:05.912Z</time>
      </trkpt>
      <trkpt lat="45.79128" lon="6.13525">
        <ele>831.59790039062</ele>
        <time>2020-07-07T20:10:10.165Z</time>
      </trkpt>
      <trkpt lat="45.79128" lon="6.13525">
        <ele>831.59698486328</ele>
        <time>2020-07-07T20:10:14.418Z</time>
      </trkpt>
      <trkpt lat="45.79128" lon="6.13525">
        <ele>831.59704589844</ele>
        <time>2020-07-07T20:10:18.671Z</time>
      </trkpt>
      <trkpt lat="45.79103" lon="6.13528">
        <ele>831.63549804688</ele>
        <time>2020-07-07T20:10:22.928Z</time>
      </trkpt>
      <trkpt lat="45.79093" lon="6.13539">
        <ele>829.93615722656</ele>
        <time>2020-07-07T20:10:27.187Z</time>
      </trkpt>
      <trkpt lat="45.79057" lon="6.13569">
        <ele>825.86566162109</ele>
        <time>2020-07-07T20:10:31.453Z</time>
      </trkpt>
      <trkpt lat="45.79005" lon="6.13562">
        <ele>831.05236816406</ele>
        <time>2020-07-07T20:10:35.727Z</time>
      </trkpt>
      <trkpt lat="45.78965" lon="6.13547">
        <ele>835.62536621094</ele>
        <time>2020-07-07T20:10:40.008Z</time>
      </trkpt>
      <trkpt lat="45.78911" lon="6.13513">
        <ele>836.46905517578</ele>
        <time>2020-07-07T20:10:44.298Z</time>
      </trkpt>
      <trkpt lat="45.78885" lon="6.13493">
        <ele>837.68218994141</ele>
        <time>2020-07-07T20:10:48.593Z</time>
      </trkpt>
      <trkpt lat="45.78873" lon="6.13469">
        <ele>840.1953125</ele>
        <time>2020-07-07T20:10:52.891Z</time>
      </trkpt>
      <trkpt lat="45.78864" lon="6.13413">
        <ele>843.86669921875</ele>
        <time>2020-07-07T20:10:57.196Z</time>
      </trkpt>
      <trkpt lat="45.78854" lon="6.13386">
        <ele>845.15582275391</ele>
        <time>2020-07-07T20:11:01.504Z</time>
      </trkpt>
      <trkpt lat="45.78818" lon="6.13355">
        <ele>844.6923828125</ele>
        <time>2020-07-07T20:11:05.819Z</time>
      </trkpt>
      <trkpt lat="45.78797" lon="6.13356">
        <ele>843.12103271484</ele>
        <time>2020-07-07T20:11:10.137Z</time>
      </trkpt>
      <trkpt lat="45.7876" lon="6.13374">
        <ele>840.85717773438</ele>
        <time>2020-07-07T20:11:14.462Z</time>
      </trkpt>
      <trkpt lat="45.78633" lon="6.13362">
        <ele>841.76446533203</ele>
        <time>2020-07-07T20:11:18.807Z</time>
      </trkpt>
      <trkpt lat="45.78524" lon="6.13281">
        <ele>851.26995849609</ele>
        <time>2020-07-07T20:11:23.172Z</time>
      </trkpt>
      <trkpt lat="45.78524" lon="6.13281">
        <ele>851.26934814453</ele>
        <time>2020-07-07T20:11:27.537Z</time>
      </trkpt>
      <trkpt lat="45.78458" lon="6.13243">
        <ele>855.40753173828</ele>
        <time>2020-07-07T20:11:31.913Z</time>
      </trkpt>
      <trkpt lat="45.7843" lon="6.13246">
        <ele>854.37786865234</ele>
        <time>2020-07-07T20:11:36.294Z</time>
      </trkpt>
      <trkpt lat="45.78381" lon="6.13253">
        <ele>853.16961669922</ele>
        <time>2020-07-07T20:11:40.683Z</time>
      </trkpt>
      <trkpt lat="45.78325" lon="6.13231">
        <ele>852.75769042969</ele>
        <time>2020-07-07T20:11:45.081Z</time>
      </trkpt>
      <trkpt lat="45.78225" lon="6.13222">
        <ele>854.29571533203</ele>
        <time>2020-07-07T20:11:49.495Z</time>
      </trkpt>
      <trkpt lat="45.78154" lon="6.13193">
        <ele>858.45660400391</ele>
        <time>2020-07-07T20:11:53.921Z</time>
      </trkpt>
      <trkpt lat="45.78027" lon="6.13085">
        <ele>877.76220703125</ele>
        <time>2020-07-07T20:11:58.370Z</time>
      </trkpt>
      <trkpt lat="45.78009" lon="6.13082">
        <ele>878.19989013672</ele>
        <time>2020-07-07T20:12:02.822Z</time>
      </trkpt>
      <trkpt lat="45.7799" lon="6.13091">
        <ele>876.99359130859</ele>
        <time>2020-07-07T20:12:07.277Z</time>
      </trkpt>
      <trkpt lat="45.77974" lon="6.13128">
        <ele>873.77545166016</ele>
        <time>2020-07-07T20:12:11.737Z</time>
      </trkpt>
      <trkpt lat="45.77962" lon="6.13183">
        <ele>869.54113769531</ele>
        <time>2020-07-07T20:12:16.204Z</time>
      </trkpt>
      <trkpt lat="45.7794" lon="6.13227">
        <ele>867.22521972656</ele>
        <time>2020-07-07T20:12:20.677Z</time>
      </trkpt>
      <trkpt lat="45.77883" lon="6.1327">
        <ele>868.23059082031</ele>
        <time>2020-07-07T20:12:25.160Z</time>
      </trkpt>
      <trkpt lat="45.77836" lon="6.13274">
        <ele>871.01104736328</ele>
        <time>2020-07-07T20:12:29.651Z</time>
      </trkpt>
      <trkpt lat="45.77779" lon="6.13255">
        <ele>876.63818359375</ele>
        <time>2020-07-07T20:12:34.151Z</time>
      </trkpt>
      <trkpt lat="45.7774" lon="6.13256">
        <ele>877.41052246094</ele>
        <time>2020-07-07T20:12:38.657Z</time>
      </trkpt>
      <trkpt lat="45.77713" lon="6.13275">
        <ele>875.85516357422</ele>
        <time>2020-07-07T20:12:43.168Z</time>
      </trkpt>
      <trkpt lat="45.77691" lon="6.1328">
        <ele>877.39984130859</ele>
        <time>2020-07-07T20:12:47.683Z</time>
      </trkpt>
      <trkpt lat="45.77605" lon="6.13275">
        <ele>883.5146484375</ele>
        <time>2020-07-07T20:12:52.211Z</time>
      </trkpt>
      <trkpt lat="45.77528" lon="6.13294">
        <ele>886.02215576172</ele>
        <time>2020-07-07T20:12:56.752Z</time>
      </trkpt>
      <trkpt lat="45.775" lon="6.13285">
        <ele>889.42053222656</ele>
        <time>2020-07-07T20:13:01.297Z</time>
      </trkpt>
      <trkpt lat="45.77477" lon="6.13263">
        <ele>893.38525390625</ele>
        <time>2020-07-07T20:13:05.847Z</time>
      </trkpt>
      <trkpt lat="45.77456" lon="6.13255">
        <ele>894.48901367188</ele>
        <time>2020-07-07T20:13:10.400Z</time>
      </trkpt>
      <trkpt lat="45.77432" lon="6.13261">
        <ele>893.66516113281</ele>
        <time>2020-07-07T20:13:14.957Z</time>
      </trkpt>
      <trkpt lat="45.77389" lon="6.133">
        <ele>894.19207763672</ele>
        <time>2020-07-07T20:13:19.522Z</time>
      </trkpt>
      <trkpt lat="45.77359" lon="6.13296">
        <ele>893.84661865234</ele>
        <time>2020-07-07T20:13:24.092Z</time>
      </trkpt>
      <trkpt lat="45.77276" lon="6.13222">
        <ele>895.40167236328</ele>
        <time>2020-07-07T20:13:28.678Z</time>
      </trkpt>
      <trkpt lat="45.77207" lon="6.13185">
        <ele>897.68225097656</ele>
        <time>2020-07-07T20:13:33.276Z</time>
      </trkpt>
      <trkpt lat="45.77182" lon="6.13164">
        <ele>898.63500976562</ele>
        <time>2020-07-07T20:13:37.878Z</time>
      </trkpt>
      <trkpt lat="45.77154" lon="6.13133">
        <ele>899.79180908203</ele>
        <time>2020-07-07T20:13:42.486Z</time>
      </trkpt>
      <trkpt lat="45.77154" lon="6.13133">
        <ele>899.79144287109</ele>
        <time>2020-07-07T20:13:47.094Z</time>
      </trkpt>
      <trkpt lat="45.77031" lon="6.12996">
        <ele>893.66168212891</ele>
        <time>2020-07-07T20:13:51.727Z</time>
      </trkpt>
      <trkpt lat="45.77022" lon="6.1297">
        <ele>893.88220214844</ele>
        <time>2020-07-07T20:13:56.363Z</time>
      </trkpt>
      <trkpt lat="45.77005" lon="6.12853">
        <ele>891.35583496094</ele>
        <time>2020-07-07T20:14:01.013Z</time>
      </trkpt>
      <trkpt lat="45.76992" lon="6.12825">
        <ele>890.10498046875</ele>
        <time>2020-07-07T20:14:05.666Z</time>
      </trkpt>
      <trkpt lat="45.76923" lon="6.12747">
        <ele>884.84185791016</ele>
        <time>2020-07-07T20:14:10.333Z</time>
      </trkpt>
      <trkpt lat="45.76884" lon="6.12714">
        <ele>882.74487304688</ele>
        <time>2020-07-07T20:14:15.008Z</time>
      </trkpt>
      <trkpt lat="45.76884" lon="6.12714">
        <ele>882.74444580078</ele>
        <time>2020-07-07T20:14:19.683Z</time>
      </trkpt>
      <trkpt lat="45.76806" lon="6.1272">
        <ele>875.91229248047</ele>
        <time>2020-07-07T20:14:24.370Z</time>
      </trkpt>
      <trkpt lat="45.76777" lon="6.12714">
        <ele>874.57214355469</ele>
        <time>2020-07-07T20:14:29.062Z</time>
      </trkpt>
      <trkpt lat="45.76648" lon="6.12642">
        <ele>869.40625</ele>
        <time>2020-07-07T20:14:33.776Z</time>
      </trkpt>
      <trkpt lat="45.76496" lon="6.12524">
        <ele>865.42065429688</ele>
        <time>2020-07-07T20:14:38.518Z</time>
      </trkpt>
      <trkpt lat="45.76419" lon="6.12412">
        <ele>861.94104003906</ele>
        <time>2020-07-07T20:14:43.277Z</time>
      </trkpt>
      <trkpt lat="45.76406" lon="6.12378">
        <ele>861.18658447266</ele>
        <time>2020-07-07T20:14:48.040Z</time>
      </trkpt>
      <trkpt lat="45.76396" lon="6.12258">
        <ele>860.43572998047</ele>
        <time>2020-07-07T20:14:52.817Z</time>
      </trkpt>
      <trkpt lat="45.76372" lon="6.12208">
        <ele>858.18273925781</ele>
        <time>2020-07-07T20:14:57.601Z</time>
      </trkpt>
      <trkpt lat="45.76352" lon="6.12182">
        <ele>857.16577148438</ele>
        <time>2020-07-07T20:15:02.389Z</time>
      </trkpt>
      <trkpt lat="45.761" lon="6.12048">
        <ele>842.98693847656</ele>
        <time>2020-07-07T20:15:07.220Z</time>
      </trkpt>
      <trkpt lat="45.76055" lon="6.12004">
        <ele>844.46722412109</ele>
        <time>2020-07-07T20:15:12.060Z</time>
      </trkpt>
      <trkpt lat="45.75964" lon="6.1189">
        <ele>838.68981933594</ele>
        <time>2020-07-07T20:15:16.919Z</time>
      </trkpt>
      <trkpt lat="45.75834" lon="6.11801">
        <ele>838.13140869141</ele>
        <time>2020-07-07T20:15:21.801Z</time>
      </trkpt>
      <trkpt lat="45.7554" lon="6.1171">
        <ele>816.57946777344</ele>
        <time>2020-07-07T20:15:26.732Z</time>
      </trkpt>
      <trkpt lat="45.75475" lon="6.11657">
        <ele>822.38854980469</ele>
        <time>2020-07-07T20:15:31.674Z</time>
      </trkpt>
      <trkpt lat="45.75475" lon="6.11657">
        <ele>822.38787841797</ele>
        <time>2020-07-07T20:15:36.616Z</time>
      </trkpt>
      <trkpt lat="45.75409" lon="6.11638">
        <ele>820.95861816406</ele>
        <time>2020-07-07T20:15:41.569Z</time>
      </trkpt>
      <trkpt lat="45.7511" lon="6.11475">
        <ele>817.09600830078</ele>
        <time>2020-07-07T20:15:46.573Z</time>
      </trkpt>
      <trkpt lat="45.7499" lon="6.11434">
        <ele>809.87951660156</ele>
        <time>2020-07-07T20:15:51.597Z</time>
      </trkpt>
      <trkpt lat="45.7499" lon="6.11434">
        <ele>809.87884521484</ele>
        <time>2020-07-07T20:15:56.621Z</time>
      </trkpt>
      <trkpt lat="45.74989" lon="6.11434">
        <ele>809.78942871094</ele>
        <time>2020-07-07T20:16:01.645Z</time>
      </trkpt>
      <trkpt lat="45.74902" lon="6.11414">
        <ele>806.88732910156</ele>
        <time>2020-07-07T20:16:06.683Z</time>
      </trkpt>
      <trkpt lat="45.7484" lon="6.11429">
        <ele>799.66766357422</ele>
        <time>2020-07-07T20:16:11.732Z</time>
      </trkpt>
      <trkpt lat="45.74794" lon="6.11437">
        <ele>796.87908935547</ele>
        <time>2020-07-07T20:16:16.788Z</time>
      </trkpt>
      <trkpt lat="45.74704" lon="6.11436">
        <ele>792.72198486328</ele>
        <time>2020-07-07T20:16:21.858Z</time>
      </trkpt>
      <trkpt lat="45.74642" lon="6.11407">
        <ele>789.63256835938</ele>
        <time>2020-07-07T20:16:26.939Z</time>
      </trkpt>
      <trkpt lat="45.74626" lon="6.11417">
        <ele>788.15496826172</ele>
        <time>2020-07-07T20:16:32.023Z</time>
      </trkpt>
      <trkpt lat="45.74605" lon="6.11445">
        <ele>785.58349609375</ele>
        <time>2020-07-07T20:16:37.111Z</time>
      </trkpt>
      <trkpt lat="45.74565" lon="6.11447">
        <ele>782.09509277344</ele>
        <time>2020-07-07T20:16:42.206Z</time>
      </trkpt>
      <trkpt lat="45.74476" lon="6.11428">
        <ele>777.87261962891</ele>
        <time>2020-07-07T20:16:47.315Z</time>
      </trkpt>
      <trkpt lat="45.74403" lon="6.1143">
        <ele>774.63891601562</ele>
        <time>2020-07-07T20:16:52.436Z</time>
      </trkpt>
      <trkpt lat="45.74363" lon="6.11431">
        <ele>772.71636962891</ele>
        <time>2020-07-07T20:16:57.563Z</time>
      </trkpt>
      <trkpt lat="45.74327" lon="6.11417">
        <ele>771.25067138672</ele>
        <time>2020-07-07T20:17:02.696Z</time>
      </trkpt>
      <trkpt lat="45.74248" lon="6.11374">
        <ele>766.14215087891</ele>
        <time>2020-07-07T20:17:07.843Z</time>
      </trkpt>
      <trkpt lat="45.74114" lon="6.1126">
        <ele>756.70599365234</ele>
        <time>2020-07-07T20:17:13.015Z</time>
      </trkpt>
      <trkpt lat="45.74092" lon="6.11259">
        <ele>754.77514648438</ele>
        <time>2020-07-07T20:17:18.190Z</time>
      </trkpt>
      <trkpt lat="45.74024" lon="6.11279">
        <ele>745.97692871094</ele>
        <time>2020-07-07T20:17:23.376Z</time>
      </trkpt>
      <trkpt lat="45.73923" lon="6.11265">
        <ele>740.41265869141</ele>
        <time>2020-07-07T20:17:28.578Z</time>
      </trkpt>
      <trkpt lat="45.73864" lon="6.11214">
        <ele>740.1865234375</ele>
        <time>2020-07-07T20:17:33.791Z</time>
      </trkpt>
      <trkpt lat="45.73849" lon="6.11156">
        <ele>740.36022949219</ele>
        <time>2020-07-07T20:17:39.011Z</time>
      </trkpt>
      <trkpt lat="45.7384" lon="6.11086">
        <ele>738.93975830078</ele>
        <time>2020-07-07T20:17:44.239Z</time>
      </trkpt>
      <trkpt lat="45.73833" lon="6.11078">
        <ele>737.67828369141</ele>
        <time>2020-07-07T20:17:49.469Z</time>
      </trkpt>
      <trkpt lat="45.73817" lon="6.11087">
        <ele>735.27111816406</ele>
        <time>2020-07-07T20:17:54.702Z</time>
      </trkpt>
      <trkpt lat="45.73811" lon="6.11131">
        <ele>734.96215820312</ele>
        <time>2020-07-07T20:17:59.940Z</time>
      </trkpt>
      <trkpt lat="45.73769" lon="6.11254">
        <ele>723.28985595703</ele>
        <time>2020-07-07T20:18:05.193Z</time>
      </trkpt>
      <trkpt lat="45.73748" lon="6.11267">
        <ele>719.92932128906</ele>
        <time>2020-07-07T20:18:10.450Z</time>
      </trkpt>
      <trkpt lat="45.73674" lon="6.11263">
        <ele>717.61346435547</ele>
        <time>2020-07-07T20:18:15.719Z</time>
      </trkpt>
      <trkpt lat="45.73646" lon="6.1127">
        <ele>715.40972900391</ele>
        <time>2020-07-07T20:18:20.992Z</time>
      </trkpt>
      <trkpt lat="45.73618" lon="6.11292">
        <ele>713.35357666016</ele>
        <time>2020-07-07T20:18:26.270Z</time>
      </trkpt>
      <trkpt lat="45.73588" lon="6.11297">
        <ele>713.39221191406</ele>
        <time>2020-07-07T20:18:31.553Z</time>
      </trkpt>
      <trkpt lat="45.73537" lon="6.11274">
        <ele>714.10534667969</ele>
        <time>2020-07-07T20:18:36.845Z</time>
      </trkpt>
      <trkpt lat="45.73485" lon="6.11236">
        <ele>713.3330078125</ele>
        <time>2020-07-07T20:18:42.146Z</time>
      </trkpt>
      <trkpt lat="45.73435" lon="6.11132">
        <ele>718.07189941406</ele>
        <time>2020-07-07T20:18:47.461Z</time>
      </trkpt>
      <trkpt lat="45.73399" lon="6.11092">
        <ele>710.95343017578</ele>
        <time>2020-07-07T20:18:52.783Z</time>
      </trkpt>
      <trkpt lat="45.73329" lon="6.11045">
        <ele>697.57794189453</ele>
        <time>2020-07-07T20:18:58.118Z</time>
      </trkpt>
      <trkpt lat="45.73329" lon="6.11045">
        <ele>697.57623291016</ele>
        <time>2020-07-07T20:19:03.453Z</time>
      </trkpt>
      <trkpt lat="45.73217" lon="6.10996">
        <ele>687.32299804688</ele>
        <time>2020-07-07T20:19:08.807Z</time>
      </trkpt>
      <trkpt lat="45.7309" lon="6.1092">
        <ele>677.11279296875</ele>
        <time>2020-07-07T20:19:14.183Z</time>
      </trkpt>
      <trkpt lat="45.73072" lon="6.10901">
        <ele>676.39031982422</ele>
        <time>2020-07-07T20:19:19.562Z</time>
      </trkpt>
      <trkpt lat="45.73055" lon="6.10868">
        <ele>677.88354492188</ele>
        <time>2020-07-07T20:19:24.946Z</time>
      </trkpt>
      <trkpt lat="45.73027" lon="6.1078">
        <ele>682.80285644531</ele>
        <time>2020-07-07T20:19:30.341Z</time>
      </trkpt>
      <trkpt lat="45.72823" lon="6.10509">
        <ele>662.78991699219</ele>
        <time>2020-07-07T20:19:35.780Z</time>
      </trkpt>
      <trkpt lat="45.72805" lon="6.10507">
        <ele>662.12054443359</ele>
        <time>2020-07-07T20:19:41.222Z</time>
      </trkpt>
      <trkpt lat="45.72617" lon="6.10575">
        <ele>642.22894287109</ele>
        <time>2020-07-07T20:19:46.695Z</time>
      </trkpt>
      <trkpt lat="45.72358" lon="6.10477">
        <ele>629.18511962891</ele>
        <time>2020-07-07T20:19:52.211Z</time>
      </trkpt>
      <trkpt lat="45.72358" lon="6.10477">
        <ele>629.18426513672</ele>
        <time>2020-07-07T20:19:57.727Z</time>
      </trkpt>
      <trkpt lat="45.72284" lon="6.1045">
        <ele>625.29779052734</ele>
        <time>2020-07-07T20:20:03.255Z</time>
      </trkpt>
      <trkpt lat="45.72235" lon="6.10369">
        <ele>627.52941894531</ele>
        <time>2020-07-07T20:20:08.795Z</time>
      </trkpt>
      <trkpt lat="45.72228" lon="6.10332">
        <ele>627.56805419922</ele>
        <time>2020-07-07T20:20:14.339Z</time>
      </trkpt>
      <trkpt lat="45.72232" lon="6.10297">
        <ele>627.49291992188</ele>
        <time>2020-07-07T20:20:19.888Z</time>
      </trkpt>
      <trkpt lat="45.72244" lon="6.10273">
        <ele>626.78491210938</ele>
        <time>2020-07-07T20:20:25.440Z</time>
      </trkpt>
      <trkpt lat="45.72276" lon="6.1025">
        <ele>629.74560546875</ele>
        <time>2020-07-07T20:20:30.998Z</time>
      </trkpt>
      <trkpt lat="45.7228" lon="6.1023">
        <ele>628.20092773438</ele>
        <time>2020-07-07T20:20:36.558Z</time>
      </trkpt>
      <trkpt lat="45.72276" lon="6.10212">
        <ele>625.93701171875</ele>
        <time>2020-07-07T20:20:42.120Z</time>
      </trkpt>
      <trkpt lat="45.72264" lon="6.10204">
        <ele>623.19665527344</ele>
        <time>2020-07-07T20:20:47.684Z</time>
      </trkpt>
      <trkpt lat="45.72263" lon="6.10207">
        <ele>623.23529052734</ele>
        <time>2020-07-07T20:20:53.249Z</time>
      </trkpt>
      <trkpt lat="45.72212" lon="6.10272">
        <ele>620.86511230469</ele>
        <time>2020-07-07T20:20:58.825Z</time>
      </trkpt>
      <trkpt lat="45.72186" lon="6.10306">
        <ele>618.05297851562</ele>
        <time>2020-07-07T20:21:04.406Z</time>
      </trkpt>
      <trkpt lat="45.72179" lon="6.10336">
        <ele>615.42150878906</ele>
        <time>2020-07-07T20:21:09.991Z</time>
      </trkpt>
      <trkpt lat="45.72186" lon="6.1037">
        <ele>615.26190185547</ele>
        <time>2020-07-07T20:21:15.580Z</time>
      </trkpt>
      <trkpt lat="45.72203" lon="6.10413">
        <ele>613.25823974609</ele>
        <time>2020-07-07T20:21:21.174Z</time>
      </trkpt>
      <trkpt lat="45.72233" lon="6.10462">
        <ele>608.31134033203</ele>
        <time>2020-07-07T20:21:26.775Z</time>
      </trkpt>
      <trkpt lat="45.72223" lon="6.10471">
        <ele>603.38116455078</ele>
        <time>2020-07-07T20:21:32.378Z</time>
      </trkpt>
      <trkpt lat="45.72185" lon="6.10435">
        <ele>602.49688720703</ele>
        <time>2020-07-07T20:21:37.989Z</time>
      </trkpt>
      <trkpt lat="45.72122" lon="6.10333">
        <ele>601.96875</ele>
        <time>2020-07-07T20:21:43.615Z</time>
      </trkpt>
      <trkpt lat="45.72112" lon="6.10338">
        <ele>599.78045654297</ele>
        <time>2020-07-07T20:21:49.243Z</time>
      </trkpt>
      <trkpt lat="45.7211" lon="6.1035">
        <ele>598.68627929688</ele>
        <time>2020-07-07T20:21:54.872Z</time>
      </trkpt>
      <trkpt lat="45.72146" lon="6.10417">
        <ele>598.70501708984</ele>
        <time>2020-07-07T20:22:00.511Z</time>
      </trkpt>
      <trkpt lat="45.72156" lon="6.10451">
        <ele>594.85748291016</ele>
        <time>2020-07-07T20:22:06.154Z</time>
      </trkpt>
      <trkpt lat="45.72156" lon="6.10451">
        <ele>594.85614013672</ele>
        <time>2020-07-07T20:22:11.797Z</time>
      </trkpt>
      <trkpt lat="45.72154" lon="6.10466">
        <ele>592.17864990234</ele>
        <time>2020-07-07T20:22:17.441Z</time>
      </trkpt>
      <trkpt lat="45.72144" lon="6.10493">
        <ele>587.48699951172</ele>
        <time>2020-07-07T20:22:23.089Z</time>
      </trkpt>
      <trkpt lat="45.7212" lon="6.10516">
        <ele>585.18664550781</ele>
        <time>2020-07-07T20:22:28.741Z</time>
      </trkpt>
      <trkpt lat="45.71998" lon="6.10591">
        <ele>584.72924804688</ele>
        <time>2020-07-07T20:22:34.415Z</time>
      </trkpt>
      <trkpt lat="45.71915" lon="6.10639">
        <ele>583.89807128906</ele>
        <time>2020-07-07T20:22:40.103Z</time>
      </trkpt>
      <trkpt lat="45.71866" lon="6.10667">
        <ele>584.56744384766</ele>
        <time>2020-07-07T20:22:45.799Z</time>
      </trkpt>
      <trkpt lat="45.71866" lon="6.10667">
        <ele>584.56744384766</ele>
        <time>2020-07-07T20:22:51.495Z</time>
      </trkpt>
      <trkpt lat="45.71864" lon="6.10668">
        <ele>584.59320068359</ele>
        <time>2020-07-07T20:22:57.192Z</time>
      </trkpt>
      <trkpt lat="45.71857" lon="6.10671">
        <ele>584.67041015625</ele>
        <time>2020-07-07T20:23:02.890Z</time>
      </trkpt>
      <trkpt lat="45.71857" lon="6.10671">
        <ele>584.67041015625</ele>
        <time>2020-07-07T20:23:08.588Z</time>
      </trkpt>
      <trkpt lat="45.71853" lon="6.10674">
        <ele>584.72192382812</ele>
        <time>2020-07-07T20:23:14.287Z</time>
      </trkpt>
      <trkpt lat="45.71808" lon="6.10694">
        <ele>586.31579589844</ele>
        <time>2020-07-07T20:23:19.993Z</time>
      </trkpt>
      <trkpt lat="45.71643" lon="6.10735">
        <ele>585.30688476562</ele>
        <time>2020-07-07T20:23:25.726Z</time>
      </trkpt>
      <trkpt lat="45.71609" lon="6.10733">
        <ele>584.72784423828</ele>
        <time>2020-07-07T20:23:31.464Z</time>
      </trkpt>
      <trkpt lat="45.71548" lon="6.1065">
        <ele>584.12408447266</ele>
        <time>2020-07-07T20:23:37.216Z</time>
      </trkpt>
      <trkpt lat="45.71457" lon="6.1062">
        <ele>585.87347412109</ele>
        <time>2020-07-07T20:23:42.983Z</time>
      </trkpt>
      <trkpt lat="45.71419" lon="6.10618">
        <ele>586.62243652344</ele>
        <time>2020-07-07T20:23:48.756Z</time>
      </trkpt>
      <trkpt lat="45.71412" lon="6.10601">
        <ele>586.36499023438</ele>
        <time>2020-07-07T20:23:54.531Z</time>
      </trkpt>
      <trkpt lat="45.714" lon="6.10567">
        <ele>585.92504882812</ele>
        <time>2020-07-07T20:24:00.310Z</time>
      </trkpt>
      <trkpt lat="45.71396" lon="6.10559">
        <ele>586.03735351562</ele>
        <time>2020-07-07T20:24:06.091Z</time>
      </trkpt>
      <trkpt lat="45.71377" lon="6.10525">
        <ele>589.49584960938</ele>
        <time>2020-07-07T20:24:11.876Z</time>
      </trkpt>
      <trkpt lat="45.71329" lon="6.10463">
        <ele>596.67712402344</ele>
        <time>2020-07-07T20:24:17.672Z</time>
      </trkpt>
      <trkpt lat="45.71298" lon="6.1043">
        <ele>603.53790283203</ele>
        <time>2020-07-07T20:24:23.474Z</time>
      </trkpt>
      <trkpt lat="45.71268" lon="6.10426">
        <ele>603.79534912109</ele>
        <time>2020-07-07T20:24:29.281Z</time>
      </trkpt>
      <trkpt lat="45.7122" lon="6.10465">
        <ele>598.78198242188</ele>
        <time>2020-07-07T20:24:35.097Z</time>
      </trkpt>
      <trkpt lat="45.71205" lon="6.10468">
        <ele>600.03741455078</ele>
        <time>2020-07-07T20:24:40.915Z</time>
      </trkpt>
      <trkpt lat="45.71199" lon="6.10459">
        <ele>602.22503662109</ele>
        <time>2020-07-07T20:24:46.734Z</time>
      </trkpt>
      <trkpt lat="45.71198" lon="6.10443">
        <ele>604.99938964844</ele>
        <time>2020-07-07T20:24:52.555Z</time>
      </trkpt>
      <trkpt lat="45.71233" lon="6.10399">
        <ele>609.06018066406</ele>
        <time>2020-07-07T20:24:58.384Z</time>
      </trkpt>
      <trkpt lat="45.71251" lon="6.10384">
        <ele>613.26574707031</ele>
        <time>2020-07-07T20:25:04.216Z</time>
      </trkpt>
      <trkpt lat="45.71288" lon="6.10383">
        <ele>614.42425537109</ele>
        <time>2020-07-07T20:25:10.054Z</time>
      </trkpt>
      <trkpt lat="45.71288" lon="6.10383">
        <ele>614.42443847656</ele>
        <time>2020-07-07T20:25:15.892Z</time>
      </trkpt>
      <trkpt lat="45.71298" lon="6.10377">
        <ele>615.83666992188</ele>
        <time>2020-07-07T20:25:21.732Z</time>
      </trkpt>
      <trkpt lat="45.71294" lon="6.10357">
        <ele>620.72821044922</ele>
        <time>2020-07-07T20:25:27.574Z</time>
      </trkpt>
      <trkpt lat="45.71241" lon="6.10366">
        <ele>617.82257080078</ele>
        <time>2020-07-07T20:25:33.425Z</time>
      </trkpt>
      <trkpt lat="45.71241" lon="6.10366">
        <ele>617.82281494141</ele>
        <time>2020-07-07T20:25:39.276Z</time>
      </trkpt>
      <trkpt lat="45.71205" lon="6.10372">
        <ele>615.99859619141</ele>
        <time>2020-07-07T20:25:45.133Z</time>
      </trkpt>
      <trkpt lat="45.71171" lon="6.10385">
        <ele>617.35571289062</ele>
        <time>2020-07-07T20:25:50.995Z</time>
      </trkpt>
      <trkpt lat="45.71125" lon="6.1042">
        <ele>616.00433349609</ele>
        <time>2020-07-07T20:25:56.866Z</time>
      </trkpt>
      <trkpt lat="45.71106" lon="6.10426">
        <ele>616.72515869141</ele>
        <time>2020-07-07T20:26:02.740Z</time>
      </trkpt>
      <trkpt lat="45.71033" lon="6.10395">
        <ele>630.38006591797</ele>
        <time>2020-07-07T20:26:08.626Z</time>
      </trkpt>
      <trkpt lat="45.71016" lon="6.10396">
        <ele>632.41387939453</ele>
        <time>2020-07-07T20:26:14.515Z</time>
      </trkpt>
      <trkpt lat="45.70992" lon="6.10422">
        <ele>634.91424560547</ele>
        <time>2020-07-07T20:26:20.409Z</time>
      </trkpt>
      <trkpt lat="45.70985" lon="6.10431">
        <ele>635.84106445312</ele>
        <time>2020-07-07T20:26:26.304Z</time>
      </trkpt>
      <trkpt lat="45.70965" lon="6.10447">
        <ele>638.25866699219</ele>
        <time>2020-07-07T20:26:32.203Z</time>
      </trkpt>
      <trkpt lat="45.70965" lon="6.10447">
        <ele>638.25823974609</ele>
        <time>2020-07-07T20:26:38.102Z</time>
      </trkpt>
      <trkpt lat="45.70944" lon="6.10462">
        <ele>639.37127685547</ele>
        <time>2020-07-07T20:26:44.004Z</time>
      </trkpt>
      <trkpt lat="45.70895" lon="6.10477">
        <ele>642.50109863281</ele>
        <time>2020-07-07T20:26:49.914Z</time>
      </trkpt>
      <trkpt lat="45.70871" lon="6.10505">
        <ele>642.90289306641</ele>
        <time>2020-07-07T20:26:55.829Z</time>
      </trkpt>
      <trkpt lat="45.70834" lon="6.1056">
        <ele>645.08001708984</ele>
        <time>2020-07-07T20:27:01.753Z</time>
      </trkpt>
      <trkpt lat="45.70815" lon="6.10575">
        <ele>646.53759765625</ele>
        <time>2020-07-07T20:27:07.680Z</time>
      </trkpt>
      <trkpt lat="45.70815" lon="6.10575">
        <ele>646.53686523438</ele>
        <time>2020-07-07T20:27:13.607Z</time>
      </trkpt>
      <trkpt lat="45.70773" lon="6.10594">
        <ele>648.24975585938</ele>
        <time>2020-07-07T20:27:19.541Z</time>
      </trkpt>
      <trkpt lat="45.70734" lon="6.10596">
        <ele>650.29241943359</ele>
        <time>2020-07-07T20:27:25.482Z</time>
      </trkpt>
      <trkpt lat="45.70711" lon="6.10597">
        <ele>651.33660888672</ele>
        <time>2020-07-07T20:27:31.426Z</time>
      </trkpt>
      <trkpt lat="45.70704" lon="6.10594">
        <ele>651.56854248047</ele>
        <time>2020-07-07T20:27:37.372Z</time>
      </trkpt>
      <trkpt lat="45.70685" lon="6.10607">
        <ele>651.72283935547</ele>
        <time>2020-07-07T20:27:43.321Z</time>
      </trkpt>
      <trkpt lat="45.70652" lon="6.10602">
        <ele>653.61560058594</ele>
        <time>2020-07-07T20:27:49.275Z</time>
      </trkpt>
      <trkpt lat="45.70584" lon="6.10577">
        <ele>658.00817871094</ele>
        <time>2020-07-07T20:27:55.240Z</time>
      </trkpt>
      <trkpt lat="45.70584" lon="6.10577">
        <ele>658.0087890625</ele>
        <time>2020-07-07T20:28:01.205Z</time>
      </trkpt>
      <trkpt lat="45.70488" lon="6.10538">
        <ele>666.49841308594</ele>
        <time>2020-07-07T20:28:07.186Z</time>
      </trkpt>
      <trkpt lat="45.7047" lon="6.10541">
        <ele>668.51940917969</ele>
        <time>2020-07-07T20:28:13.170Z</time>
      </trkpt>
      <trkpt lat="45.70248" lon="6.10631">
        <ele>678.84606933594</ele>
        <time>2020-07-07T20:28:19.191Z</time>
      </trkpt>
      <trkpt lat="45.70134" lon="6.10616">
        <ele>683.86151123047</ele>
        <time>2020-07-07T20:28:25.230Z</time>
      </trkpt>
      <trkpt lat="45.70098" lon="6.10636">
        <ele>686.04119873047</ele>
        <time>2020-07-07T20:28:31.276Z</time>
      </trkpt>
      <trkpt lat="45.70098" lon="6.10636">
        <ele>686.04156494141</ele>
        <time>2020-07-07T20:28:37.322Z</time>
      </trkpt>
      <trkpt lat="45.70007" lon="6.10845">
        <ele>684.53344726562</ele>
        <time>2020-07-07T20:28:43.395Z</time>
      </trkpt>
      <trkpt lat="45.69983" lon="6.109">
        <ele>685.87847900391</ele>
        <time>2020-07-07T20:28:49.476Z</time>
      </trkpt>
      <trkpt lat="45.6994" lon="6.10983">
        <ele>683.4755859375</ele>
        <time>2020-07-07T20:28:55.568Z</time>
      </trkpt>
      <trkpt lat="45.69918" lon="6.10996">
        <ele>684.71130371094</ele>
        <time>2020-07-07T20:29:01.664Z</time>
      </trkpt>
      <trkpt lat="45.69785" lon="6.1101">
        <ele>694.61029052734</ele>
        <time>2020-07-07T20:29:07.781Z</time>
      </trkpt>
      <trkpt lat="45.69763" lon="6.11022">
        <ele>700.19750976562</ele>
        <time>2020-07-07T20:29:13.902Z</time>
      </trkpt>
      <trkpt lat="45.69759" lon="6.11093">
        <ele>692.88201904297</ele>
        <time>2020-07-07T20:29:20.031Z</time>
      </trkpt>
      <trkpt lat="45.69751" lon="6.11142">
        <ele>690.0732421875</ele>
        <time>2020-07-07T20:29:26.166Z</time>
      </trkpt>
      <trkpt lat="45.69733" lon="6.11197">
        <ele>692.14904785156</ele>
        <time>2020-07-07T20:29:32.308Z</time>
      </trkpt>
      <trkpt lat="45.69729" lon="6.11254">
        <ele>691.53277587891</ele>
        <time>2020-07-07T20:29:38.456Z</time>
      </trkpt>
      <trkpt lat="45.69729" lon="6.11254">
        <ele>691.53698730469</ele>
        <time>2020-07-07T20:29:44.604Z</time>
      </trkpt>
      <trkpt lat="45.69739" lon="6.11347">
        <ele>685.77825927734</ele>
        <time>2020-07-07T20:29:50.763Z</time>
      </trkpt>
      <trkpt lat="45.69722" lon="6.11405">
        <ele>686.29071044922</ele>
        <time>2020-07-07T20:29:56.929Z</time>
      </trkpt>
      <trkpt lat="45.69698" lon="6.11436">
        <ele>686.90856933594</ele>
        <time>2020-07-07T20:30:03.100Z</time>
      </trkpt>
      <trkpt lat="45.69681" lon="6.11445">
        <ele>688.52862548828</ele>
        <time>2020-07-07T20:30:09.274Z</time>
      </trkpt>
      <trkpt lat="45.69582" lon="6.11431">
        <ele>693.93157958984</ele>
        <time>2020-07-07T20:30:15.464Z</time>
      </trkpt>
      <trkpt lat="45.69424" lon="6.11386">
        <ele>691.24029541016</ele>
        <time>2020-07-07T20:30:21.679Z</time>
      </trkpt>
      <trkpt lat="45.69381" lon="6.1136">
        <ele>691.3046875</ele>
        <time>2020-07-07T20:30:27.902Z</time>
      </trkpt>
      <trkpt lat="45.69299" lon="6.11307">
        <ele>693.16485595703</ele>
        <time>2020-07-07T20:30:34.139Z</time>
      </trkpt>
      <trkpt lat="45.69299" lon="6.11307">
        <ele>693.16394042969</ele>
        <time>2020-07-07T20:30:40.376Z</time>
      </trkpt>
      <trkpt lat="45.69222" lon="6.11268">
        <ele>691.89044189453</ele>
        <time>2020-07-07T20:30:46.626Z</time>
      </trkpt>
      <trkpt lat="45.69186" lon="6.11251">
        <ele>691.44720458984</ele>
        <time>2020-07-07T20:30:52.882Z</time>
      </trkpt>
      <trkpt lat="45.69121" lon="6.11199">
        <ele>695.32159423828</ele>
        <time>2020-07-07T20:30:59.150Z</time>
      </trkpt>
      <trkpt lat="45.69082" lon="6.11179">
        <ele>695.05078125</ele>
        <time>2020-07-07T20:31:05.425Z</time>
      </trkpt>
      <trkpt lat="45.69022" lon="6.11143">
        <ele>696.00616455078</ele>
        <time>2020-07-07T20:31:11.710Z</time>
      </trkpt>
      <trkpt lat="45.68945" lon="6.1112">
        <ele>694.63494873047</ele>
        <time>2020-07-07T20:31:18.008Z</time>
      </trkpt>
      <trkpt lat="45.68858" lon="6.11054">
        <ele>700.60876464844</ele>
        <time>2020-07-07T20:31:24.322Z</time>
      </trkpt>
      <trkpt lat="45.68816" lon="6.10996">
        <ele>705.20422363281</ele>
        <time>2020-07-07T20:31:30.645Z</time>
      </trkpt>
      <trkpt lat="45.68736" lon="6.10919">
        <ele>715.47381591797</ele>
        <time>2020-07-07T20:31:36.983Z</time>
      </trkpt>
      <trkpt lat="45.68736" lon="6.10919">
        <ele>715.47271728516</ele>
        <time>2020-07-07T20:31:43.321Z</time>
      </trkpt>
      <trkpt lat="45.68641" lon="6.10825">
        <ele>723.86346435547</ele>
        <time>2020-07-07T20:31:49.678Z</time>
      </trkpt>
      <trkpt lat="45.68118" lon="6.1047">
        <ele>735.15161132812</ele>
        <time>2020-07-07T20:31:56.128Z</time>
      </trkpt>
      <trkpt lat="45.67989" lon="6.10373">
        <ele>742.03582763672</ele>
        <time>2020-07-07T20:32:02.601Z</time>
      </trkpt>
      <trkpt lat="45.67883" lon="6.10272">
        <ele>750.97015380859</ele>
        <time>2020-07-07T20:32:09.094Z</time>
      </trkpt>
      <trkpt lat="45.67727" lon="6.10165">
        <ele>753.63714599609</ele>
        <time>2020-07-07T20:32:15.615Z</time>
      </trkpt>
      <trkpt lat="45.67716" lon="6.10159">
        <ele>753.76751708984</ele>
        <time>2020-07-07T20:32:22.138Z</time>
      </trkpt>
      <trkpt lat="45.67568" lon="6.10018">
        <ele>766.54827880859</ele>
        <time>2020-07-07T20:32:28.689Z</time>
      </trkpt>
      <trkpt lat="45.67533" lon="6.09965">
        <ele>774.74194335938</ele>
        <time>2020-07-07T20:32:35.249Z</time>
      </trkpt>
      <trkpt lat="45.6745" lon="6.09877">
        <ele>781.91723632812</ele>
        <time>2020-07-07T20:32:41.825Z</time>
      </trkpt>
      <trkpt lat="45.67381" lon="6.09787">
        <ele>791.71429443359</ele>
        <time>2020-07-07T20:32:48.416Z</time>
      </trkpt>
      <trkpt lat="45.67329" lon="6.09742">
        <ele>791.26373291016</ele>
        <time>2020-07-07T20:32:55.017Z</time>
      </trkpt>
      <trkpt lat="45.67217" lon="6.0967">
        <ele>788.09539794922</ele>
        <time>2020-07-07T20:33:01.638Z</time>
      </trkpt>
      <trkpt lat="45.67153" lon="6.0963">
        <ele>787.80004882812</ele>
        <time>2020-07-07T20:33:08.270Z</time>
      </trkpt>
      <trkpt lat="45.66995" lon="6.09528">
        <ele>789.95666503906</ele>
        <time>2020-07-07T20:33:14.929Z</time>
      </trkpt>
      <trkpt lat="45.66978" lon="6.09518">
        <ele>789.65954589844</ele>
        <time>2020-07-07T20:33:21.591Z</time>
      </trkpt>
      <trkpt lat="45.6688" lon="6.09501">
        <ele>785.80584716797</ele>
        <time>2020-07-07T20:33:28.269Z</time>
      </trkpt>
      <trkpt lat="45.66855" lon="6.09487">
        <ele>786.24353027344</ele>
        <time>2020-07-07T20:33:34.952Z</time>
      </trkpt>
      <trkpt lat="45.66759" lon="6.09416">
        <ele>787.90222167969</ele>
        <time>2020-07-07T20:33:41.652Z</time>
      </trkpt>
      <trkpt lat="45.66729" lon="6.09385">
        <ele>790.08740234375</ele>
        <time>2020-07-07T20:33:48.358Z</time>
      </trkpt>
      <trkpt lat="45.66693" lon="6.09357">
        <ele>792.47821044922</ele>
        <time>2020-07-07T20:33:55.070Z</time>
      </trkpt>
      <trkpt lat="45.66673" lon="6.09341">
        <ele>793.67529296875</ele>
        <time>2020-07-07T20:34:01.786Z</time>
      </trkpt>
      <trkpt lat="45.66609" lon="6.09291">
        <ele>796.35589599609</ele>
        <time>2020-07-07T20:34:08.514Z</time>
      </trkpt>
      <trkpt lat="45.66609" lon="6.09291">
        <ele>796.35528564453</ele>
        <time>2020-07-07T20:34:15.242Z</time>
      </trkpt>
      <trkpt lat="45.6656" lon="6.09256">
        <ele>796.92163085938</ele>
        <time>2020-07-07T20:34:21.979Z</time>
      </trkpt>
      <trkpt lat="45.66473" lon="6.0918">
        <ele>802.03509521484</ele>
        <time>2020-07-07T20:34:28.732Z</time>
      </trkpt>
      <trkpt lat="45.66394" lon="6.09169">
        <ele>801.4150390625</ele>
        <time>2020-07-07T20:34:35.497Z</time>
      </trkpt>
      <trkpt lat="45.66381" lon="6.09155">
        <ele>803.45739746094</ele>
        <time>2020-07-07T20:34:42.265Z</time>
      </trkpt>
      <trkpt lat="45.66347" lon="6.0909">
        <ele>812.29205322266</ele>
        <time>2020-07-07T20:34:49.042Z</time>
      </trkpt>
      <trkpt lat="45.66322" lon="6.09071">
        <ele>812.18908691406</ele>
        <time>2020-07-07T20:34:55.824Z</time>
      </trkpt>
      <trkpt lat="45.66229" lon="6.09064">
        <ele>807.56475830078</ele>
        <time>2020-07-07T20:35:02.621Z</time>
      </trkpt>
      <trkpt lat="45.66136" lon="6.08979">
        <ele>818.51879882812</ele>
        <time>2020-07-07T20:35:09.435Z</time>
      </trkpt>
      <trkpt lat="45.66086" lon="6.08961">
        <ele>819.27862548828</ele>
        <time>2020-07-07T20:35:16.258Z</time>
      </trkpt>
      <trkpt lat="45.66052" lon="6.08952">
        <ele>819.21710205078</ele>
        <time>2020-07-07T20:35:23.086Z</time>
      </trkpt>
      <trkpt lat="45.66008" lon="6.08962">
        <ele>812.85894775391</ele>
        <time>2020-07-07T20:35:29.921Z</time>
      </trkpt>
      <trkpt lat="45.66008" lon="6.08962">
        <ele>812.8583984375</ele>
        <time>2020-07-07T20:35:36.756Z</time>
      </trkpt>
      <trkpt lat="45.65992" lon="6.08966">
        <ele>811.00476074219</ele>
        <time>2020-07-07T20:35:43.594Z</time>
      </trkpt>
      <trkpt lat="45.65962" lon="6.08952">
        <ele>811.32189941406</ele>
        <time>2020-07-07T20:35:50.437Z</time>
      </trkpt>
      <trkpt lat="45.65892" lon="6.08888">
        <ele>814.95196533203</ele>
        <time>2020-07-07T20:35:57.293Z</time>
      </trkpt>
      <trkpt lat="45.65795" lon="6.0883">
        <ele>817.01763916016</ele>
        <time>2020-07-07T20:36:04.166Z</time>
      </trkpt>
      <trkpt lat="45.65738" lon="6.08811">
        <ele>818.44677734375</ele>
        <time>2020-07-07T20:36:11.048Z</time>
      </trkpt>
      <trkpt lat="45.65655" lon="6.0878">
        <ele>821.07275390625</ele>
        <time>2020-07-07T20:36:17.944Z</time>
      </trkpt>
      <trkpt lat="45.65586" lon="6.08749">
        <ele>821.22900390625</ele>
        <time>2020-07-07T20:36:24.852Z</time>
      </trkpt>
      <trkpt lat="45.65534" lon="6.08752">
        <ele>816.56628417969</ele>
        <time>2020-07-07T20:36:31.768Z</time>
      </trkpt>
      <trkpt lat="45.65445" lon="6.08721">
        <ele>822.80651855469</ele>
        <time>2020-07-07T20:36:38.699Z</time>
      </trkpt>
      <trkpt lat="45.65385" lon="6.08721">
        <ele>822.82073974609</ele>
        <time>2020-07-07T20:36:45.639Z</time>
      </trkpt>
      <trkpt lat="45.65385" lon="6.08721">
        <ele>822.82086181641</ele>
        <time>2020-07-07T20:36:52.579Z</time>
      </trkpt>
      <trkpt lat="45.65288" lon="6.08692">
        <ele>832.60504150391</ele>
        <time>2020-07-07T20:36:59.535Z</time>
      </trkpt>
      <trkpt lat="45.65157" lon="6.08693">
        <ele>832.03002929688</ele>
        <time>2020-07-07T20:37:06.512Z</time>
      </trkpt>
      <trkpt lat="45.65014" lon="6.08607">
        <ele>852.55419921875</ele>
        <time>2020-07-07T20:37:13.514Z</time>
      </trkpt>
      <trkpt lat="45.64937" lon="6.08589">
        <ele>853.24859619141</ele>
        <time>2020-07-07T20:37:20.528Z</time>
      </trkpt>
      <trkpt lat="45.64889" lon="6.08564">
        <ele>855.248046875</ele>
        <time>2020-07-07T20:37:27.551Z</time>
      </trkpt>
      <trkpt lat="45.64865" lon="6.08549">
        <ele>858.94360351562</ele>
        <time>2020-07-07T20:37:34.578Z</time>
      </trkpt>
      <trkpt lat="45.64865" lon="6.08549">
        <ele>858.94317626953</ele>
        <time>2020-07-07T20:37:41.605Z</time>
      </trkpt>
      <trkpt lat="45.64706" lon="6.08514">
        <ele>864.46069335938</ele>
        <time>2020-07-07T20:37:48.658Z</time>
      </trkpt>
      <trkpt lat="45.64544" lon="6.08516">
        <ele>862.45770263672</ele>
        <time>2020-07-07T20:37:55.737Z</time>
      </trkpt>
      <trkpt lat="45.64352" lon="6.08477">
        <ele>874.42614746094</ele>
        <time>2020-07-07T20:38:02.847Z</time>
      </trkpt>
      <trkpt lat="45.64195" lon="6.08478">
        <ele>878.63336181641</ele>
        <time>2020-07-07T20:38:09.982Z</time>
      </trkpt>
      <trkpt lat="45.64074" lon="6.08441">
        <ele>888.08148193359</ele>
        <time>2020-07-07T20:38:17.137Z</time>
      </trkpt>
      <trkpt lat="45.64041" lon="6.08424">
        <ele>889.55364990234</ele>
        <time>2020-07-07T20:38:24.297Z</time>
      </trkpt>
      <trkpt lat="45.63978" lon="6.08363">
        <ele>895.47637939453</ele>
        <time>2020-07-07T20:38:31.469Z</time>
      </trkpt>
      <trkpt lat="45.63935" lon="6.08346">
        <ele>896.55548095703</ele>
        <time>2020-07-07T20:38:38.648Z</time>
      </trkpt>
      <trkpt lat="45.63832" lon="6.08333">
        <ele>894.69079589844</ele>
        <time>2020-07-07T20:38:45.844Z</time>
      </trkpt>
      <trkpt lat="45.63789" lon="6.08322">
        <ele>895.69842529297</ele>
        <time>2020-07-07T20:38:53.047Z</time>
      </trkpt>
      <trkpt lat="45.63763" lon="6.08323">
        <ele>895.80151367188</ele>
        <time>2020-07-07T20:39:00.254Z</time>
      </trkpt>
      <trkpt lat="45.63694" lon="6.08377">
        <ele>886.88842773438</ele>
        <time>2020-07-07T20:39:07.474Z</time>
      </trkpt>
      <trkpt lat="45.63672" lon="6.08381">
        <ele>886.88842773438</ele>
        <time>2020-07-07T20:39:14.697Z</time>
      </trkpt>
      <trkpt lat="45.63587" lon="6.08327">
        <ele>897.27795410156</ele>
        <time>2020-07-07T20:39:21.935Z</time>
      </trkpt>
      <trkpt lat="45.63471" lon="6.08305">
        <ele>898.10784912109</ele>
        <time>2020-07-07T20:39:29.192Z</time>
      </trkpt>
      <trkpt lat="45.6342" lon="6.08309">
        <ele>894.24987792969</ele>
        <time>2020-07-07T20:39:36.457Z</time>
      </trkpt>
      <trkpt lat="45.63363" lon="6.08284">
        <ele>896.93597412109</ele>
        <time>2020-07-07T20:39:43.732Z</time>
      </trkpt>
      <trkpt lat="45.63279" lon="6.08289">
        <ele>892.61853027344</ele>
        <time>2020-07-07T20:39:51.020Z</time>
      </trkpt>
      <trkpt lat="45.63136" lon="6.08222">
        <ele>897.40771484375</ele>
        <time>2020-07-07T20:39:58.332Z</time>
      </trkpt>
      <trkpt lat="45.63027" lon="6.08203">
        <ele>892.64880371094</ele>
        <time>2020-07-07T20:40:05.662Z</time>
      </trkpt>
      <trkpt lat="45.63027" lon="6.08203">
        <ele>892.64862060547</ele>
        <time>2020-07-07T20:40:12.992Z</time>
      </trkpt>
      <trkpt lat="45.62825" lon="6.08176">
        <ele>892.96752929688</ele>
        <time>2020-07-07T20:40:20.354Z</time>
      </trkpt>
      <trkpt lat="45.62701" lon="6.08129">
        <ele>892.31420898438</ele>
        <time>2020-07-07T20:40:27.737Z</time>
      </trkpt>
      <trkpt lat="45.62621" lon="6.08128">
        <ele>892.82275390625</ele>
        <time>2020-07-07T20:40:35.133Z</time>
      </trkpt>
      <trkpt lat="45.62513" lon="6.08091">
        <ele>892.98431396484</ele>
        <time>2020-07-07T20:40:42.546Z</time>
      </trkpt>
      <trkpt lat="45.62479" lon="6.08091">
        <ele>892.23461914062</ele>
        <time>2020-07-07T20:40:49.965Z</time>
      </trkpt>
      <trkpt lat="45.62428" lon="6.08116">
        <ele>892.03173828125</ele>
        <time>2020-07-07T20:40:57.392Z</time>
      </trkpt>
      <trkpt lat="45.62377" lon="6.08127">
        <ele>892.87121582031</ele>
        <time>2020-07-07T20:41:04.828Z</time>
      </trkpt>
      <trkpt lat="45.62331" lon="6.08139">
        <ele>891.86779785156</ele>
        <time>2020-07-07T20:41:12.271Z</time>
      </trkpt>
      <trkpt lat="45.62268" lon="6.08129">
        <ele>893.83374023438</ele>
        <time>2020-07-07T20:41:19.724Z</time>
      </trkpt>
      <trkpt lat="45.62233" lon="6.08118">
        <ele>895.08239746094</ele>
        <time>2020-07-07T20:41:27.183Z</time>
      </trkpt>
      <trkpt lat="45.62193" lon="6.08083">
        <ele>898.26983642578</ele>
        <time>2020-07-07T20:41:34.650Z</time>
      </trkpt>
      <trkpt lat="45.62099" lon="6.08013">
        <ele>899.08605957031</ele>
        <time>2020-07-07T20:41:42.134Z</time>
      </trkpt>
      <trkpt lat="45.6206" lon="6.08002">
        <ele>898.16839599609</ele>
        <time>2020-07-07T20:41:49.624Z</time>
      </trkpt>
      <trkpt lat="45.62051" lon="6.08002">
        <ele>898.06530761719</ele>
        <time>2020-07-07T20:41:57.115Z</time>
      </trkpt>
      <trkpt lat="45.62009" lon="6.08013">
        <ele>897.17712402344</ele>
        <time>2020-07-07T20:42:04.613Z</time>
      </trkpt>
      <trkpt lat="45.61967" lon="6.08011">
        <ele>898</ele>
        <time>2020-07-07T20:42:12.118Z</time>
      </trkpt>
      <trkpt lat="45.61961" lon="6.0801">
        <ele>898</ele>
        <time>2020-07-07T20:42:19.624Z</time>
      </trkpt>
      <trkpt lat="45.61888" lon="6.08007">
        <ele>898.67694091797</ele>
        <time>2020-07-07T20:42:27.141Z</time>
      </trkpt>
      <trkpt lat="45.61836" lon="6.07995">
        <ele>900.82214355469</ele>
        <time>2020-07-07T20:42:34.667Z</time>
      </trkpt>
      <trkpt lat="45.61836" lon="6.07995">
        <ele>900.82250976562</ele>
        <time>2020-07-07T20:42:42.193Z</time>
      </trkpt>
      <trkpt lat="45.61827" lon="6.07998">
        <ele>901.31127929688</ele>
        <time>2020-07-07T20:42:49.720Z</time>
      </trkpt>
      <trkpt lat="45.61791" lon="6.08001">
        <ele>902.72827148438</ele>
        <time>2020-07-07T20:42:57.253Z</time>
      </trkpt>
      <trkpt lat="45.61777" lon="6.08001">
        <ele>902.89562988281</ele>
        <time>2020-07-07T20:43:04.788Z</time>
      </trkpt>
      <trkpt lat="45.61717" lon="6.07996">
        <ele>903.48785400391</ele>
        <time>2020-07-07T20:43:12.333Z</time>
      </trkpt>
      <trkpt lat="45.61683" lon="6.07974">
        <ele>903.50274658203</ele>
        <time>2020-07-07T20:43:19.884Z</time>
      </trkpt>
      <trkpt lat="45.61602" lon="6.07887">
        <ele>907.54010009766</ele>
        <time>2020-07-07T20:43:27.451Z</time>
      </trkpt>
      <trkpt lat="45.6154" lon="6.07833">
        <ele>910.49438476562</ele>
        <time>2020-07-07T20:43:35.030Z</time>
      </trkpt>
      <trkpt lat="45.61512" lon="6.07813">
        <ele>913.30053710938</ele>
        <time>2020-07-07T20:43:42.614Z</time>
      </trkpt>
      <trkpt lat="45.61503" lon="6.07806">
        <ele>914.107421875</ele>
        <time>2020-07-07T20:43:50.200Z</time>
      </trkpt>
      <trkpt lat="45.61476" lon="6.07766">
        <ele>916.36010742188</ele>
        <time>2020-07-07T20:43:57.792Z</time>
      </trkpt>
      <trkpt lat="45.61472" lon="6.07604">
        <ele>923.77703857422</ele>
        <time>2020-07-07T20:44:05.402Z</time>
      </trkpt>
      <trkpt lat="45.61456" lon="6.07531">
        <ele>930.46911621094</ele>
        <time>2020-07-07T20:44:13.021Z</time>
      </trkpt>
      <trkpt lat="45.61408" lon="6.07388">
        <ele>939.89782714844</ele>
        <time>2020-07-07T20:44:20.657Z</time>
      </trkpt>
      <trkpt lat="45.61316" lon="6.07223">
        <ele>948.28607177734</ele>
        <time>2020-07-07T20:44:28.317Z</time>
      </trkpt>
      <trkpt lat="45.6127" lon="6.07175">
        <ele>951.82092285156</ele>
        <time>2020-07-07T20:44:35.986Z</time>
      </trkpt>
      <trkpt lat="45.61281" lon="6.07162">
        <ele>955.29559326172</ele>
        <time>2020-07-07T20:44:43.657Z</time>
      </trkpt>
      <trkpt lat="45.61353" lon="6.07172">
        <ele>963.52520751953</ele>
        <time>2020-07-07T20:44:51.340Z</time>
      </trkpt>
      <trkpt lat="45.61402" lon="6.07194">
        <ele>966.71325683594</ele>
        <time>2020-07-07T20:44:59.031Z</time>
      </trkpt>
      <trkpt lat="45.61472" lon="6.07257">
        <ele>965.72735595703</ele>
        <time>2020-07-07T20:45:06.735Z</time>
      </trkpt>
      <trkpt lat="45.61486" lon="6.07259">
        <ele>967.60791015625</ele>
        <time>2020-07-07T20:45:14.442Z</time>
      </trkpt>
      <trkpt lat="45.61486" lon="6.07259">
        <ele>967.60668945312</ele>
        <time>2020-07-07T20:45:22.149Z</time>
      </trkpt>
      <trkpt lat="45.61486" lon="6.07259">
        <ele>967.60791015625</ele>
        <time>2020-07-07T20:45:29.856Z</time>
      </trkpt>
      <trkpt lat="45.61485" lon="6.07235">
        <ele>970.64239501953</ele>
        <time>2020-07-07T20:45:37.565Z</time>
      </trkpt>
      <trkpt lat="45.61485" lon="6.07235">
        <ele>970.64312744141</ele>
        <time>2020-07-07T20:45:45.274Z</time>
      </trkpt>
      <trkpt lat="45.61485" lon="6.07235">
        <ele>970.64385986328</ele>
        <time>2020-07-07T20:45:52.983Z</time>
      </trkpt>
      <trkpt lat="45.6141" lon="6.0713">
        <ele>982.8701171875</ele>
        <time>2020-07-07T20:46:00.709Z</time>
      </trkpt>
      <trkpt lat="45.61281" lon="6.07">
        <ele>993.61779785156</ele>
        <time>2020-07-07T20:46:08.460Z</time>
      </trkpt>
      <trkpt lat="45.61147" lon="6.06898">
        <ele>1001.9336547852</ele>
        <time>2020-07-07T20:46:16.236Z</time>
      </trkpt>
      <trkpt lat="45.60978" lon="6.06745">
        <ele>1026.0727539062</ele>
        <time>2020-07-07T20:46:24.044Z</time>
      </trkpt>
      <trkpt lat="45.60978" lon="6.06745">
        <ele>1026.0717773438</ele>
        <time>2020-07-07T20:46:31.852Z</time>
      </trkpt>
      <trkpt lat="45.60849" lon="6.06645">
        <ele>1038.2531738281</ele>
        <time>2020-07-07T20:46:39.683Z</time>
      </trkpt>
      <trkpt lat="45.60767" lon="6.06604">
        <ele>1041.6593017578</ele>
        <time>2020-07-07T20:46:47.528Z</time>
      </trkpt>
      <trkpt lat="45.60672" lon="6.06558">
        <ele>1049.9759521484</ele>
        <time>2020-07-07T20:46:55.389Z</time>
      </trkpt>
      <trkpt lat="45.6058" lon="6.06553">
        <ele>1052.2424316406</ele>
        <time>2020-07-07T20:47:03.265Z</time>
      </trkpt>
      <trkpt lat="45.60544" lon="6.06546">
        <ele>1055.3435058594</ele>
        <time>2020-07-07T20:47:11.147Z</time>
      </trkpt>
      <trkpt lat="45.60517" lon="6.06526">
        <ele>1056.3602294922</ele>
        <time>2020-07-07T20:47:19.034Z</time>
      </trkpt>
      <trkpt lat="45.60413" lon="6.06342">
        <ele>1081.6043701172</ele>
        <time>2020-07-07T20:47:26.947Z</time>
      </trkpt>
      <trkpt lat="45.60341" lon="6.06261">
        <ele>1091.1719970703</ele>
        <time>2020-07-07T20:47:34.875Z</time>
      </trkpt>
      <trkpt lat="45.60285" lon="6.06244">
        <ele>1086.5921630859</ele>
        <time>2020-07-07T20:47:42.812Z</time>
      </trkpt>
      <trkpt lat="45.60257" lon="6.0622">
        <ele>1091.1567382812</ele>
        <time>2020-07-07T20:47:50.754Z</time>
      </trkpt>
      <trkpt lat="45.6018" lon="6.06193">
        <ele>1093.5125732422</ele>
        <time>2020-07-07T20:47:58.709Z</time>
      </trkpt>
      <trkpt lat="45.6008" lon="6.06143">
        <ele>1103.9885253906</ele>
        <time>2020-07-07T20:48:06.681Z</time>
      </trkpt>
      <trkpt lat="45.6" lon="6.06118">
        <ele>1111.4173583984</ele>
        <time>2020-07-07T20:48:14.666Z</time>
      </trkpt>
      <trkpt lat="45.6" lon="6.06118">
        <ele>1111.4174804688</ele>
        <time>2020-07-07T20:48:22.651Z</time>
      </trkpt>
      <trkpt lat="45.59942" lon="6.06076">
        <ele>1120.8125</ele>
        <time>2020-07-07T20:48:30.646Z</time>
      </trkpt>
      <trkpt lat="45.59901" lon="6.0606">
        <ele>1121.3403320312</ele>
        <time>2020-07-07T20:48:38.648Z</time>
      </trkpt>
      <trkpt lat="45.59658" lon="6.06012">
        <ele>1136.7164306641</ele>
        <time>2020-07-07T20:48:46.690Z</time>
      </trkpt>
      <trkpt lat="45.59624" lon="6.06004">
        <ele>1137.2404785156</ele>
        <time>2020-07-07T20:48:54.737Z</time>
      </trkpt>
      <trkpt lat="45.59532" lon="6.05993">
        <ele>1135.7039794922</ele>
        <time>2020-07-07T20:49:02.799Z</time>
      </trkpt>
      <trkpt lat="45.59264" lon="6.0591">
        <ele>1132.6690673828</ele>
        <time>2020-07-07T20:49:10.905Z</time>
      </trkpt>
      <trkpt lat="45.59196" lon="6.05902">
        <ele>1129.8950195312</ele>
        <time>2020-07-07T20:49:19.022Z</time>
      </trkpt>
      <trkpt lat="45.59102" lon="6.05899">
        <ele>1126.6594238281</ele>
        <time>2020-07-07T20:49:27.154Z</time>
      </trkpt>
      <trkpt lat="45.59005" lon="6.0593">
        <ele>1123.6501464844</ele>
        <time>2020-07-07T20:49:35.301Z</time>
      </trkpt>
      <trkpt lat="45.59005" lon="6.0593">
        <ele>1123.6502685547</ele>
        <time>2020-07-07T20:49:43.449Z</time>
      </trkpt>
      <trkpt lat="45.58973" lon="6.05954">
        <ele>1123.4700927734</ele>
        <time>2020-07-07T20:49:51.602Z</time>
      </trkpt>
      <trkpt lat="45.58932" lon="6.06007">
        <ele>1121.9661865234</ele>
        <time>2020-07-07T20:49:59.764Z</time>
      </trkpt>
      <trkpt lat="45.5888" lon="6.06055">
        <ele>1116.3145751953</ele>
        <time>2020-07-07T20:50:07.936Z</time>
      </trkpt>
      <trkpt lat="45.58827" lon="6.06067">
        <ele>1113.8410644531</ele>
        <time>2020-07-07T20:50:16.117Z</time>
      </trkpt>
      <trkpt lat="45.58794" lon="6.06085">
        <ele>1110.2329101562</ele>
        <time>2020-07-07T20:50:24.303Z</time>
      </trkpt>
      <trkpt lat="45.58685" lon="6.06096">
        <ele>1100.8839111328</ele>
        <time>2020-07-07T20:50:32.507Z</time>
      </trkpt>
      <trkpt lat="45.5859" lon="6.06131">
        <ele>1089.4786376953</ele>
        <time>2020-07-07T20:50:40.727Z</time>
      </trkpt>
      <trkpt lat="45.5855" lon="6.06163">
        <ele>1083.2957763672</ele>
        <time>2020-07-07T20:50:48.954Z</time>
      </trkpt>
      <trkpt lat="45.58527" lon="6.06158">
        <ele>1084.0294189453</ele>
        <time>2020-07-07T20:50:57.185Z</time>
      </trkpt>
      <trkpt lat="45.58505" lon="6.0615">
        <ele>1084.9177246094</ele>
        <time>2020-07-07T20:51:05.419Z</time>
      </trkpt>
      <trkpt lat="45.58453" lon="6.06167">
        <ele>1081.0440673828</ele>
        <time>2020-07-07T20:51:13.662Z</time>
      </trkpt>
      <trkpt lat="45.58371" lon="6.0616">
        <ele>1077.1534423828</ele>
        <time>2020-07-07T20:51:21.918Z</time>
      </trkpt>
      <trkpt lat="45.58341" lon="6.06175">
        <ele>1074.4503173828</ele>
        <time>2020-07-07T20:51:30.179Z</time>
      </trkpt>
      <trkpt lat="45.58311" lon="6.06206">
        <ele>1066.0245361328</ele>
        <time>2020-07-07T20:51:38.446Z</time>
      </trkpt>
      <trkpt lat="45.58289" lon="6.06218">
        <ele>1061.1988525391</ele>
        <time>2020-07-07T20:51:46.717Z</time>
      </trkpt>
      <trkpt lat="45.58248" lon="6.06192">
        <ele>1061.7395019531</ele>
        <time>2020-07-07T20:51:54.995Z</time>
      </trkpt>
      <trkpt lat="45.58216" lon="6.06208">
        <ele>1055.3149414062</ele>
        <time>2020-07-07T20:52:03.278Z</time>
      </trkpt>
      <trkpt lat="45.58176" lon="6.06215">
        <ele>1051.4393310547</ele>
        <time>2020-07-07T20:52:11.568Z</time>
      </trkpt>
      <trkpt lat="45.58083" lon="6.06195">
        <ele>1045.9417724609</ele>
        <time>2020-07-07T20:52:19.873Z</time>
      </trkpt>
      <trkpt lat="45.58052" lon="6.06182">
        <ele>1045.2459716797</ele>
        <time>2020-07-07T20:52:28.183Z</time>
      </trkpt>
      <trkpt lat="45.58041" lon="6.06171">
        <ele>1043.1112060547</ele>
        <time>2020-07-07T20:52:36.495Z</time>
      </trkpt>
      <trkpt lat="45.58034" lon="6.06131">
        <ele>1046.8424072266</ele>
        <time>2020-07-07T20:52:44.812Z</time>
      </trkpt>
      <trkpt lat="45.58034" lon="6.06131">
        <ele>1046.8395996094</ele>
        <time>2020-07-07T20:52:53.129Z</time>
      </trkpt>
      <trkpt lat="45.58022" lon="6.06097">
        <ele>1049.1491699219</ele>
        <time>2020-07-07T20:53:01.450Z</time>
      </trkpt>
      <trkpt lat="45.57945" lon="6.06034">
        <ele>1036.4769287109</ele>
        <time>2020-07-07T20:53:09.785Z</time>
      </trkpt>
      <trkpt lat="45.57929" lon="6.06013">
        <ele>1035.3184814453</ele>
        <time>2020-07-07T20:53:18.124Z</time>
      </trkpt>
      <trkpt lat="45.57896" lon="6.05926">
        <ele>1035.0498046875</ele>
        <time>2020-07-07T20:53:26.474Z</time>
      </trkpt>
      <trkpt lat="45.57886" lon="6.05837">
        <ele>1025.9959716797</ele>
        <time>2020-07-07T20:53:34.834Z</time>
      </trkpt>
      <trkpt lat="45.579" lon="6.05753">
        <ele>1020.6636352539</ele>
        <time>2020-07-07T20:53:43.204Z</time>
      </trkpt>
      <trkpt lat="45.57951" lon="6.05574">
        <ele>1017.4360351562</ele>
        <time>2020-07-07T20:53:51.595Z</time>
      </trkpt>
      <trkpt lat="45.57964" lon="6.05472">
        <ele>1007.3467407227</ele>
        <time>2020-07-07T20:53:59.998Z</time>
      </trkpt>
      <trkpt lat="45.58047" lon="6.05199">
        <ele>985.00512695312</ele>
        <time>2020-07-07T20:54:08.435Z</time>
      </trkpt>
      <trkpt lat="45.58066" lon="6.05161">
        <ele>983.19665527344</ele>
        <time>2020-07-07T20:54:16.877Z</time>
      </trkpt>
      <trkpt lat="45.58066" lon="6.05145">
        <ele>977.10784912109</ele>
        <time>2020-07-07T20:54:25.320Z</time>
      </trkpt>
      <trkpt lat="45.58055" lon="6.05141">
        <ele>970.80871582031</ele>
        <time>2020-07-07T20:54:33.765Z</time>
      </trkpt>
      <trkpt lat="45.57996" lon="6.05253">
        <ele>974.89202880859</ele>
        <time>2020-07-07T20:54:42.226Z</time>
      </trkpt>
      <trkpt lat="45.57968" lon="6.05323">
        <ele>975.24255371094</ele>
        <time>2020-07-07T20:54:50.696Z</time>
      </trkpt>
      <trkpt lat="45.57912" lon="6.054">
        <ele>958.87243652344</ele>
        <time>2020-07-07T20:54:59.179Z</time>
      </trkpt>
      <trkpt lat="45.57895" lon="6.05448">
        <ele>956.24310302734</ele>
        <time>2020-07-07T20:55:07.668Z</time>
      </trkpt>
      <trkpt lat="45.57886" lon="6.05446">
        <ele>950.19305419922</ele>
        <time>2020-07-07T20:55:16.158Z</time>
      </trkpt>
      <trkpt lat="45.57887" lon="6.05417">
        <ele>946.06097412109</ele>
        <time>2020-07-07T20:55:24.651Z</time>
      </trkpt>
      <trkpt lat="45.57934" lon="6.05286">
        <ele>947.02874755859</ele>
        <time>2020-07-07T20:55:33.161Z</time>
      </trkpt>
      <trkpt lat="45.57956" lon="6.05137">
        <ele>926.41845703125</ele>
        <time>2020-07-07T20:55:41.688Z</time>
      </trkpt>
      <trkpt lat="45.58027" lon="6.05018">
        <ele>918.55352783203</ele>
        <time>2020-07-07T20:55:50.232Z</time>
      </trkpt>
      <trkpt lat="45.58072" lon="6.04993">
        <ele>923.86059570312</ele>
        <time>2020-07-07T20:55:58.784Z</time>
      </trkpt>
      <trkpt lat="45.58085" lon="6.04975">
        <ele>925.58770751953</ele>
        <time>2020-07-07T20:56:07.339Z</time>
      </trkpt>
      <trkpt lat="45.5809" lon="6.04852">
        <ele>909.13458251953</ele>
        <time>2020-07-07T20:56:15.908Z</time>
      </trkpt>
      <trkpt lat="45.58115" lon="6.04811">
        <ele>913.75115966797</ele>
        <time>2020-07-07T20:56:24.483Z</time>
      </trkpt>
      <trkpt lat="45.58122" lon="6.04774">
        <ele>907.18682861328</ele>
        <time>2020-07-07T20:56:33.062Z</time>
      </trkpt>
      <trkpt lat="45.5812" lon="6.04741">
        <ele>895.80755615234</ele>
        <time>2020-07-07T20:56:41.645Z</time>
      </trkpt>
      <trkpt lat="45.58132" lon="6.04702">
        <ele>890.39971923828</ele>
        <time>2020-07-07T20:56:50.233Z</time>
      </trkpt>
      <trkpt lat="45.58164" lon="6.04656">
        <ele>892.49053955078</ele>
        <time>2020-07-07T20:56:58.828Z</time>
      </trkpt>
      <trkpt lat="45.5818" lon="6.04609">
        <ele>883.15936279297</ele>
        <time>2020-07-07T20:57:07.429Z</time>
      </trkpt>
      <trkpt lat="45.58213" lon="6.0457">
        <ele>885.77087402344</ele>
        <time>2020-07-07T20:57:16.037Z</time>
      </trkpt>
      <trkpt lat="45.58234" lon="6.04516">
        <ele>878.36853027344</ele>
        <time>2020-07-07T20:57:24.652Z</time>
      </trkpt>
      <trkpt lat="45.58276" lon="6.0446">
        <ele>873.28009033203</ele>
        <time>2020-07-07T20:57:33.276Z</time>
      </trkpt>
      <trkpt lat="45.58333" lon="6.04415">
        <ele>865.8173828125</ele>
        <time>2020-07-07T20:57:41.910Z</time>
      </trkpt>
      <trkpt lat="45.58397" lon="6.04392">
        <ele>862.4560546875</ele>
        <time>2020-07-07T20:57:50.555Z</time>
      </trkpt>
      <trkpt lat="45.58415" lon="6.04359">
        <ele>855.62078857422</ele>
        <time>2020-07-07T20:57:59.205Z</time>
      </trkpt>
      <trkpt lat="45.58423" lon="6.04285">
        <ele>839.40063476562</ele>
        <time>2020-07-07T20:58:07.863Z</time>
      </trkpt>
      <trkpt lat="45.58455" lon="6.04293">
        <ele>850.97875976562</ele>
        <time>2020-07-07T20:58:16.526Z</time>
      </trkpt>
      <trkpt lat="45.58469" lon="6.04288">
        <ele>855.24328613281</ele>
        <time>2020-07-07T20:58:25.192Z</time>
      </trkpt>
      <trkpt lat="45.58476" lon="6.04263">
        <ele>854.5771484375</ele>
        <time>2020-07-07T20:58:33.861Z</time>
      </trkpt>
      <trkpt lat="45.58449" lon="6.04176">
        <ele>831.44860839844</ele>
        <time>2020-07-07T20:58:42.540Z</time>
      </trkpt>
      <trkpt lat="45.58449" lon="6.04176">
        <ele>831.44616699219</ele>
        <time>2020-07-07T20:58:51.219Z</time>
      </trkpt>
      <trkpt lat="45.58416" lon="6.04118">
        <ele>813.48980712891</ele>
        <time>2020-07-07T20:58:59.907Z</time>
      </trkpt>
      <trkpt lat="45.58416" lon="6.04089">
        <ele>810.16528320312</ele>
        <time>2020-07-07T20:59:08.598Z</time>
      </trkpt>
      <trkpt lat="45.58487" lon="6.04075">
        <ele>817.82733154297</ele>
        <time>2020-07-07T20:59:17.300Z</time>
      </trkpt>
      <trkpt lat="45.58506" lon="6.04061">
        <ele>818.81848144531</ele>
        <time>2020-07-07T20:59:26.006Z</time>
      </trkpt>
      <trkpt lat="45.58515" lon="6.04031">
        <ele>814.48883056641</ele>
        <time>2020-07-07T20:59:34.715Z</time>
      </trkpt>
      <trkpt lat="45.58496" lon="6.03973">
        <ele>798.61138916016</ele>
        <time>2020-07-07T20:59:43.432Z</time>
      </trkpt>
      <trkpt lat="45.58546" lon="6.03921">
        <ele>798.32708740234</ele>
        <time>2020-07-07T20:59:52.159Z</time>
      </trkpt>
      <trkpt lat="45.58584" lon="6.03912">
        <ele>804.83404541016</ele>
        <time>2020-07-07T21:00:00.892Z</time>
      </trkpt>
      <trkpt lat="45.58596" lon="6.039">
        <ele>804.12609863281</ele>
        <time>2020-07-07T21:00:09.627Z</time>
      </trkpt>
      <trkpt lat="45.58606" lon="6.03814">
        <ele>790.3369140625</ele>
        <time>2020-07-07T21:00:18.372Z</time>
      </trkpt>
      <trkpt lat="45.58642" lon="6.03773">
        <ele>787.19897460938</ele>
        <time>2020-07-07T21:00:27.124Z</time>
      </trkpt>
      <trkpt lat="45.5864" lon="6.03747">
        <ele>782.07574462891</ele>
        <time>2020-07-07T21:00:35.879Z</time>
      </trkpt>
      <trkpt lat="45.58626" lon="6.03741">
        <ele>780.04815673828</ele>
        <time>2020-07-07T21:00:44.636Z</time>
      </trkpt>
      <trkpt lat="45.58599" lon="6.03767">
        <ele>782.62268066406</ele>
        <time>2020-07-07T21:00:53.399Z</time>
      </trkpt>
      <trkpt lat="45.58589" lon="6.03785">
        <ele>783.29364013672</ele>
        <time>2020-07-07T21:01:02.164Z</time>
      </trkpt>
      <trkpt lat="45.58577" lon="6.03846">
        <ele>790.43792724609</ele>
        <time>2020-07-07T21:01:10.936Z</time>
      </trkpt>
      <trkpt lat="45.58568" lon="6.03859">
        <ele>790.63098144531</ele>
        <time>2020-07-07T21:01:19.710Z</time>
      </trkpt>
      <trkpt lat="45.5844" lon="6.03884">
        <ele>773.73645019531</ele>
        <time>2020-07-07T21:01:28.505Z</time>
      </trkpt>
      <trkpt lat="45.58413" lon="6.03905">
        <ele>772.69842529297</ele>
        <time>2020-07-07T21:01:37.305Z</time>
      </trkpt>
      <trkpt lat="45.58405" lon="6.03932">
        <ele>775.67327880859</ele>
        <time>2020-07-07T21:01:46.108Z</time>
      </trkpt>
      <trkpt lat="45.58384" lon="6.03953">
        <ele>776.06964111328</ele>
        <time>2020-07-07T21:01:54.915Z</time>
      </trkpt>
      <trkpt lat="45.58343" lon="6.03955">
        <ele>768.36431884766</ele>
        <time>2020-07-07T21:02:03.729Z</time>
      </trkpt>
      <trkpt lat="45.58323" lon="6.03968">
        <ele>766.76812744141</ele>
        <time>2020-07-07T21:02:12.546Z</time>
      </trkpt>
      <trkpt lat="45.58313" lon="6.03966">
        <ele>764.5283203125</ele>
        <time>2020-07-07T21:02:21.365Z</time>
      </trkpt>
      <trkpt lat="45.58309" lon="6.03955">
        <ele>761.77362060547</ele>
        <time>2020-07-07T21:02:30.185Z</time>
      </trkpt>
      <trkpt lat="45.58318" lon="6.03937">
        <ele>760.13885498047</ele>
        <time>2020-07-07T21:02:39.008Z</time>
      </trkpt>
      <trkpt lat="45.58355" lon="6.03923">
        <ele>765.11517333984</ele>
        <time>2020-07-07T21:02:47.837Z</time>
      </trkpt>
      <trkpt lat="45.5838" lon="6.0387">
        <ele>761.14276123047</ele>
        <time>2020-07-07T21:02:56.673Z</time>
      </trkpt>
      <trkpt lat="45.58375" lon="6.03868">
        <ele>760.02288818359</ele>
        <time>2020-07-07T21:03:05.510Z</time>
      </trkpt>
      <trkpt lat="45.58356" lon="6.03895">
        <ele>760.6484375</ele>
        <time>2020-07-07T21:03:14.351Z</time>
      </trkpt>
      <trkpt lat="45.5835" lon="6.0389">
        <ele>758.56066894531</ele>
        <time>2020-07-07T21:03:23.193Z</time>
      </trkpt>
      <trkpt lat="45.5836" lon="6.03804">
        <ele>745.86712646484</ele>
        <time>2020-07-07T21:03:32.045Z</time>
      </trkpt>
      <trkpt lat="45.5842" lon="6.03701">
        <ele>734.97277832031</ele>
        <time>2020-07-07T21:03:40.912Z</time>
      </trkpt>
      <trkpt lat="45.58419" lon="6.03604">
        <ele>722.23651123047</ele>
        <time>2020-07-07T21:03:49.790Z</time>
      </trkpt>
      <trkpt lat="45.58474" lon="6.0345">
        <ele>707.78259277344</ele>
        <time>2020-07-07T21:03:58.688Z</time>
      </trkpt>
      <trkpt lat="45.58529" lon="6.0336">
        <ele>700.78814697266</ele>
        <time>2020-07-07T21:04:07.599Z</time>
      </trkpt>
      <trkpt lat="45.58535" lon="6.03319">
        <ele>693.81127929688</ele>
        <time>2020-07-07T21:04:16.515Z</time>
      </trkpt>
      <trkpt lat="45.58582" lon="6.03223">
        <ele>685.10864257812</ele>
        <time>2020-07-07T21:04:25.444Z</time>
      </trkpt>
      <trkpt lat="45.58582" lon="6.03223">
        <ele>685.10986328125</ele>
        <time>2020-07-07T21:04:34.373Z</time>
      </trkpt>
      <trkpt lat="45.58592" lon="6.03217">
        <ele>685.95825195312</ele>
        <time>2020-07-07T21:04:43.304Z</time>
      </trkpt>
      <trkpt lat="45.58604" lon="6.03193">
        <ele>685.02087402344</ele>
        <time>2020-07-07T21:04:52.238Z</time>
      </trkpt>
      <trkpt lat="45.58622" lon="6.03131">
        <ele>676.49749755859</ele>
        <time>2020-07-07T21:05:01.179Z</time>
      </trkpt>
      <trkpt lat="45.58648" lon="6.03074">
        <ele>670.65979003906</ele>
        <time>2020-07-07T21:05:10.128Z</time>
      </trkpt>
      <trkpt lat="45.58648" lon="6.03074">
        <ele>670.66070556641</ele>
        <time>2020-07-07T21:05:19.077Z</time>
      </trkpt>
      <trkpt lat="45.58699" lon="6.03019">
        <ele>666.76580810547</ele>
        <time>2020-07-07T21:05:28.036Z</time>
      </trkpt>
      <trkpt lat="45.58736" lon="6.02957">
        <ele>658.60211181641</ele>
        <time>2020-07-07T21:05:37.004Z</time>
      </trkpt>
      <trkpt lat="45.58732" lon="6.02926">
        <ele>654.07104492188</ele>
        <time>2020-07-07T21:05:45.976Z</time>
      </trkpt>
      <trkpt lat="45.58732" lon="6.02926">
        <ele>654.07092285156</ele>
        <time>2020-07-07T21:05:54.948Z</time>
      </trkpt>
      <trkpt lat="45.58753" lon="6.0291">
        <ele>651.19067382812</ele>
        <time>2020-07-07T21:06:03.924Z</time>
      </trkpt>
      <trkpt lat="45.588" lon="6.02893">
        <ele>646.19586181641</ele>
        <time>2020-07-07T21:06:12.908Z</time>
      </trkpt>
      <trkpt lat="45.58869" lon="6.02887">
        <ele>647.76037597656</ele>
        <time>2020-07-07T21:06:21.903Z</time>
      </trkpt>
      <trkpt lat="45.58914" lon="6.02865">
        <ele>647.45770263672</ele>
        <time>2020-07-07T21:06:30.905Z</time>
      </trkpt>
      <trkpt lat="45.58971" lon="6.02817">
        <ele>643.89782714844</ele>
        <time>2020-07-07T21:06:39.918Z</time>
      </trkpt>
      <trkpt lat="45.58981" lon="6.02811">
        <ele>643.19744873047</ele>
        <time>2020-07-07T21:06:48.932Z</time>
      </trkpt>
      <trkpt lat="45.5915" lon="6.02711">
        <ele>628.13494873047</ele>
        <time>2020-07-07T21:06:57.976Z</time>
      </trkpt>
      <trkpt lat="45.59226" lon="6.02601">
        <ele>615.65112304688</ele>
        <time>2020-07-07T21:07:07.037Z</time>
      </trkpt>
      <trkpt lat="45.59226" lon="6.02569">
        <ele>609.85852050781</ele>
        <time>2020-07-07T21:07:16.102Z</time>
      </trkpt>
      <trkpt lat="45.59186" lon="6.02472">
        <ele>599.34252929688</ele>
        <time>2020-07-07T21:07:25.179Z</time>
      </trkpt>
      <trkpt lat="45.59165" lon="6.02451">
        <ele>598.22265625</ele>
        <time>2020-07-07T21:07:34.261Z</time>
      </trkpt>
      <trkpt lat="45.59121" lon="6.02437">
        <ele>599.25762939453</ele>
        <time>2020-07-07T21:07:43.350Z</time>
      </trkpt>
      <trkpt lat="45.59068" lon="6.02399">
        <ele>595.58874511719</ele>
        <time>2020-07-07T21:07:52.448Z</time>
      </trkpt>
      <trkpt lat="45.59036" lon="6.02372">
        <ele>592.24554443359</ele>
        <time>2020-07-07T21:08:01.552Z</time>
      </trkpt>
      <trkpt lat="45.58996" lon="6.02316">
        <ele>584.72802734375</ele>
        <time>2020-07-07T21:08:10.665Z</time>
      </trkpt>
      <trkpt lat="45.5898" lon="6.0231">
        <ele>585.7578125</ele>
        <time>2020-07-07T21:08:19.781Z</time>
      </trkpt>
      <trkpt lat="45.58925" lon="6.02327">
        <ele>586.22930908203</ele>
        <time>2020-07-07T21:08:28.906Z</time>
      </trkpt>
      <trkpt lat="45.58896" lon="6.02318">
        <ele>583.01123046875</ele>
        <time>2020-07-07T21:08:38.036Z</time>
      </trkpt>
      <trkpt lat="45.58867" lon="6.02277">
        <ele>574.17999267578</ele>
        <time>2020-07-07T21:08:47.172Z</time>
      </trkpt>
      <trkpt lat="45.58849" lon="6.02268">
        <ele>572.09460449219</ele>
        <time>2020-07-07T21:08:56.311Z</time>
      </trkpt>
      <trkpt lat="45.58823" lon="6.0227">
        <ele>572.55804443359</ele>
        <time>2020-07-07T21:09:05.454Z</time>
      </trkpt>
      <trkpt lat="45.5881" lon="6.02265">
        <ele>571.63122558594</ele>
        <time>2020-07-07T21:09:14.599Z</time>
      </trkpt>
      <trkpt lat="45.58805" lon="6.02246">
        <ele>567.46057128906</ele>
        <time>2020-07-07T21:09:23.747Z</time>
      </trkpt>
      <trkpt lat="45.5881" lon="6.02222">
        <ele>562.25689697266</ele>
        <time>2020-07-07T21:09:32.898Z</time>
      </trkpt>
      <trkpt lat="45.58843" lon="6.02198">
        <ele>556.03948974609</ele>
        <time>2020-07-07T21:09:42.055Z</time>
      </trkpt>
      <trkpt lat="45.5887" lon="6.02201">
        <ele>556.26568603516</ele>
        <time>2020-07-07T21:09:51.216Z</time>
      </trkpt>
      <trkpt lat="45.58923" lon="6.02244">
        <ele>567.86389160156</ele>
        <time>2020-07-07T21:10:00.387Z</time>
      </trkpt>
      <trkpt lat="45.58932" lon="6.02237">
        <ele>565.62408447266</ele>
        <time>2020-07-07T21:10:09.559Z</time>
      </trkpt>
      <trkpt lat="45.58942" lon="6.02188">
        <ele>549.99694824219</ele>
        <time>2020-07-07T21:10:18.737Z</time>
      </trkpt>
      <trkpt lat="45.5895" lon="6.02177">
        <ele>546.46990966797</ele>
        <time>2020-07-07T21:10:27.917Z</time>
      </trkpt>
      <trkpt lat="45.59006" lon="6.02185">
        <ele>542.85900878906</ele>
        <time>2020-07-07T21:10:37.106Z</time>
      </trkpt>
      <trkpt lat="45.59057" lon="6.0221">
        <ele>543.99981689453</ele>
        <time>2020-07-07T21:10:46.303Z</time>
      </trkpt>
      <trkpt lat="45.5916" lon="6.02198">
        <ele>540.94445800781</ele>
        <time>2020-07-07T21:10:55.517Z</time>
      </trkpt>
      <trkpt lat="45.59172" lon="6.02132">
        <ele>529.13824462891</ele>
        <time>2020-07-07T21:11:04.739Z</time>
      </trkpt>
      <trkpt lat="45.59171" lon="6.02107">
        <ele>532.11267089844</ele>
        <time>2020-07-07T21:11:13.963Z</time>
      </trkpt>
      <trkpt lat="45.59147" lon="6.02074">
        <ele>533.42474365234</ele>
        <time>2020-07-07T21:11:23.193Z</time>
      </trkpt>
      <trkpt lat="45.59049" lon="6.02015">
        <ele>540.61541748047</ele>
        <time>2020-07-07T21:11:32.440Z</time>
      </trkpt>
      <trkpt lat="45.59019" lon="6.01974">
        <ele>549.39544677734</ele>
        <time>2020-07-07T21:11:41.693Z</time>
      </trkpt>
      <trkpt lat="45.5897" lon="6.0195">
        <ele>547.77349853516</ele>
        <time>2020-07-07T21:11:50.955Z</time>
      </trkpt>
      <trkpt lat="45.58953" lon="6.01936">
        <ele>550.12713623047</ele>
        <time>2020-07-07T21:12:00.220Z</time>
      </trkpt>
      <trkpt lat="45.58953" lon="6.01936">
        <ele>550.13238525391</ele>
        <time>2020-07-07T21:12:09.485Z</time>
      </trkpt>
      <trkpt lat="45.58953" lon="6.01936">
        <ele>550.12713623047</ele>
        <time>2020-07-07T21:12:18.750Z</time>
      </trkpt>
      <trkpt lat="45.58939" lon="6.01924">
        <ele>552.19592285156</ele>
        <time>2020-07-07T21:12:28.017Z</time>
      </trkpt>
      <trkpt lat="45.58939" lon="6.01924">
        <ele>552.19891357422</ele>
        <time>2020-07-07T21:12:37.284Z</time>
      </trkpt>
      <trkpt lat="45.58897" lon="6.0189">
        <ele>558.00689697266</ele>
        <time>2020-07-07T21:12:46.559Z</time>
      </trkpt>
      <trkpt lat="45.58861" lon="6.01836">
        <ele>566.27978515625</ele>
        <time>2020-07-07T21:12:55.843Z</time>
      </trkpt>
      <trkpt lat="45.58825" lon="6.01821">
        <ele>562.04473876953</ele>
        <time>2020-07-07T21:13:05.132Z</time>
      </trkpt>
      <trkpt lat="45.58815" lon="6.01801">
        <ele>565.31103515625</ele>
        <time>2020-07-07T21:13:14.424Z</time>
      </trkpt>
      <trkpt lat="45.58819" lon="6.0179">
        <ele>568.56774902344</ele>
        <time>2020-07-07T21:13:23.718Z</time>
      </trkpt>
      <trkpt lat="45.58824" lon="6.01785">
        <ele>571.14221191406</ele>
        <time>2020-07-07T21:13:33.013Z</time>
      </trkpt>
      <trkpt lat="45.58841" lon="6.01791">
        <ele>573.99993896484</ele>
        <time>2020-07-07T21:13:42.310Z</time>
      </trkpt>
      <trkpt lat="45.58927" lon="6.01845">
        <ele>577.24768066406</ele>
        <time>2020-07-07T21:13:51.622Z</time>
      </trkpt>
      <trkpt lat="45.58985" lon="6.01854">
        <ele>582.93939208984</ele>
        <time>2020-07-07T21:14:00.944Z</time>
      </trkpt>
      <trkpt lat="45.59021" lon="6.01843">
        <ele>592.87982177734</ele>
        <time>2020-07-07T21:14:10.272Z</time>
      </trkpt>
      <trkpt lat="45.59054" lon="6.01864">
        <ele>595.06658935547</ele>
        <time>2020-07-07T21:14:19.605Z</time>
      </trkpt>
      <trkpt lat="45.5906" lon="6.01853">
        <ele>598.02880859375</ele>
        <time>2020-07-07T21:14:28.940Z</time>
      </trkpt>
      <trkpt lat="45.5906" lon="6.01853">
        <ele>598.02728271484</ele>
        <time>2020-07-07T21:14:38.275Z</time>
      </trkpt>
      <trkpt lat="45.59057" lon="6.01838">
        <ele>599.97100830078</ele>
        <time>2020-07-07T21:14:47.612Z</time>
      </trkpt>
      <trkpt lat="45.59028" lon="6.01809">
        <ele>599.62347412109</ele>
        <time>2020-07-07T21:14:56.954Z</time>
      </trkpt>
      <trkpt lat="45.59017" lon="6.01789">
        <ele>600.17321777344</ele>
        <time>2020-07-07T21:15:06.299Z</time>
      </trkpt>
      <trkpt lat="45.58962" lon="6.01594">
        <ele>607.62603759766</ele>
        <time>2020-07-07T21:15:15.668Z</time>
      </trkpt>
      <trkpt lat="45.58935" lon="6.01433">
        <ele>612.19561767578</ele>
        <time>2020-07-07T21:15:25.056Z</time>
      </trkpt>
      <trkpt lat="45.58917" lon="6.01385">
        <ele>612.30749511719</ele>
        <time>2020-07-07T21:15:34.450Z</time>
      </trkpt>
      <trkpt lat="45.588" lon="6.01167">
        <ele>612.68157958984</ele>
        <time>2020-07-07T21:15:43.874Z</time>
      </trkpt>
      <trkpt lat="45.58847" lon="6.01205">
        <ele>616.36309814453</ele>
        <time>2020-07-07T21:15:53.307Z</time>
      </trkpt>
      <trkpt lat="45.59021" lon="6.01389">
        <ele>630.08898925781</ele>
        <time>2020-07-07T21:16:02.775Z</time>
      </trkpt>
      <trkpt lat="45.58987" lon="6.01168">
        <ele>639.53491210938</ele>
        <time>2020-07-07T21:16:12.268Z</time>
      </trkpt>
      <trkpt lat="45.5898" lon="6.01145">
        <ele>639.36102294922</ele>
        <time>2020-07-07T21:16:21.764Z</time>
      </trkpt>
      <trkpt lat="45.58931" lon="6.01064">
        <ele>641.07055664062</ele>
        <time>2020-07-07T21:16:31.272Z</time>
      </trkpt>
      <trkpt lat="45.58895" lon="6.0096">
        <ele>644.74609375</ele>
        <time>2020-07-07T21:16:40.793Z</time>
      </trkpt>
      <trkpt lat="45.58893" lon="6.00914">
        <ele>648.31176757812</ele>
        <time>2020-07-07T21:16:50.319Z</time>
      </trkpt>
      <trkpt lat="45.58882" lon="6.00874">
        <ele>649.82672119141</ele>
        <time>2020-07-07T21:16:59.850Z</time>
      </trkpt>
      <trkpt lat="45.58878" lon="6.00801">
        <ele>654.66125488281</ele>
        <time>2020-07-07T21:17:09.389Z</time>
      </trkpt>
      <trkpt lat="45.58881" lon="6.00794">
        <ele>655.97424316406</ele>
        <time>2020-07-07T21:17:18.929Z</time>
      </trkpt>
      <trkpt lat="45.589" lon="6.00835">
        <ele>656.8935546875</ele>
        <time>2020-07-07T21:17:28.475Z</time>
      </trkpt>
      <trkpt lat="45.58969" lon="6.00905">
        <ele>664.32525634766</ele>
        <time>2020-07-07T21:17:38.034Z</time>
      </trkpt>
      <trkpt lat="45.58989" lon="6.00922">
        <ele>667.96813964844</ele>
        <time>2020-07-07T21:17:47.597Z</time>
      </trkpt>
      <trkpt lat="45.59038" lon="6.00963">
        <ele>676.57733154297</ele>
        <time>2020-07-07T21:17:57.169Z</time>
      </trkpt>
      <trkpt lat="45.59079" lon="6.01035">
        <ele>682.78942871094</ele>
        <time>2020-07-07T21:18:06.751Z</time>
      </trkpt>
      <trkpt lat="45.59093" lon="6.0103">
        <ele>689.59899902344</ele>
        <time>2020-07-07T21:18:16.336Z</time>
      </trkpt>
      <trkpt lat="45.59094" lon="6.01008">
        <ele>693.68353271484</ele>
        <time>2020-07-07T21:18:25.923Z</time>
      </trkpt>
      <trkpt lat="45.59066" lon="6.00927">
        <ele>695.05725097656</ele>
        <time>2020-07-07T21:18:35.521Z</time>
      </trkpt>
      <trkpt lat="45.59066" lon="6.00927">
        <ele>695.05645751953</ele>
        <time>2020-07-07T21:18:45.119Z</time>
      </trkpt>
      <trkpt lat="45.59058" lon="6.00905">
        <ele>695.51483154297</ele>
        <time>2020-07-07T21:18:54.719Z</time>
      </trkpt>
      <trkpt lat="45.59058" lon="6.00905">
        <ele>695.51416015625</ele>
        <time>2020-07-07T21:19:04.319Z</time>
      </trkpt>
      <trkpt lat="45.59058" lon="6.00905">
        <ele>695.51507568359</ele>
        <time>2020-07-07T21:19:13.919Z</time>
      </trkpt>
      <trkpt lat="45.59035" lon="6.00842">
        <ele>695.38848876953</ele>
        <time>2020-07-07T21:19:23.527Z</time>
      </trkpt>
      <trkpt lat="45.59013" lon="6.00762">
        <ele>694.53210449219</ele>
        <time>2020-07-07T21:19:33.145Z</time>
      </trkpt>
      <trkpt lat="45.59013" lon="6.00743">
        <ele>695.22717285156</ele>
        <time>2020-07-07T21:19:42.765Z</time>
      </trkpt>
      <trkpt lat="45.59021" lon="6.00734">
        <ele>698.01007080078</ele>
        <time>2020-07-07T21:19:52.387Z</time>
      </trkpt>
      <trkpt lat="45.59021" lon="6.00734">
        <ele>698.00762939453</ele>
        <time>2020-07-07T21:20:02.009Z</time>
      </trkpt>
      <trkpt lat="45.5903" lon="6.00733">
        <ele>700.51776123047</ele>
        <time>2020-07-07T21:20:11.632Z</time>
      </trkpt>
      <trkpt lat="45.59041" lon="6.00748">
        <ele>703.06652832031</ele>
        <time>2020-07-07T21:20:21.258Z</time>
      </trkpt>
      <trkpt lat="45.59119" lon="6.00938">
        <ele>718.01208496094</ele>
        <time>2020-07-07T21:20:30.908Z</time>
      </trkpt>
      <trkpt lat="45.59191" lon="6.01076">
        <ele>731.20416259766</ele>
        <time>2020-07-07T21:20:40.578Z</time>
      </trkpt>
      <trkpt lat="45.59341" lon="6.01322">
        <ele>734.65972900391</ele>
        <time>2020-07-07T21:20:50.284Z</time>
      </trkpt>
      <trkpt lat="45.59443" lon="6.01434">
        <ele>735.05419921875</ele>
        <time>2020-07-07T21:21:00.011Z</time>
      </trkpt>
      <trkpt lat="45.59484" lon="6.01459">
        <ele>738.92083740234</ele>
        <time>2020-07-07T21:21:09.745Z</time>
      </trkpt>
      <trkpt lat="45.59541" lon="6.01471">
        <ele>750.28723144531</ele>
        <time>2020-07-07T21:21:19.488Z</time>
      </trkpt>
      <trkpt lat="45.59605" lon="6.015">
        <ele>757.75561523438</ele>
        <time>2020-07-07T21:21:29.242Z</time>
      </trkpt>
      <trkpt lat="45.59677" lon="6.01556">
        <ele>750.48010253906</ele>
        <time>2020-07-07T21:21:39.009Z</time>
      </trkpt>
      <trkpt lat="45.59761" lon="6.0156">
        <ele>759.74310302734</ele>
        <time>2020-07-07T21:21:48.789Z</time>
      </trkpt>
      <trkpt lat="45.59805" lon="6.01554">
        <ele>768.91760253906</ele>
        <time>2020-07-07T21:21:58.576Z</time>
      </trkpt>
      <trkpt lat="45.59837" lon="6.01565">
        <ele>772.00872802734</ele>
        <time>2020-07-07T21:22:08.369Z</time>
      </trkpt>
      <trkpt lat="45.59976" lon="6.01647">
        <ele>774.81567382812</ele>
        <time>2020-07-07T21:22:18.186Z</time>
      </trkpt>
      <trkpt lat="45.6" lon="6.01653">
        <ele>775.15112304688</ele>
        <time>2020-07-07T21:22:28.007Z</time>
      </trkpt>
      <trkpt lat="45.6" lon="6.01653">
        <ele>775.15032958984</ele>
        <time>2020-07-07T21:22:37.828Z</time>
      </trkpt>
      <trkpt lat="45.6004" lon="6.0166">
        <ele>776.25738525391</ele>
        <time>2020-07-07T21:22:47.655Z</time>
      </trkpt>
      <trkpt lat="45.60085" lon="6.01653">
        <ele>781.04833984375</ele>
        <time>2020-07-07T21:22:57.489Z</time>
      </trkpt>
      <trkpt lat="45.60137" lon="6.01663">
        <ele>778.82141113281</ele>
        <time>2020-07-07T21:23:07.332Z</time>
      </trkpt>
      <trkpt lat="45.60253" lon="6.0164">
        <ele>786.06195068359</ele>
        <time>2020-07-07T21:23:17.194Z</time>
      </trkpt>
      <trkpt lat="45.60378" lon="6.01588">
        <ele>797.02667236328</ele>
        <time>2020-07-07T21:23:27.076Z</time>
      </trkpt>
      <trkpt lat="45.60676" lon="6.01505">
        <ele>819.73937988281</ele>
        <time>2020-07-07T21:23:37.007Z</time>
      </trkpt>
      <trkpt lat="45.60799" lon="6.01462">
        <ele>824.82751464844</ele>
        <time>2020-07-07T21:23:46.958Z</time>
      </trkpt>
      <trkpt lat="45.60885" lon="6.01445">
        <ele>827.62420654297</ele>
        <time>2020-07-07T21:23:56.923Z</time>
      </trkpt>
      <trkpt lat="45.60934" lon="6.01404">
        <ele>840.80487060547</ele>
        <time>2020-07-07T21:24:06.897Z</time>
      </trkpt>
      <trkpt lat="45.61117" lon="6.01293">
        <ele>856.91137695312</ele>
        <time>2020-07-07T21:24:16.903Z</time>
      </trkpt>
      <trkpt lat="45.61165" lon="6.01275">
        <ele>868.61022949219</ele>
        <time>2020-07-07T21:24:26.917Z</time>
      </trkpt>
      <trkpt lat="45.61185" lon="6.01275">
        <ele>871.2958984375</ele>
        <time>2020-07-07T21:24:36.934Z</time>
      </trkpt>
      <trkpt lat="45.61254" lon="6.0129">
        <ele>883.78082275391</ele>
        <time>2020-07-07T21:24:46.962Z</time>
      </trkpt>
      <trkpt lat="45.61276" lon="6.01305">
        <ele>886.20080566406</ele>
        <time>2020-07-07T21:24:56.994Z</time>
      </trkpt>
      <trkpt lat="45.61307" lon="6.01333">
        <ele>889.73419189453</ele>
        <time>2020-07-07T21:25:07.032Z</time>
      </trkpt>
      <trkpt lat="45.61379" lon="6.01439">
        <ele>884.14221191406</ele>
        <time>2020-07-07T21:25:17.087Z</time>
      </trkpt>
      <trkpt lat="45.61437" lon="6.01493">
        <ele>881.47967529297</ele>
        <time>2020-07-07T21:25:27.153Z</time>
      </trkpt>
      <trkpt lat="45.61472" lon="6.0152">
        <ele>883.32153320312</ele>
        <time>2020-07-07T21:25:37.225Z</time>
      </trkpt>
      <trkpt lat="45.61521" lon="6.01537">
        <ele>886.69537353516</ele>
        <time>2020-07-07T21:25:47.305Z</time>
      </trkpt>
      <trkpt lat="45.6157" lon="6.01507">
        <ele>889.31781005859</ele>
        <time>2020-07-07T21:25:57.394Z</time>
      </trkpt>
      <trkpt lat="45.61603" lon="6.01445">
        <ele>895.92608642578</ele>
        <time>2020-07-07T21:26:07.492Z</time>
      </trkpt>
      <trkpt lat="45.61637" lon="6.01412">
        <ele>898.28338623047</ele>
        <time>2020-07-07T21:26:17.596Z</time>
      </trkpt>
      <trkpt lat="45.61732" lon="6.01397">
        <ele>895.50701904297</ele>
        <time>2020-07-07T21:26:27.715Z</time>
      </trkpt>
      <trkpt lat="45.61786" lon="6.01368">
        <ele>901.42407226562</ele>
        <time>2020-07-07T21:26:37.844Z</time>
      </trkpt>
      <trkpt lat="45.61847" lon="6.01319">
        <ele>903.12048339844</ele>
        <time>2020-07-07T21:26:47.984Z</time>
      </trkpt>
      <trkpt lat="45.6192" lon="6.01216">
        <ele>908.38977050781</ele>
        <time>2020-07-07T21:26:58.140Z</time>
      </trkpt>
      <trkpt lat="45.61938" lon="6.01136">
        <ele>912.52630615234</ele>
        <time>2020-07-07T21:27:08.306Z</time>
      </trkpt>
      <trkpt lat="45.61955" lon="6.01085">
        <ele>912.14770507812</ele>
        <time>2020-07-07T21:27:18.478Z</time>
      </trkpt>
      <trkpt lat="45.61971" lon="6.01007">
        <ele>910.30621337891</ele>
        <time>2020-07-07T21:27:28.659Z</time>
      </trkpt>
      <trkpt lat="45.61982" lon="6.00988">
        <ele>911.82177734375</ele>
        <time>2020-07-07T21:27:38.843Z</time>
      </trkpt>
      <trkpt lat="45.62005" lon="6.00975">
        <ele>913.16497802734</ele>
        <time>2020-07-07T21:27:49.031Z</time>
      </trkpt>
      <trkpt lat="45.62065" lon="6.00962">
        <ele>920.66015625</ele>
        <time>2020-07-07T21:27:59.229Z</time>
      </trkpt>
      <trkpt lat="45.62065" lon="6.00962">
        <ele>920.65863037109</ele>
        <time>2020-07-07T21:28:09.427Z</time>
      </trkpt>
      <trkpt lat="45.6209" lon="6.00953">
        <ele>925.92498779297</ele>
        <time>2020-07-07T21:28:19.629Z</time>
      </trkpt>
      <trkpt lat="45.62121" lon="6.00925">
        <ele>927.81268310547</ele>
        <time>2020-07-07T21:28:29.837Z</time>
      </trkpt>
      <trkpt lat="45.6213" lon="6.00902">
        <ele>925.83032226562</ele>
        <time>2020-07-07T21:28:40.048Z</time>
      </trkpt>
      <trkpt lat="45.62111" lon="6.00842">
        <ele>926.65155029297</ele>
        <time>2020-07-07T21:28:50.266Z</time>
      </trkpt>
      <trkpt lat="45.62108" lon="6.00813">
        <ele>926.07110595703</ele>
        <time>2020-07-07T21:29:00.487Z</time>
      </trkpt>
      <trkpt lat="45.62108" lon="6.00813">
        <ele>926.072265625</ele>
        <time>2020-07-07T21:29:10.708Z</time>
      </trkpt>
      <trkpt lat="45.6212" lon="6.00785">
        <ele>925.20190429688</ele>
        <time>2020-07-07T21:29:20.933Z</time>
      </trkpt>
      <trkpt lat="45.62185" lon="6.00741">
        <ele>931.04901123047</ele>
        <time>2020-07-07T21:29:31.170Z</time>
      </trkpt>
      <trkpt lat="45.62234" lon="6.00731">
        <ele>934.11108398438</ele>
        <time>2020-07-07T21:29:41.414Z</time>
      </trkpt>
      <trkpt lat="45.62313" lon="6.0069">
        <ele>943.73352050781</ele>
        <time>2020-07-07T21:29:51.672Z</time>
      </trkpt>
      <trkpt lat="45.62329" lon="6.00693">
        <ele>944.10687255859</ele>
        <time>2020-07-07T21:30:01.933Z</time>
      </trkpt>
      <trkpt lat="45.62366" lon="6.00724">
        <ele>942.43341064453</ele>
        <time>2020-07-07T21:30:12.200Z</time>
      </trkpt>
      <trkpt lat="45.62384" lon="6.00729">
        <ele>942.94427490234</ele>
        <time>2020-07-07T21:30:22.470Z</time>
      </trkpt>
      <trkpt lat="45.62472" lon="6.00701">
        <ele>954.73449707031</ele>
        <time>2020-07-07T21:30:32.755Z</time>
      </trkpt>
      <trkpt lat="45.62524" lon="6.00695">
        <ele>962.86474609375</ele>
        <time>2020-07-07T21:30:43.048Z</time>
      </trkpt>
      <trkpt lat="45.62596" lon="6.00749">
        <ele>965.66888427734</ele>
        <time>2020-07-07T21:30:53.354Z</time>
      </trkpt>
      <trkpt lat="45.62745" lon="6.00732">
        <ele>983.83184814453</ele>
        <time>2020-07-07T21:31:03.684Z</time>
      </trkpt>
      <trkpt lat="45.62769" lon="6.0072">
        <ele>986.24084472656</ele>
        <time>2020-07-07T21:31:14.018Z</time>
      </trkpt>
      <trkpt lat="45.62787" lon="6.00695">
        <ele>990.39080810547</ele>
        <time>2020-07-07T21:31:24.356Z</time>
      </trkpt>
      <trkpt lat="45.62811" lon="6.00668">
        <ele>994.23321533203</ele>
        <time>2020-07-07T21:31:34.699Z</time>
      </trkpt>
      <trkpt lat="45.62836" lon="6.00664">
        <ele>996.85736083984</ele>
        <time>2020-07-07T21:31:45.046Z</time>
      </trkpt>
      <trkpt lat="45.62884" lon="6.00702">
        <ele>997.32080078125</ele>
        <time>2020-07-07T21:31:55.402Z</time>
      </trkpt>
      <trkpt lat="45.63" lon="6.00651">
        <ele>1015.2205810547</ele>
        <time>2020-07-07T21:32:05.777Z</time>
      </trkpt>
      <trkpt lat="45.63018" lon="6.00651">
        <ele>1017.6276855469</ele>
        <time>2020-07-07T21:32:16.155Z</time>
      </trkpt>
      <trkpt lat="45.63032" lon="6.0066">
        <ele>1018.5416870117</ele>
        <time>2020-07-07T21:32:26.536Z</time>
      </trkpt>
      <trkpt lat="45.6305" lon="6.00694">
        <ele>1017.7575683594</ele>
        <time>2020-07-07T21:32:36.922Z</time>
      </trkpt>
      <trkpt lat="45.6305" lon="6.00694">
        <ele>1017.7564697266</ele>
        <time>2020-07-07T21:32:47.308Z</time>
      </trkpt>
      <trkpt lat="45.63076" lon="6.00727">
        <ele>1018.7944335938</ele>
        <time>2020-07-07T21:32:57.699Z</time>
      </trkpt>
      <trkpt lat="45.63157" lon="6.00767">
        <ele>1027.9417724609</ele>
        <time>2020-07-07T21:33:08.104Z</time>
      </trkpt>
      <trkpt lat="45.63236" lon="6.00788">
        <ele>1037.6657714844</ele>
        <time>2020-07-07T21:33:18.522Z</time>
      </trkpt>
      <trkpt lat="45.63266" lon="6.00827">
        <ele>1041.2585449219</ele>
        <time>2020-07-07T21:33:28.946Z</time>
      </trkpt>
      <trkpt lat="45.63297" lon="6.00909">
        <ele>1041.8499755859</ele>
        <time>2020-07-07T21:33:39.381Z</time>
      </trkpt>
      <trkpt lat="45.63319" lon="6.00925">
        <ele>1043.4449462891</ele>
        <time>2020-07-07T21:33:49.820Z</time>
      </trkpt>
      <trkpt lat="45.634" lon="6.00954">
        <ele>1051.9091796875</ele>
        <time>2020-07-07T21:34:00.272Z</time>
      </trkpt>
      <trkpt lat="45.63542" lon="6.01072">
        <ele>1064.7392578125</ele>
        <time>2020-07-07T21:34:10.750Z</time>
      </trkpt>
      <trkpt lat="45.63544" lon="6.01087">
        <ele>1063.6837158203</ele>
        <time>2020-07-07T21:34:21.230Z</time>
      </trkpt>
      <trkpt lat="45.63607" lon="6.01128">
        <ele>1071.8186035156</ele>
        <time>2020-07-07T21:34:31.721Z</time>
      </trkpt>
      <trkpt lat="45.63889" lon="6.01272">
        <ele>1109.7462158203</ele>
        <time>2020-07-07T21:34:42.260Z</time>
      </trkpt>
      <trkpt lat="45.63897" lon="6.01269">
        <ele>1111.4582519531</ele>
        <time>2020-07-07T21:34:52.800Z</time>
      </trkpt>
      <trkpt lat="45.63898" lon="6.01259">
        <ele>1112.4752197266</ele>
        <time>2020-07-07T21:35:03.341Z</time>
      </trkpt>
      <trkpt lat="45.63863" lon="6.01162">
        <ele>1115.0150146484</ele>
        <time>2020-07-07T21:35:13.895Z</time>
      </trkpt>
      <trkpt lat="45.63866" lon="6.01147">
        <ele>1116.8443603516</ele>
        <time>2020-07-07T21:35:24.450Z</time>
      </trkpt>
      <trkpt lat="45.63912" lon="6.01182">
        <ele>1121.8503417969</ele>
        <time>2020-07-07T21:35:35.014Z</time>
      </trkpt>
      <trkpt lat="45.6395" lon="6.01198">
        <ele>1127.4643554688</ele>
        <time>2020-07-07T21:35:45.584Z</time>
      </trkpt>
      <trkpt lat="45.63981" lon="6.01216">
        <ele>1131.1766357422</ele>
        <time>2020-07-07T21:35:56.159Z</time>
      </trkpt>
      <trkpt lat="45.64041" lon="6.01285">
        <ele>1133.7442626953</ele>
        <time>2020-07-07T21:36:06.747Z</time>
      </trkpt>
      <trkpt lat="45.64069" lon="6.013">
        <ele>1135.9918212891</ele>
        <time>2020-07-07T21:36:17.340Z</time>
      </trkpt>
      <trkpt lat="45.6415" lon="6.01323">
        <ele>1144.4692382812</ele>
        <time>2020-07-07T21:36:27.946Z</time>
      </trkpt>
      <trkpt lat="45.64242" lon="6.01391">
        <ele>1155.1224365234</ele>
        <time>2020-07-07T21:36:38.568Z</time>
      </trkpt>
      <trkpt lat="45.64303" lon="6.01435">
        <ele>1159.9846191406</ele>
        <time>2020-07-07T21:36:49.201Z</time>
      </trkpt>
      <trkpt lat="45.64394" lon="6.0147">
        <ele>1166.1755371094</ele>
        <time>2020-07-07T21:36:59.849Z</time>
      </trkpt>
      <trkpt lat="45.6446" lon="6.01511">
        <ele>1172.1462402344</ele>
        <time>2020-07-07T21:37:10.509Z</time>
      </trkpt>
      <trkpt lat="45.64474" lon="6.01507">
        <ele>1173.3565673828</ele>
        <time>2020-07-07T21:37:21.171Z</time>
      </trkpt>
      <trkpt lat="45.64564" lon="6.01429">
        <ele>1182.48828125</ele>
        <time>2020-07-07T21:37:31.850Z</time>
      </trkpt>
      <trkpt lat="45.6458" lon="6.01421">
        <ele>1184.5864257812</ele>
        <time>2020-07-07T21:37:42.532Z</time>
      </trkpt>
      <trkpt lat="45.64598" lon="6.01432">
        <ele>1186.1861572266</ele>
        <time>2020-07-07T21:37:53.217Z</time>
      </trkpt>
      <trkpt lat="45.64621" lon="6.01485">
        <ele>1185.7781982422</ele>
        <time>2020-07-07T21:38:03.909Z</time>
      </trkpt>
      <trkpt lat="45.64643" lon="6.01503">
        <ele>1187.6353759766</ele>
        <time>2020-07-07T21:38:14.605Z</time>
      </trkpt>
      <trkpt lat="45.64643" lon="6.01503">
        <ele>1187.6368408203</ele>
        <time>2020-07-07T21:38:25.301Z</time>
      </trkpt>
      <trkpt lat="45.64745" lon="6.01526">
        <ele>1199.6613769531</ele>
        <time>2020-07-07T21:38:36.013Z</time>
      </trkpt>
      <trkpt lat="45.64791" lon="6.01552">
        <ele>1202.3646240234</ele>
        <time>2020-07-07T21:38:46.733Z</time>
      </trkpt>
      <trkpt lat="45.64803" lon="6.01541">
        <ele>1203.498046875</ele>
        <time>2020-07-07T21:38:57.456Z</time>
      </trkpt>
      <trkpt lat="45.64805" lon="6.01529">
        <ele>1204.0129394531</ele>
        <time>2020-07-07T21:39:08.180Z</time>
      </trkpt>
      <trkpt lat="45.64779" lon="6.01406">
        <ele>1206.3449707031</ele>
        <time>2020-07-07T21:39:18.919Z</time>
      </trkpt>
      <trkpt lat="45.64779" lon="6.01406">
        <ele>1206.3453369141</ele>
        <time>2020-07-07T21:39:29.658Z</time>
      </trkpt>
      <trkpt lat="45.64776" lon="6.01395">
        <ele>1206.6285400391</ele>
        <time>2020-07-07T21:39:40.398Z</time>
      </trkpt>
      <trkpt lat="45.64749" lon="6.01315">
        <ele>1212.4432373047</ele>
        <time>2020-07-07T21:39:51.148Z</time>
      </trkpt>
      <trkpt lat="45.64735" lon="6.01226">
        <ele>1220.1689453125</ele>
        <time>2020-07-07T21:40:01.908Z</time>
      </trkpt>
      <trkpt lat="45.64735" lon="6.01227">
        <ele>1220.1494140625</ele>
        <time>2020-07-07T21:40:12.668Z</time>
      </trkpt>
      <trkpt lat="45.64735" lon="6.01227">
        <ele>1220.1473388672</ele>
        <time>2020-07-07T21:40:23.428Z</time>
      </trkpt>
      <trkpt lat="45.64734" lon="6.01219">
        <ele>1220.6314697266</ele>
        <time>2020-07-07T21:40:34.189Z</time>
      </trkpt>
      <trkpt lat="45.64702" lon="6.01156">
        <ele>1221.5692138672</ele>
        <time>2020-07-07T21:40:44.959Z</time>
      </trkpt>
      <trkpt lat="45.64694" lon="6.01094">
        <ele>1225.4213867188</ele>
        <time>2020-07-07T21:40:55.736Z</time>
      </trkpt>
      <trkpt lat="45.64662" lon="6.01007">
        <ele>1230.2952880859</ele>
        <time>2020-07-07T21:41:06.524Z</time>
      </trkpt>
      <trkpt lat="45.64653" lon="6.00963">
        <ele>1232.3582763672</ele>
        <time>2020-07-07T21:41:17.317Z</time>
      </trkpt>
      <trkpt lat="45.64657" lon="6.00944">
        <ele>1233.6712646484</ele>
        <time>2020-07-07T21:41:28.112Z</time>
      </trkpt>
      <trkpt lat="45.64697" lon="6.00877">
        <ele>1234.5311279297</ele>
        <time>2020-07-07T21:41:38.917Z</time>
      </trkpt>
      <trkpt lat="45.64699" lon="6.00853">
        <ele>1234.2587890625</ele>
        <time>2020-07-07T21:41:49.725Z</time>
      </trkpt>
      <trkpt lat="45.64688" lon="6.00747">
        <ele>1231.5279541016</ele>
        <time>2020-07-07T21:42:00.545Z</time>
      </trkpt>
      <trkpt lat="45.64688" lon="6.00747">
        <ele>1231.5280761719</ele>
        <time>2020-07-07T21:42:11.365Z</time>
      </trkpt>
      <trkpt lat="45.64662" lon="6.00527">
        <ele>1238.966796875</ele>
        <time>2020-07-07T21:42:22.210Z</time>
      </trkpt>
      <trkpt lat="45.64618" lon="6.00321">
        <ele>1245.9185791016</ele>
        <time>2020-07-07T21:42:33.079Z</time>
      </trkpt>
      <trkpt lat="45.64595" lon="6.00273">
        <ele>1245.6876220703</ele>
        <time>2020-07-07T21:42:43.954Z</time>
      </trkpt>
      <trkpt lat="45.64548" lon="6.00187">
        <ele>1246.1967773438</ele>
        <time>2020-07-07T21:42:54.842Z</time>
      </trkpt>
      <trkpt lat="45.6454" lon="6.00154">
        <ele>1248.6683349609</ele>
        <time>2020-07-07T21:43:05.734Z</time>
      </trkpt>
      <trkpt lat="45.64534" lon="6.00017">
        <ele>1255.0572509766</ele>
        <time>2020-07-07T21:43:16.641Z</time>
      </trkpt>
      <trkpt lat="45.64446" lon="5.9971">
        <ele>1255.9060058594</ele>
        <time>2020-07-07T21:43:27.585Z</time>
      </trkpt>
      <trkpt lat="45.64418" lon="5.99643">
        <ele>1263.4632568359</ele>
        <time>2020-07-07T21:43:38.538Z</time>
      </trkpt>
      <trkpt lat="45.64374" lon="5.99591">
        <ele>1266.4660644531</ele>
        <time>2020-07-07T21:43:49.500Z</time>
      </trkpt>
      <trkpt lat="45.64356" lon="5.9957">
        <ele>1267.1860351562</ele>
        <time>2020-07-07T21:44:00.466Z</time>
      </trkpt>
      <trkpt lat="45.64227" lon="5.99429">
        <ele>1270.3541259766</ele>
        <time>2020-07-07T21:44:11.458Z</time>
      </trkpt>
      <trkpt lat="45.64216" lon="5.99402">
        <ele>1271.6124267578</ele>
        <time>2020-07-07T21:44:22.453Z</time>
      </trkpt>
      <trkpt lat="45.64215" lon="5.99344">
        <ele>1274.9968261719</ele>
        <time>2020-07-07T21:44:33.455Z</time>
      </trkpt>
      <trkpt lat="45.6424" lon="5.99154">
        <ele>1282.1105957031</ele>
        <time>2020-07-07T21:44:44.478Z</time>
      </trkpt>
      <trkpt lat="45.64243" lon="5.99121">
        <ele>1284.8131103516</ele>
        <time>2020-07-07T21:44:55.505Z</time>
      </trkpt>
      <trkpt lat="45.64239" lon="5.98932">
        <ele>1296.6956787109</ele>
        <time>2020-07-07T21:45:06.553Z</time>
      </trkpt>
      <trkpt lat="45.64232" lon="5.9883">
        <ele>1301.3931884766</ele>
        <time>2020-07-07T21:45:17.613Z</time>
      </trkpt>
      <trkpt lat="45.64228" lon="5.9877">
        <ele>1302.5458984375</ele>
        <time>2020-07-07T21:45:28.680Z</time>
      </trkpt>
      <trkpt lat="45.64235" lon="5.98726">
        <ele>1302.4125976562</ele>
        <time>2020-07-07T21:45:39.752Z</time>
      </trkpt>
      <trkpt lat="45.6428" lon="5.98669">
        <ele>1303.4543457031</ele>
        <time>2020-07-07T21:45:50.833Z</time>
      </trkpt>
      <trkpt lat="45.64408" lon="5.98532">
        <ele>1311.0396728516</ele>
        <time>2020-07-07T21:46:01.940Z</time>
      </trkpt>
      <trkpt lat="45.64447" lon="5.98446">
        <ele>1313.630859375</ele>
        <time>2020-07-07T21:46:13.059Z</time>
      </trkpt>
      <trkpt lat="45.6446" lon="5.98418">
        <ele>1316.4370117188</ele>
        <time>2020-07-07T21:46:24.181Z</time>
      </trkpt>
      <trkpt lat="45.64475" lon="5.98383">
        <ele>1319.2456054688</ele>
        <time>2020-07-07T21:46:35.308Z</time>
      </trkpt>
      <trkpt lat="45.64475" lon="5.98383">
        <ele>1319.2457275391</ele>
        <time>2020-07-07T21:46:46.435Z</time>
      </trkpt>
      <trkpt lat="45.6451" lon="5.98298">
        <ele>1320.86328125</ele>
        <time>2020-07-07T21:46:57.573Z</time>
      </trkpt>
      <trkpt lat="45.64529" lon="5.98232">
        <ele>1324.0592041016</ele>
        <time>2020-07-07T21:47:08.719Z</time>
      </trkpt>
      <trkpt lat="45.64529" lon="5.98232">
        <ele>1324.0593261719</ele>
        <time>2020-07-07T21:47:19.865Z</time>
      </trkpt>
      <trkpt lat="45.64534" lon="5.98199">
        <ele>1326.5684814453</ele>
        <time>2020-07-07T21:47:31.015Z</time>
      </trkpt>
      <trkpt lat="45.64538" lon="5.98159">
        <ele>1330.5847167969</ele>
        <time>2020-07-07T21:47:42.169Z</time>
      </trkpt>
      <trkpt lat="45.64545" lon="5.98098">
        <ele>1334.8815917969</ele>
        <time>2020-07-07T21:47:53.330Z</time>
      </trkpt>
      <trkpt lat="45.64545" lon="5.98098">
        <ele>1334.8817138672</ele>
        <time>2020-07-07T21:48:04.491Z</time>
      </trkpt>
      <trkpt lat="45.64556" lon="5.98078">
        <ele>1336.4318847656</ele>
        <time>2020-07-07T21:48:15.655Z</time>
      </trkpt>
      <trkpt lat="45.64574" lon="5.98076">
        <ele>1338.3487548828</ele>
        <time>2020-07-07T21:48:26.822Z</time>
      </trkpt>
      <trkpt lat="45.64582" lon="5.98083">
        <ele>1338.8636474609</ele>
        <time>2020-07-07T21:48:37.991Z</time>
      </trkpt>
      <trkpt lat="45.646" lon="5.98124">
        <ele>1338.4400634766</ele>
        <time>2020-07-07T21:48:49.165Z</time>
      </trkpt>
      <trkpt lat="45.64616" lon="5.98132">
        <ele>1339.5435791016</ele>
        <time>2020-07-07T21:49:00.342Z</time>
      </trkpt>
      <trkpt lat="45.64616" lon="5.98132">
        <ele>1339.5441894531</ele>
        <time>2020-07-07T21:49:11.519Z</time>
      </trkpt>
      <trkpt lat="45.64627" lon="5.98138">
        <ele>1340.3450927734</ele>
        <time>2020-07-07T21:49:22.698Z</time>
      </trkpt>
      <trkpt lat="45.64651" lon="5.98139">
        <ele>1342.3092041016</ele>
        <time>2020-07-07T21:49:33.880Z</time>
      </trkpt>
      <trkpt lat="45.64724" lon="5.9812">
        <ele>1349.3154296875</ele>
        <time>2020-07-07T21:49:45.074Z</time>
      </trkpt>
      <trkpt lat="45.64724" lon="5.9812">
        <ele>1349.3149414062</ele>
        <time>2020-07-07T21:49:56.268Z</time>
      </trkpt>
      <trkpt lat="45.64772" lon="5.98105">
        <ele>1348.6737060547</ele>
        <time>2020-07-07T21:50:07.470Z</time>
      </trkpt>
      <trkpt lat="45.64805" lon="5.98094">
        <ele>1351.546875</ele>
        <time>2020-07-07T21:50:18.678Z</time>
      </trkpt>
      <trkpt lat="45.64805" lon="5.98094">
        <ele>1351.5482177734</ele>
        <time>2020-07-07T21:50:29.886Z</time>
      </trkpt>
      <trkpt lat="45.64826" lon="5.98086">
        <ele>1356.1680908203</ele>
        <time>2020-07-07T21:50:41.097Z</time>
      </trkpt>
      <trkpt lat="45.64846" lon="5.98091">
        <ele>1357.4763183594</ele>
        <time>2020-07-07T21:50:52.311Z</time>
      </trkpt>
      <trkpt lat="45.64846" lon="5.98091">
        <ele>1357.4768066406</ele>
        <time>2020-07-07T21:51:03.525Z</time>
      </trkpt>
      <trkpt lat="45.64891" lon="5.98103">
        <ele>1359.5615234375</ele>
        <time>2020-07-07T21:51:14.747Z</time>
      </trkpt>
      <trkpt lat="45.64914" lon="5.98101">
        <ele>1363.1787109375</ele>
        <time>2020-07-07T21:51:25.972Z</time>
      </trkpt>
      <trkpt lat="45.65001" lon="5.98054">
        <ele>1371.0902099609</ele>
        <time>2020-07-07T21:51:37.212Z</time>
      </trkpt>
      <trkpt lat="45.65049" lon="5.9807">
        <ele>1375.4372558594</ele>
        <time>2020-07-07T21:51:48.460Z</time>
      </trkpt>
      <trkpt lat="45.65049" lon="5.9807">
        <ele>1375.4378662109</ele>
        <time>2020-07-07T21:51:59.708Z</time>
      </trkpt>
      <trkpt lat="45.65133" lon="5.98069">
        <ele>1378.1525878906</ele>
        <time>2020-07-07T21:52:10.969Z</time>
      </trkpt>
      <trkpt lat="45.65133" lon="5.98069">
        <ele>1378.1529541016</ele>
        <time>2020-07-07T21:52:22.230Z</time>
      </trkpt>
      <trkpt lat="45.6529" lon="5.98128">
        <ele>1385.9200439453</ele>
        <time>2020-07-07T21:52:33.518Z</time>
      </trkpt>
      <trkpt lat="45.6535" lon="5.9813">
        <ele>1388.6378173828</ele>
        <time>2020-07-07T21:52:44.815Z</time>
      </trkpt>
      <trkpt lat="45.65368" lon="5.98118">
        <ele>1390.1416015625</ele>
        <time>2020-07-07T21:52:56.115Z</time>
      </trkpt>
      <trkpt lat="45.65368" lon="5.98118">
        <ele>1390.1416015625</ele>
        <time>2020-07-07T21:53:07.415Z</time>
      </trkpt>
      <trkpt lat="45.65454" lon="5.98049">
        <ele>1391.1879882812</ele>
        <time>2020-07-07T21:53:18.731Z</time>
      </trkpt>
      <trkpt lat="45.65509" lon="5.98012">
        <ele>1397.3330078125</ele>
        <time>2020-07-07T21:53:30.057Z</time>
      </trkpt>
      <trkpt lat="45.65662" lon="5.97973">
        <ele>1400.0511474609</ele>
        <time>2020-07-07T21:53:41.408Z</time>
      </trkpt>
      <trkpt lat="45.65755" lon="5.97932">
        <ele>1404.5994873047</ele>
        <time>2020-07-07T21:53:52.774Z</time>
      </trkpt>
      <trkpt lat="45.65895" lon="5.97916">
        <ele>1406.3931884766</ele>
        <time>2020-07-07T21:54:04.163Z</time>
      </trkpt>
      <trkpt lat="45.66008" lon="5.97882">
        <ele>1407.0096435547</ele>
        <time>2020-07-07T21:54:15.570Z</time>
      </trkpt>
      <trkpt lat="45.66122" lon="5.97906">
        <ele>1402.9842529297</ele>
        <time>2020-07-07T21:54:26.996Z</time>
      </trkpt>
      <trkpt lat="45.66165" lon="5.97913">
        <ele>1402.1522216797</ele>
        <time>2020-07-07T21:54:38.429Z</time>
      </trkpt>
      <trkpt lat="45.66165" lon="5.97913">
        <ele>1402.1524658203</ele>
        <time>2020-07-07T21:54:49.862Z</time>
      </trkpt>
      <trkpt lat="45.66261" lon="5.97926">
        <ele>1402.1768798828</ele>
        <time>2020-07-07T21:55:01.310Z</time>
      </trkpt>
      <trkpt lat="45.66359" lon="5.97929">
        <ele>1408.4305419922</ele>
        <time>2020-07-07T21:55:12.774Z</time>
      </trkpt>
      <trkpt lat="45.66411" lon="5.97946">
        <ele>1409.3531494141</ele>
        <time>2020-07-07T21:55:24.246Z</time>
      </trkpt>
      <trkpt lat="45.66513" lon="5.9795">
        <ele>1412.8707275391</ele>
        <time>2020-07-07T21:55:35.735Z</time>
      </trkpt>
      <trkpt lat="45.66541" lon="5.97945">
        <ele>1413.4964599609</ele>
        <time>2020-07-07T21:55:47.228Z</time>
      </trkpt>
      <trkpt lat="45.66582" lon="5.97894">
        <ele>1417.2604980469</ele>
        <time>2020-07-07T21:55:58.730Z</time>
      </trkpt>
      <trkpt lat="45.66688" lon="5.97835">
        <ele>1427.3286132812</ele>
        <time>2020-07-07T21:56:10.250Z</time>
      </trkpt>
      <trkpt lat="45.66729" lon="5.97789">
        <ele>1429.6748046875</ele>
        <time>2020-07-07T21:56:21.778Z</time>
      </trkpt>
      <trkpt lat="45.66779" lon="5.97774">
        <ele>1428.6104736328</ele>
        <time>2020-07-07T21:56:33.315Z</time>
      </trkpt>
      <trkpt lat="45.66786" lon="5.97762">
        <ele>1428.1213378906</ele>
        <time>2020-07-07T21:56:44.853Z</time>
      </trkpt>
      <trkpt lat="45.66778" lon="5.97703">
        <ele>1431.455078125</ele>
        <time>2020-07-07T21:56:56.398Z</time>
      </trkpt>
      <trkpt lat="45.66782" lon="5.97663">
        <ele>1431.0700683594</ele>
        <time>2020-07-07T21:57:07.948Z</time>
      </trkpt>
      <trkpt lat="45.66823" lon="5.97549">
        <ele>1434.5993652344</ele>
        <time>2020-07-07T21:57:19.512Z</time>
      </trkpt>
      <trkpt lat="45.66852" lon="5.97446">
        <ele>1438.5821533203</ele>
        <time>2020-07-07T21:57:31.088Z</time>
      </trkpt>
      <trkpt lat="45.66874" lon="5.97409">
        <ele>1437.7457275391</ele>
        <time>2020-07-07T21:57:42.670Z</time>
      </trkpt>
      <trkpt lat="45.66895" lon="5.97402">
        <ele>1436.92578125</ele>
        <time>2020-07-07T21:57:54.255Z</time>
      </trkpt>
      <trkpt lat="45.66943" lon="5.97334">
        <ele>1441.6528320312</ele>
        <time>2020-07-07T21:58:05.851Z</time>
      </trkpt>
      <trkpt lat="45.67004" lon="5.97318">
        <ele>1444.4952392578</ele>
        <time>2020-07-07T21:58:17.457Z</time>
      </trkpt>
      <trkpt lat="45.67098" lon="5.97267">
        <ele>1455.2165527344</ele>
        <time>2020-07-07T21:58:29.079Z</time>
      </trkpt>
      <trkpt lat="45.67124" lon="5.9726">
        <ele>1455.1395263672</ele>
        <time>2020-07-07T21:58:40.705Z</time>
      </trkpt>
      <trkpt lat="45.67166" lon="5.97261">
        <ele>1452.9190673828</ele>
        <time>2020-07-07T21:58:52.338Z</time>
      </trkpt>
      <trkpt lat="45.67182" lon="5.97271">
        <ele>1452.8804931641</ele>
        <time>2020-07-07T21:59:03.974Z</time>
      </trkpt>
      <trkpt lat="45.67245" lon="5.97373">
        <ele>1462.1483154297</ele>
        <time>2020-07-07T21:59:15.625Z</time>
      </trkpt>
      <trkpt lat="45.6732" lon="5.97459">
        <ele>1466.1810302734</ele>
        <time>2020-07-07T21:59:27.292Z</time>
      </trkpt>
      <trkpt lat="45.67336" lon="5.97503">
        <ele>1474.9560546875</ele>
        <time>2020-07-07T21:59:38.964Z</time>
      </trkpt>
      <trkpt lat="45.67336" lon="5.97503">
        <ele>1474.9558105469</ele>
        <time>2020-07-07T21:59:50.636Z</time>
      </trkpt>
      <trkpt lat="45.67362" lon="5.9752">
        <ele>1477.8394775391</ele>
        <time>2020-07-07T22:00:02.313Z</time>
      </trkpt>
      <trkpt lat="45.67429" lon="5.9752">
        <ele>1471.1661376953</ele>
        <time>2020-07-07T22:00:14.000Z</time>
      </trkpt>
      <trkpt lat="45.67492" lon="5.97606">
        <ele>1478.8375244141</ele>
        <time>2020-07-07T22:00:25.701Z</time>
      </trkpt>
      <trkpt lat="45.67528" lon="5.97627">
        <ele>1475.4134521484</ele>
        <time>2020-07-07T22:00:37.409Z</time>
      </trkpt>
      <trkpt lat="45.67586" lon="5.97644">
        <ele>1467.4761962891</ele>
        <time>2020-07-07T22:00:49.126Z</time>
      </trkpt>
      <trkpt lat="45.67586" lon="5.97644">
        <ele>1467.4747314453</ele>
        <time>2020-07-07T22:01:00.843Z</time>
      </trkpt>
      <trkpt lat="45.67599" lon="5.97655">
        <ele>1465.5710449219</ele>
        <time>2020-07-07T22:01:12.562Z</time>
      </trkpt>
      <trkpt lat="45.67615" lon="5.97688">
        <ele>1463.6658935547</ele>
        <time>2020-07-07T22:01:24.286Z</time>
      </trkpt>
      <trkpt lat="45.67627" lon="5.97747">
        <ele>1464.0239257812</ele>
        <time>2020-07-07T22:01:36.017Z</time>
      </trkpt>
      <trkpt lat="45.67627" lon="5.97747">
        <ele>1464.0229492188</ele>
        <time>2020-07-07T22:01:47.748Z</time>
      </trkpt>
      <trkpt lat="45.67641" lon="5.97827">
        <ele>1469.9221191406</ele>
        <time>2020-07-07T22:01:59.488Z</time>
      </trkpt>
      <trkpt lat="45.67694" lon="5.97836">
        <ele>1463.8543701172</ele>
        <time>2020-07-07T22:02:11.237Z</time>
      </trkpt>
      <trkpt lat="45.67728" lon="5.97854">
        <ele>1461.0854492188</ele>
        <time>2020-07-07T22:02:22.991Z</time>
      </trkpt>
      <trkpt lat="45.67757" lon="5.97906">
        <ele>1463.1040039062</ele>
        <time>2020-07-07T22:02:34.753Z</time>
      </trkpt>
      <trkpt lat="45.67784" lon="5.97937">
        <ele>1460.5682373047</ele>
        <time>2020-07-07T22:02:46.520Z</time>
      </trkpt>
      <trkpt lat="45.67865" lon="5.98006">
        <ele>1460.3854980469</ele>
        <time>2020-07-07T22:02:58.303Z</time>
      </trkpt>
      <trkpt lat="45.67915" lon="5.98054">
        <ele>1463.4534912109</ele>
        <time>2020-07-07T22:03:10.095Z</time>
      </trkpt>
      <trkpt lat="45.67932" lon="5.98112">
        <ele>1461.8723144531</ele>
        <time>2020-07-07T22:03:21.894Z</time>
      </trkpt>
      <trkpt lat="45.67932" lon="5.98112">
        <ele>1461.8737792969</ele>
        <time>2020-07-07T22:03:33.693Z</time>
      </trkpt>
      <trkpt lat="45.67947" lon="5.98134">
        <ele>1461.9252929688</ele>
        <time>2020-07-07T22:03:45.496Z</time>
      </trkpt>
      <trkpt lat="45.68004" lon="5.98169">
        <ele>1457.4876708984</ele>
        <time>2020-07-07T22:03:57.309Z</time>
      </trkpt>
      <trkpt lat="45.68073" lon="5.98218">
        <ele>1457.4565429688</ele>
        <time>2020-07-07T22:04:09.134Z</time>
      </trkpt>
      <trkpt lat="45.68115" lon="5.98282">
        <ele>1456.7976074219</ele>
        <time>2020-07-07T22:04:20.969Z</time>
      </trkpt>
      <trkpt lat="45.68248" lon="5.98566">
        <ele>1449.03515625</ele>
        <time>2020-07-07T22:04:32.842Z</time>
      </trkpt>
      <trkpt lat="45.68263" lon="5.98618">
        <ele>1443.0124511719</ele>
        <time>2020-07-07T22:04:44.721Z</time>
      </trkpt>
      <trkpt lat="45.68272" lon="5.98775">
        <ele>1433.6568603516</ele>
        <time>2020-07-07T22:04:56.618Z</time>
      </trkpt>
      <trkpt lat="45.68272" lon="5.98775">
        <ele>1433.658203125</ele>
        <time>2020-07-07T22:05:08.515Z</time>
      </trkpt>
      <trkpt lat="45.68272" lon="5.9887">
        <ele>1433.7963867188</ele>
        <time>2020-07-07T22:05:20.423Z</time>
      </trkpt>
      <trkpt lat="45.68263" lon="5.98905">
        <ele>1433.1177978516</ele>
        <time>2020-07-07T22:05:32.335Z</time>
      </trkpt>
      <trkpt lat="45.6824" lon="5.98948">
        <ele>1431.1297607422</ele>
        <time>2020-07-07T22:05:44.253Z</time>
      </trkpt>
      <trkpt lat="45.6824" lon="5.98948">
        <ele>1431.1292724609</ele>
        <time>2020-07-07T22:05:56.171Z</time>
      </trkpt>
      <trkpt lat="45.68176" lon="5.99071">
        <ele>1418.6163330078</ele>
        <time>2020-07-07T22:06:08.106Z</time>
      </trkpt>
      <trkpt lat="45.68115" lon="5.99185">
        <ele>1413.0723876953</ele>
        <time>2020-07-07T22:06:20.057Z</time>
      </trkpt>
      <trkpt lat="45.68115" lon="5.99185">
        <ele>1413.0723876953</ele>
        <time>2020-07-07T22:06:32.008Z</time>
      </trkpt>
      <trkpt lat="45.68102" lon="5.99225">
        <ele>1410.2313232422</ele>
        <time>2020-07-07T22:06:43.964Z</time>
      </trkpt>
      <trkpt lat="45.68089" lon="5.99518">
        <ele>1389.4765625</ele>
        <time>2020-07-07T22:06:55.953Z</time>
      </trkpt>
      <trkpt lat="45.68049" lon="5.99798">
        <ele>1381.6357421875</ele>
        <time>2020-07-07T22:07:07.974Z</time>
      </trkpt>
      <trkpt lat="45.6803" lon="5.99952">
        <ele>1369.2661132812</ele>
        <time>2020-07-07T22:07:20.013Z</time>
      </trkpt>
      <trkpt lat="45.6804" lon="5.99985">
        <ele>1367.4832763672</ele>
        <time>2020-07-07T22:07:32.056Z</time>
      </trkpt>
      <trkpt lat="45.68093" lon="6.0002">
        <ele>1360.5815429688</ele>
        <time>2020-07-07T22:07:44.108Z</time>
      </trkpt>
      <trkpt lat="45.68226" lon="6.00027">
        <ele>1355.3432617188</ele>
        <time>2020-07-07T22:07:56.181Z</time>
      </trkpt>
      <trkpt lat="45.68226" lon="6.00027">
        <ele>1355.3446044922</ele>
        <time>2020-07-07T22:08:08.254Z</time>
      </trkpt>
      <trkpt lat="45.6826" lon="6.0002">
        <ele>1350.388671875</ele>
        <time>2020-07-07T22:08:20.333Z</time>
      </trkpt>
      <trkpt lat="45.68312" lon="5.9996">
        <ele>1341.2301025391</ele>
        <time>2020-07-07T22:08:32.423Z</time>
      </trkpt>
      <trkpt lat="45.6832" lon="5.99907">
        <ele>1340.1403808594</ele>
        <time>2020-07-07T22:08:44.519Z</time>
      </trkpt>
      <trkpt lat="45.68309" lon="5.99848">
        <ele>1337.9416503906</ele>
        <time>2020-07-07T22:08:56.621Z</time>
      </trkpt>
      <trkpt lat="45.68301" lon="5.99791">
        <ele>1335.4866943359</ele>
        <time>2020-07-07T22:09:08.730Z</time>
      </trkpt>
      <trkpt lat="45.683" lon="5.99673">
        <ele>1329.1541748047</ele>
        <time>2020-07-07T22:09:20.852Z</time>
      </trkpt>
      <trkpt lat="45.68306" lon="5.99626">
        <ele>1330.1743164062</ele>
        <time>2020-07-07T22:09:32.980Z</time>
      </trkpt>
      <trkpt lat="45.68314" lon="5.99601">
        <ele>1335.0529785156</ele>
        <time>2020-07-07T22:09:45.111Z</time>
      </trkpt>
      <trkpt lat="45.68323" lon="5.9959">
        <ele>1337.0224609375</ele>
        <time>2020-07-07T22:09:57.244Z</time>
      </trkpt>
      <trkpt lat="45.68347" lon="5.99587">
        <ele>1338.3666992188</ele>
        <time>2020-07-07T22:10:09.380Z</time>
      </trkpt>
      <trkpt lat="45.68455" lon="5.99692">
        <ele>1315.7045898438</ele>
        <time>2020-07-07T22:10:21.537Z</time>
      </trkpt>
      <trkpt lat="45.68588" lon="5.99778">
        <ele>1320.5922851562</ele>
        <time>2020-07-07T22:10:33.718Z</time>
      </trkpt>
      <trkpt lat="45.6868" lon="5.99896">
        <ele>1299.2357177734</ele>
        <time>2020-07-07T22:10:45.918Z</time>
      </trkpt>
      <trkpt lat="45.68759" lon="5.9996">
        <ele>1289.0552978516</ele>
        <time>2020-07-07T22:10:58.133Z</time>
      </trkpt>
      <trkpt lat="45.68802" lon="5.99976">
        <ele>1287.6497802734</ele>
        <time>2020-07-07T22:11:10.355Z</time>
      </trkpt>
      <trkpt lat="45.68837" lon="5.99988">
        <ele>1288.3278808594</ele>
        <time>2020-07-07T22:11:22.583Z</time>
      </trkpt>
      <trkpt lat="45.68969" lon="6.00108">
        <ele>1271.6214599609</ele>
        <time>2020-07-07T22:11:34.836Z</time>
      </trkpt>
      <trkpt lat="45.69056" lon="6.0023">
        <ele>1258.5089111328</ele>
        <time>2020-07-07T22:11:47.109Z</time>
      </trkpt>
      <trkpt lat="45.69095" lon="6.00261">
        <ele>1247.1409912109</ele>
        <time>2020-07-07T22:11:59.389Z</time>
      </trkpt>
      <trkpt lat="45.69123" lon="6.00264">
        <ele>1242.8029785156</ele>
        <time>2020-07-07T22:12:11.673Z</time>
      </trkpt>
      <trkpt lat="45.69182" lon="6.00242">
        <ele>1241.5014648438</ele>
        <time>2020-07-07T22:12:23.967Z</time>
      </trkpt>
      <trkpt lat="45.69209" lon="6.00222">
        <ele>1242.1239013672</ele>
        <time>2020-07-07T22:12:36.266Z</time>
      </trkpt>
      <trkpt lat="45.69209" lon="6.00222">
        <ele>1242.1248779297</ele>
        <time>2020-07-07T22:12:48.565Z</time>
      </trkpt>
      <trkpt lat="45.6924" lon="6.00196">
        <ele>1250.9396972656</ele>
        <time>2020-07-07T22:13:00.870Z</time>
      </trkpt>
      <trkpt lat="45.69249" lon="6.00197">
        <ele>1253.1558837891</ele>
        <time>2020-07-07T22:13:13.176Z</time>
      </trkpt>
      <trkpt lat="45.69263" lon="6.00212">
        <ele>1253.6042480469</ele>
        <time>2020-07-07T22:13:25.485Z</time>
      </trkpt>
      <trkpt lat="45.69286" lon="6.00284">
        <ele>1244.6192626953</ele>
        <time>2020-07-07T22:13:37.803Z</time>
      </trkpt>
      <trkpt lat="45.69371" lon="6.00436">
        <ele>1240.466796875</ele>
        <time>2020-07-07T22:13:50.143Z</time>
      </trkpt>
      <trkpt lat="45.69389" lon="6.00481">
        <ele>1237.8718261719</ele>
        <time>2020-07-07T22:14:02.488Z</time>
      </trkpt>
      <trkpt lat="45.69491" lon="6.00936">
        <ele>1213.6328125</ele>
        <time>2020-07-07T22:14:14.887Z</time>
      </trkpt>
      <trkpt lat="45.69511" lon="6.01006">
        <ele>1206.8717041016</ele>
        <time>2020-07-07T22:14:27.294Z</time>
      </trkpt>
      <trkpt lat="45.69543" lon="6.01089">
        <ele>1197.0238037109</ele>
        <time>2020-07-07T22:14:39.712Z</time>
      </trkpt>
      <trkpt lat="45.69588" lon="6.01155">
        <ele>1184.2280273438</ele>
        <time>2020-07-07T22:14:52.140Z</time>
      </trkpt>
      <trkpt lat="45.69613" lon="6.01173">
        <ele>1180.7003173828</ele>
        <time>2020-07-07T22:15:04.573Z</time>
      </trkpt>
      <trkpt lat="45.69613" lon="6.01173">
        <ele>1180.7009277344</ele>
        <time>2020-07-07T22:15:17.006Z</time>
      </trkpt>
      <trkpt lat="45.6963" lon="6.01173">
        <ele>1179.4652099609</ele>
        <time>2020-07-07T22:15:29.442Z</time>
      </trkpt>
      <trkpt lat="45.6967" lon="6.01141">
        <ele>1161.5493164062</ele>
        <time>2020-07-07T22:15:41.885Z</time>
      </trkpt>
      <trkpt lat="45.69706" lon="6.01081">
        <ele>1157.2266845703</ele>
        <time>2020-07-07T22:15:54.337Z</time>
      </trkpt>
      <trkpt lat="45.69864" lon="6.00878">
        <ele>1138.7045898438</ele>
        <time>2020-07-07T22:16:06.823Z</time>
      </trkpt>
      <trkpt lat="45.69878" lon="6.00849">
        <ele>1132.6380615234</ele>
        <time>2020-07-07T22:16:19.313Z</time>
      </trkpt>
      <trkpt lat="45.69878" lon="6.00849">
        <ele>1132.6456298828</ele>
        <time>2020-07-07T22:16:31.803Z</time>
      </trkpt>
      <trkpt lat="45.69883" lon="6.00833">
        <ele>1131.0366210938</ele>
        <time>2020-07-07T22:16:44.295Z</time>
      </trkpt>
      <trkpt lat="45.69898" lon="6.0061">
        <ele>1135.1232910156</ele>
        <time>2020-07-07T22:16:56.812Z</time>
      </trkpt>
      <trkpt lat="45.69931" lon="6.00458">
        <ele>1130.3703613281</ele>
        <time>2020-07-07T22:17:09.347Z</time>
      </trkpt>
      <trkpt lat="45.69941" lon="6.00381">
        <ele>1135.0512695312</ele>
        <time>2020-07-07T22:17:21.890Z</time>
      </trkpt>
      <trkpt lat="45.69979" lon="6.00314">
        <ele>1128.4172363281</ele>
        <time>2020-07-07T22:17:34.443Z</time>
      </trkpt>
      <trkpt lat="45.70005" lon="6.00303">
        <ele>1121.9298095703</ele>
        <time>2020-07-07T22:17:47.000Z</time>
      </trkpt>
      <trkpt lat="45.70011" lon="6.00321">
        <ele>1117.2053222656</ele>
        <time>2020-07-07T22:17:59.560Z</time>
      </trkpt>
      <trkpt lat="45.69971" lon="6.00385">
        <ele>1119.7154541016</ele>
        <time>2020-07-07T22:18:12.129Z</time>
      </trkpt>
      <trkpt lat="45.6997" lon="6.00409">
        <ele>1115.9654541016</ele>
        <time>2020-07-07T22:18:24.701Z</time>
      </trkpt>
      <trkpt lat="45.69975" lon="6.00465">
        <ele>1104.7406005859</ele>
        <time>2020-07-07T22:18:37.279Z</time>
      </trkpt>
      <trkpt lat="45.69962" lon="6.00638">
        <ele>1101.4617919922</ele>
        <time>2020-07-07T22:18:49.877Z</time>
      </trkpt>
      <trkpt lat="45.69981" lon="6.00746">
        <ele>1092.6179199219</ele>
        <time>2020-07-07T22:19:02.487Z</time>
      </trkpt>
      <trkpt lat="45.69985" lon="6.00835">
        <ele>1088.9761962891</ele>
        <time>2020-07-07T22:19:15.107Z</time>
      </trkpt>
      <trkpt lat="45.6998" lon="6.00874">
        <ele>1088.0880126953</ele>
        <time>2020-07-07T22:19:27.732Z</time>
      </trkpt>
      <trkpt lat="45.69965" lon="6.00899">
        <ele>1090.1884765625</ele>
        <time>2020-07-07T22:19:40.360Z</time>
      </trkpt>
      <trkpt lat="45.69962" lon="6.00917">
        <ele>1089.9182128906</ele>
        <time>2020-07-07T22:19:52.991Z</time>
      </trkpt>
      <trkpt lat="45.6997" lon="6.0093">
        <ele>1086.2493896484</ele>
        <time>2020-07-07T22:20:05.623Z</time>
      </trkpt>
      <trkpt lat="45.69979" lon="6.0093">
        <ele>1085.013671875</ele>
        <time>2020-07-07T22:20:18.257Z</time>
      </trkpt>
      <trkpt lat="45.70013" lon="6.00848">
        <ele>1083.1257324219</ele>
        <time>2020-07-07T22:20:30.902Z</time>
      </trkpt>
      <trkpt lat="45.70021" lon="6.00783">
        <ele>1081.779296875</ele>
        <time>2020-07-07T22:20:43.554Z</time>
      </trkpt>
      <trkpt lat="45.70028" lon="6.00763">
        <ele>1079.7137451172</ele>
        <time>2020-07-07T22:20:56.208Z</time>
      </trkpt>
      <trkpt lat="45.7006" lon="6.00721">
        <ele>1069.6081542969</ele>
        <time>2020-07-07T22:21:08.869Z</time>
      </trkpt>
      <trkpt lat="45.70078" lon="6.0068">
        <ele>1063.3393554688</ele>
        <time>2020-07-07T22:21:21.536Z</time>
      </trkpt>
      <trkpt lat="45.70067" lon="6.00564">
        <ele>1061.9090576172</ele>
        <time>2020-07-07T22:21:34.216Z</time>
      </trkpt>
      <trkpt lat="45.70069" lon="6.00548">
        <ele>1061.7170410156</ele>
        <time>2020-07-07T22:21:46.898Z</time>
      </trkpt>
      <trkpt lat="45.70113" lon="6.0049">
        <ele>1052.7641601562</ele>
        <time>2020-07-07T22:21:59.589Z</time>
      </trkpt>
      <trkpt lat="45.7016" lon="6.00402">
        <ele>1044.6376953125</ele>
        <time>2020-07-07T22:22:12.293Z</time>
      </trkpt>
      <trkpt lat="45.70164" lon="6.0037">
        <ele>1041.9694824219</ele>
        <time>2020-07-07T22:22:25.000Z</time>
      </trkpt>
      <trkpt lat="45.70147" lon="6.00262">
        <ele>1052.7136230469</ele>
        <time>2020-07-07T22:22:37.720Z</time>
      </trkpt>
      <trkpt lat="45.70154" lon="6.00244">
        <ele>1049.7401123047</ele>
        <time>2020-07-07T22:22:50.442Z</time>
      </trkpt>
      <trkpt lat="45.70172" lon="6.00232">
        <ele>1046.9438476562</ele>
        <time>2020-07-07T22:23:03.167Z</time>
      </trkpt>
      <trkpt lat="45.70219" lon="6.00238">
        <ele>1030.6729736328</ele>
        <time>2020-07-07T22:23:15.900Z</time>
      </trkpt>
      <trkpt lat="45.7027" lon="6.0022">
        <ele>1025.0961914062</ele>
        <time>2020-07-07T22:23:28.641Z</time>
      </trkpt>
      <trkpt lat="45.70306" lon="6.00238">
        <ele>1008.8517456055</ele>
        <time>2020-07-07T22:23:41.388Z</time>
      </trkpt>
      <trkpt lat="45.70339" lon="6.00234">
        <ele>996.28283691406</ele>
        <time>2020-07-07T22:23:54.141Z</time>
      </trkpt>
      <trkpt lat="45.70355" lon="6.00216">
        <ele>995.67858886719</ele>
        <time>2020-07-07T22:24:06.897Z</time>
      </trkpt>
      <trkpt lat="45.70399" lon="6.00072">
        <ele>997.80432128906</ele>
        <time>2020-07-07T22:24:19.671Z</time>
      </trkpt>
      <trkpt lat="45.70399" lon="6.00072">
        <ele>997.80871582031</ele>
        <time>2020-07-07T22:24:32.445Z</time>
      </trkpt>
      <trkpt lat="45.70471" lon="5.99821">
        <ele>990.75128173828</ele>
        <time>2020-07-07T22:24:45.249Z</time>
      </trkpt>
      <trkpt lat="45.70468" lon="5.99759">
        <ele>990.19512939453</ele>
        <time>2020-07-07T22:24:58.060Z</time>
      </trkpt>
      <trkpt lat="45.70451" lon="5.99716">
        <ele>991.49194335938</ele>
        <time>2020-07-07T22:25:10.877Z</time>
      </trkpt>
      <trkpt lat="45.70261" lon="5.99491">
        <ele>983.3603515625</ele>
        <time>2020-07-07T22:25:23.733Z</time>
      </trkpt>
      <trkpt lat="45.70235" lon="5.99439">
        <ele>978.49108886719</ele>
        <time>2020-07-07T22:25:36.596Z</time>
      </trkpt>
      <trkpt lat="45.70221" lon="5.99395">
        <ele>971.59143066406</ele>
        <time>2020-07-07T22:25:49.465Z</time>
      </trkpt>
      <trkpt lat="45.70159" lon="5.99319">
        <ele>971.28637695312</ele>
        <time>2020-07-07T22:26:02.347Z</time>
      </trkpt>
      <trkpt lat="45.70147" lon="5.99297">
        <ele>970.60192871094</ele>
        <time>2020-07-07T22:26:15.232Z</time>
      </trkpt>
      <trkpt lat="45.70154" lon="5.99261">
        <ele>965.4658203125</ele>
        <time>2020-07-07T22:26:28.121Z</time>
      </trkpt>
      <trkpt lat="45.70193" lon="5.99213">
        <ele>951.28973388672</ele>
        <time>2020-07-07T22:26:41.018Z</time>
      </trkpt>
      <trkpt lat="45.70206" lon="5.99183">
        <ele>945.43682861328</ele>
        <time>2020-07-07T22:26:53.919Z</time>
      </trkpt>
      <trkpt lat="45.70231" lon="5.99095">
        <ele>934.54205322266</ele>
        <time>2020-07-07T22:27:06.831Z</time>
      </trkpt>
      <trkpt lat="45.70228" lon="5.9908">
        <ele>936.00952148438</ele>
        <time>2020-07-07T22:27:19.745Z</time>
      </trkpt>
      <trkpt lat="45.70173" lon="5.9905">
        <ele>950.89276123047</ele>
        <time>2020-07-07T22:27:32.668Z</time>
      </trkpt>
      <trkpt lat="45.70167" lon="5.99022">
        <ele>948.98760986328</ele>
        <time>2020-07-07T22:27:45.594Z</time>
      </trkpt>
      <trkpt lat="45.70171" lon="5.98974">
        <ele>942.17181396484</ele>
        <time>2020-07-07T22:27:58.526Z</time>
      </trkpt>
      <trkpt lat="45.70161" lon="5.98936">
        <ele>936.94555664062</ele>
        <time>2020-07-07T22:28:11.462Z</time>
      </trkpt>
      <trkpt lat="45.70006" lon="5.9866">
        <ele>910.53259277344</ele>
        <time>2020-07-07T22:28:24.438Z</time>
      </trkpt>
      <trkpt lat="45.69978" lon="5.98624">
        <ele>909.37408447266</ele>
        <time>2020-07-07T22:28:37.420Z</time>
      </trkpt>
      <trkpt lat="45.69971" lon="5.98561">
        <ele>895.27868652344</ele>
        <time>2020-07-07T22:28:50.409Z</time>
      </trkpt>
      <trkpt lat="45.69941" lon="5.98485">
        <ele>891.68957519531</ele>
        <time>2020-07-07T22:29:03.408Z</time>
      </trkpt>
      <trkpt lat="45.69921" lon="5.98475">
        <ele>894.44427490234</ele>
        <time>2020-07-07T22:29:16.410Z</time>
      </trkpt>
      <trkpt lat="45.69877" lon="5.98482">
        <ele>905.06683349609</ele>
        <time>2020-07-07T22:29:29.419Z</time>
      </trkpt>
      <trkpt lat="45.69866" lon="5.98469">
        <ele>904.49432373047</ele>
        <time>2020-07-07T22:29:42.431Z</time>
      </trkpt>
      <trkpt lat="45.69868" lon="5.98434">
        <ele>899.77026367188</ele>
        <time>2020-07-07T22:29:55.447Z</time>
      </trkpt>
      <trkpt lat="45.69888" lon="5.9839">
        <ele>888.86932373047</ele>
        <time>2020-07-07T22:30:08.469Z</time>
      </trkpt>
      <trkpt lat="45.69888" lon="5.9839">
        <ele>888.87036132812</ele>
        <time>2020-07-07T22:30:21.491Z</time>
      </trkpt>
      <trkpt lat="45.69887" lon="5.98346">
        <ele>888.49060058594</ele>
        <time>2020-07-07T22:30:34.517Z</time>
      </trkpt>
      <trkpt lat="45.69839" lon="5.98203">
        <ele>889.29016113281</ele>
        <time>2020-07-07T22:30:47.561Z</time>
      </trkpt>
      <trkpt lat="45.69849" lon="5.98081">
        <ele>877.71295166016</ele>
        <time>2020-07-07T22:31:00.619Z</time>
      </trkpt>
      <trkpt lat="45.69865" lon="5.9801">
        <ele>874.08819580078</ele>
        <time>2020-07-07T22:31:13.685Z</time>
      </trkpt>
      <trkpt lat="45.69896" lon="5.97985">
        <ele>867.74603271484</ele>
        <time>2020-07-07T22:31:26.757Z</time>
      </trkpt>
      <trkpt lat="45.69933" lon="5.97968">
        <ele>865.25592041016</ele>
        <time>2020-07-07T22:31:39.835Z</time>
      </trkpt>
      <trkpt lat="45.69957" lon="5.97936">
        <ele>863.2734375</ele>
        <time>2020-07-07T22:31:52.919Z</time>
      </trkpt>
      <trkpt lat="45.69964" lon="5.97886">
        <ele>861.34405517578</ele>
        <time>2020-07-07T22:32:06.008Z</time>
      </trkpt>
      <trkpt lat="45.69967" lon="5.97667">
        <ele>848.91760253906</ele>
        <time>2020-07-07T22:32:19.122Z</time>
      </trkpt>
      <trkpt lat="45.69983" lon="5.97589">
        <ele>841.17272949219</ele>
        <time>2020-07-07T22:32:32.245Z</time>
      </trkpt>
      <trkpt lat="45.69984" lon="5.97552">
        <ele>838.69024658203</ele>
        <time>2020-07-07T22:32:45.372Z</time>
      </trkpt>
      <trkpt lat="45.69977" lon="5.97518">
        <ele>835.5107421875</ele>
        <time>2020-07-07T22:32:58.503Z</time>
      </trkpt>
      <trkpt lat="45.69965" lon="5.97492">
        <ele>834.42175292969</ele>
        <time>2020-07-07T22:33:11.638Z</time>
      </trkpt>
      <trkpt lat="45.69899" lon="5.974">
        <ele>831.19616699219</ele>
        <time>2020-07-07T22:33:24.787Z</time>
      </trkpt>
      <trkpt lat="45.69891" lon="5.97375">
        <ele>829.75335693359</ele>
        <time>2020-07-07T22:33:37.939Z</time>
      </trkpt>
      <trkpt lat="45.69882" lon="5.97343">
        <ele>828.21301269531</ele>
        <time>2020-07-07T22:33:51.095Z</time>
      </trkpt>
      <trkpt lat="45.69874" lon="5.97253">
        <ele>819.69647216797</ele>
        <time>2020-07-07T22:34:04.261Z</time>
      </trkpt>
      <trkpt lat="45.69858" lon="5.97186">
        <ele>814.45477294922</ele>
        <time>2020-07-07T22:34:17.435Z</time>
      </trkpt>
      <trkpt lat="45.69813" lon="5.9696">
        <ele>802.66479492188</ele>
        <time>2020-07-07T22:34:30.636Z</time>
      </trkpt>
      <trkpt lat="45.69815" lon="5.96944">
        <ele>801.81335449219</ele>
        <time>2020-07-07T22:34:43.839Z</time>
      </trkpt>
      <trkpt lat="45.69815" lon="5.96944">
        <ele>801.81518554688</ele>
        <time>2020-07-07T22:34:57.042Z</time>
      </trkpt>
      <trkpt lat="45.69844" lon="5.96863">
        <ele>791.21020507812</ele>
        <time>2020-07-07T22:35:10.255Z</time>
      </trkpt>
      <trkpt lat="45.69835" lon="5.96769">
        <ele>786.44256591797</ele>
        <time>2020-07-07T22:35:23.478Z</time>
      </trkpt>
      <trkpt lat="45.69817" lon="5.96713">
        <ele>786.02935791016</ele>
        <time>2020-07-07T22:35:36.708Z</time>
      </trkpt>
      <trkpt lat="45.69746" lon="5.96645">
        <ele>787.88653564453</ele>
        <time>2020-07-07T22:35:49.952Z</time>
      </trkpt>
      <trkpt lat="45.69743" lon="5.96628">
        <ele>785.00067138672</ele>
        <time>2020-07-07T22:36:03.198Z</time>
      </trkpt>
      <trkpt lat="45.69747" lon="5.96619">
        <ele>782.02716064453</ele>
        <time>2020-07-07T22:36:16.445Z</time>
      </trkpt>
      <trkpt lat="45.69821" lon="5.96612">
        <ele>770.64031982422</ele>
        <time>2020-07-07T22:36:29.704Z</time>
      </trkpt>
      <trkpt lat="45.69905" lon="5.96633">
        <ele>762.67077636719</ele>
        <time>2020-07-07T22:36:42.977Z</time>
      </trkpt>
      <trkpt lat="45.69905" lon="5.96633">
        <ele>762.67144775391</ele>
        <time>2020-07-07T22:36:56.250Z</time>
      </trkpt>
      <trkpt lat="45.70005" lon="5.96663">
        <ele>754.94287109375</ele>
        <time>2020-07-07T22:37:09.539Z</time>
      </trkpt>
      <trkpt lat="45.70057" lon="5.96675">
        <ele>749.67736816406</ele>
        <time>2020-07-07T22:37:22.836Z</time>
      </trkpt>
      <trkpt lat="45.70078" lon="5.96697">
        <ele>746.03448486328</ele>
        <time>2020-07-07T22:37:36.138Z</time>
      </trkpt>
      <trkpt lat="45.70086" lon="5.9672">
        <ele>744.65551757812</ele>
        <time>2020-07-07T22:37:49.442Z</time>
      </trkpt>
      <trkpt lat="45.70093" lon="5.96768">
        <ele>744.52166748047</ele>
        <time>2020-07-07T22:38:02.752Z</time>
      </trkpt>
      <trkpt lat="45.70105" lon="5.96794">
        <ele>742.66644287109</ele>
        <time>2020-07-07T22:38:16.066Z</time>
      </trkpt>
      <trkpt lat="45.70148" lon="5.9684">
        <ele>737.90600585938</ele>
        <time>2020-07-07T22:38:29.388Z</time>
      </trkpt>
      <trkpt lat="45.70317" lon="5.96889">
        <ele>719.64575195312</ele>
        <time>2020-07-07T22:38:42.738Z</time>
      </trkpt>
      <trkpt lat="45.70317" lon="5.96889">
        <ele>719.64709472656</ele>
        <time>2020-07-07T22:38:56.088Z</time>
      </trkpt>
      <trkpt lat="45.70353" lon="5.96899">
        <ele>714.7744140625</ele>
        <time>2020-07-07T22:39:09.444Z</time>
      </trkpt>
      <trkpt lat="45.70382" lon="5.96918">
        <ele>711.64642333984</ele>
        <time>2020-07-07T22:39:22.805Z</time>
      </trkpt>
      <trkpt lat="45.70499" lon="5.9703">
        <ele>701.35522460938</ele>
        <time>2020-07-07T22:39:36.188Z</time>
      </trkpt>
      <trkpt lat="45.7061" lon="5.97157">
        <ele>691.83386230469</ele>
        <time>2020-07-07T22:39:49.594Z</time>
      </trkpt>
      <trkpt lat="45.70626" lon="5.97154">
        <ele>687.50671386719</ele>
        <time>2020-07-07T22:40:03.003Z</time>
      </trkpt>
      <trkpt lat="45.70631" lon="5.97137">
        <ele>683.80084228516</ele>
        <time>2020-07-07T22:40:16.414Z</time>
      </trkpt>
      <trkpt lat="45.70628" lon="5.97008">
        <ele>676.08850097656</ele>
        <time>2020-07-07T22:40:29.839Z</time>
      </trkpt>
      <trkpt lat="45.70641" lon="5.96959">
        <ele>671.76983642578</ele>
        <time>2020-07-07T22:40:43.270Z</time>
      </trkpt>
      <trkpt lat="45.70641" lon="5.96959">
        <ele>671.77081298828</ele>
        <time>2020-07-07T22:40:56.701Z</time>
      </trkpt>
      <trkpt lat="45.70665" lon="5.96868">
        <ele>664.99615478516</ele>
        <time>2020-07-07T22:41:10.143Z</time>
      </trkpt>
      <trkpt lat="45.70669" lon="5.96855">
        <ele>664.30102539062</ele>
        <time>2020-07-07T22:41:23.587Z</time>
      </trkpt>
      <trkpt lat="45.70677" lon="5.96794">
        <ele>661.29370117188</ele>
        <time>2020-07-07T22:41:37.038Z</time>
      </trkpt>
      <trkpt lat="45.70678" lon="5.96787">
        <ele>660.77880859375</ele>
        <time>2020-07-07T22:41:50.489Z</time>
      </trkpt>
      <trkpt lat="45.70671" lon="5.96707">
        <ele>658.11187744141</ele>
        <time>2020-07-07T22:42:03.949Z</time>
      </trkpt>
      <trkpt lat="45.70669" lon="5.96683">
        <ele>658.06127929688</ele>
        <time>2020-07-07T22:42:17.412Z</time>
      </trkpt>
      <trkpt lat="45.70698" lon="5.96609">
        <ele>652.85125732422</ele>
        <time>2020-07-07T22:42:30.885Z</time>
      </trkpt>
      <trkpt lat="45.70736" lon="5.96549">
        <ele>647.54028320312</ele>
        <time>2020-07-07T22:42:44.367Z</time>
      </trkpt>
      <trkpt lat="45.70752" lon="5.96507">
        <ele>643.09826660156</ele>
        <time>2020-07-07T22:42:57.854Z</time>
      </trkpt>
      <trkpt lat="45.70818" lon="5.96633">
        <ele>643.63653564453</ele>
        <time>2020-07-07T22:43:11.359Z</time>
      </trkpt>
      <trkpt lat="45.70888" lon="5.96749">
        <ele>643.23760986328</ele>
        <time>2020-07-07T22:43:24.881Z</time>
      </trkpt>
      <trkpt lat="45.70906" lon="5.96793">
        <ele>642.46203613281</ele>
        <time>2020-07-07T22:43:38.409Z</time>
      </trkpt>
      <trkpt lat="45.70906" lon="5.96793">
        <ele>642.46166992188</ele>
        <time>2020-07-07T22:43:51.937Z</time>
      </trkpt>
      <trkpt lat="45.70949" lon="5.96899">
        <ele>636.87908935547</ele>
        <time>2020-07-07T22:44:05.478Z</time>
      </trkpt>
      <trkpt lat="45.70973" lon="5.97019">
        <ele>634.13861083984</ele>
        <time>2020-07-07T22:44:19.033Z</time>
      </trkpt>
      <trkpt lat="45.70973" lon="5.97019">
        <ele>634.13983154297</ele>
        <time>2020-07-07T22:44:32.588Z</time>
      </trkpt>
      <trkpt lat="45.70991" lon="5.97084">
        <ele>634.19409179688</ele>
        <time>2020-07-07T22:44:46.151Z</time>
      </trkpt>
      <trkpt lat="45.71006" lon="5.97118">
        <ele>633.18902587891</ele>
        <time>2020-07-07T22:44:59.719Z</time>
      </trkpt>
      <trkpt lat="45.71012" lon="5.97129">
        <ele>632.69989013672</ele>
        <time>2020-07-07T22:45:13.288Z</time>
      </trkpt>
      <trkpt lat="45.71064" lon="5.97231">
        <ele>629.048828125</ele>
        <time>2020-07-07T22:45:26.871Z</time>
      </trkpt>
      <trkpt lat="45.71099" lon="5.97297">
        <ele>627.15655517578</ele>
        <time>2020-07-07T22:45:40.464Z</time>
      </trkpt>
      <trkpt lat="45.71194" lon="5.97467">
        <ele>623.90887451172</ele>
        <time>2020-07-07T22:45:54.081Z</time>
      </trkpt>
      <trkpt lat="45.712" lon="5.975">
        <ele>622.53820800781</ele>
        <time>2020-07-07T22:46:07.702Z</time>
      </trkpt>
      <trkpt lat="45.71184" lon="5.9757">
        <ele>624.89630126953</ele>
        <time>2020-07-07T22:46:21.331Z</time>
      </trkpt>
      <trkpt lat="45.71153" lon="5.97623">
        <ele>627.46911621094</ele>
        <time>2020-07-07T22:46:34.968Z</time>
      </trkpt>
      <trkpt lat="45.71089" lon="5.97677">
        <ele>641.10693359375</ele>
        <time>2020-07-07T22:46:48.617Z</time>
      </trkpt>
      <trkpt lat="45.7108" lon="5.97697">
        <ele>641.82989501953</ele>
        <time>2020-07-07T22:47:02.268Z</time>
      </trkpt>
      <trkpt lat="45.71094" lon="5.97725">
        <ele>640.20556640625</ele>
        <time>2020-07-07T22:47:15.923Z</time>
      </trkpt>
      <trkpt lat="45.71104" lon="5.97729">
        <ele>639.89660644531</ele>
        <time>2020-07-07T22:47:29.580Z</time>
      </trkpt>
      <trkpt lat="45.71121" lon="5.9772">
        <ele>637.54339599609</ele>
        <time>2020-07-07T22:47:43.240Z</time>
      </trkpt>
      <trkpt lat="45.71197" lon="5.97727">
        <ele>631.27966308594</ele>
        <time>2020-07-07T22:47:56.912Z</time>
      </trkpt>
      <trkpt lat="45.71224" lon="5.9774">
        <ele>630.78436279297</ele>
        <time>2020-07-07T22:48:10.589Z</time>
      </trkpt>
      <trkpt lat="45.71305" lon="5.97823">
        <ele>639.31750488281</ele>
        <time>2020-07-07T22:48:24.282Z</time>
      </trkpt>
      <trkpt lat="45.71345" lon="5.97947">
        <ele>644.25744628906</ele>
        <time>2020-07-07T22:48:37.990Z</time>
      </trkpt>
      <trkpt lat="45.71344" lon="5.98016">
        <ele>651.52886962891</ele>
        <time>2020-07-07T22:48:51.706Z</time>
      </trkpt>
      <trkpt lat="45.71352" lon="5.98038">
        <ele>652.30126953125</ele>
        <time>2020-07-07T22:49:05.424Z</time>
      </trkpt>
      <trkpt lat="45.71368" lon="5.9804">
        <ele>651.82495117188</ele>
        <time>2020-07-07T22:49:19.145Z</time>
      </trkpt>
      <trkpt lat="45.7138" lon="5.98031">
        <ele>648.97631835938</ele>
        <time>2020-07-07T22:49:32.868Z</time>
      </trkpt>
      <trkpt lat="45.71418" lon="5.97938">
        <ele>636.45153808594</ele>
        <time>2020-07-07T22:49:46.603Z</time>
      </trkpt>
      <trkpt lat="45.71465" lon="5.97887">
        <ele>628.54931640625</ele>
        <time>2020-07-07T22:50:00.348Z</time>
      </trkpt>
      <trkpt lat="45.7155" lon="5.97915">
        <ele>632.20440673828</ele>
        <time>2020-07-07T22:50:14.107Z</time>
      </trkpt>
      <trkpt lat="45.7158" lon="5.97937">
        <ele>631.61395263672</ele>
        <time>2020-07-07T22:50:27.871Z</time>
      </trkpt>
      <trkpt lat="45.71684" lon="5.98031">
        <ele>631.24017333984</ele>
        <time>2020-07-07T22:50:41.655Z</time>
      </trkpt>
      <trkpt lat="45.71743" lon="5.98048">
        <ele>628.41522216797</ele>
        <time>2020-07-07T22:50:55.448Z</time>
      </trkpt>
      <trkpt lat="45.71743" lon="5.98048">
        <ele>628.41583251953</ele>
        <time>2020-07-07T22:51:09.241Z</time>
      </trkpt>
      <trkpt lat="45.71826" lon="5.98064">
        <ele>623.52239990234</ele>
        <time>2020-07-07T22:51:23.048Z</time>
      </trkpt>
      <trkpt lat="45.71894" lon="5.98095">
        <ele>620.25122070312</ele>
        <time>2020-07-07T22:51:36.866Z</time>
      </trkpt>
      <trkpt lat="45.71963" lon="5.98115">
        <ele>616.72796630859</ele>
        <time>2020-07-07T22:51:50.695Z</time>
      </trkpt>
      <trkpt lat="45.72011" lon="5.98148">
        <ele>616.68426513672</ele>
        <time>2020-07-07T22:52:04.533Z</time>
      </trkpt>
      <trkpt lat="45.72142" lon="5.98174">
        <ele>615.53277587891</ele>
        <time>2020-07-07T22:52:18.392Z</time>
      </trkpt>
      <trkpt lat="45.72205" lon="5.98191">
        <ele>609.97045898438</ele>
        <time>2020-07-07T22:52:32.261Z</time>
      </trkpt>
      <trkpt lat="45.72254" lon="5.98225">
        <ele>608.15295410156</ele>
        <time>2020-07-07T22:52:46.139Z</time>
      </trkpt>
      <trkpt lat="45.72264" lon="5.98255">
        <ele>609.14343261719</ele>
        <time>2020-07-07T22:53:00.021Z</time>
      </trkpt>
      <trkpt lat="45.7226" lon="5.98274">
        <ele>610.29840087891</ele>
        <time>2020-07-07T22:53:13.905Z</time>
      </trkpt>
      <trkpt lat="45.72246" lon="5.98288">
        <ele>611.30200195312</ele>
        <time>2020-07-07T22:53:27.792Z</time>
      </trkpt>
      <trkpt lat="45.72166" lon="5.98385">
        <ele>617.09991455078</ele>
        <time>2020-07-07T22:53:41.696Z</time>
      </trkpt>
      <trkpt lat="45.72144" lon="5.98488">
        <ele>625.44055175781</ele>
        <time>2020-07-07T22:53:55.612Z</time>
      </trkpt>
      <trkpt lat="45.72341" lon="5.9874">
        <ele>631.67535400391</ele>
        <time>2020-07-07T22:54:09.570Z</time>
      </trkpt>
      <trkpt lat="45.72362" lon="5.98851">
        <ele>632.00854492188</ele>
        <time>2020-07-07T22:54:23.541Z</time>
      </trkpt>
      <trkpt lat="45.72363" lon="5.98888">
        <ele>631.25335693359</ele>
        <time>2020-07-07T22:54:37.516Z</time>
      </trkpt>
      <trkpt lat="45.72341" lon="5.9899">
        <ele>632.05004882812</ele>
        <time>2020-07-07T22:54:51.503Z</time>
      </trkpt>
      <trkpt lat="45.72339" lon="5.99037">
        <ele>632.57922363281</ele>
        <time>2020-07-07T22:55:05.495Z</time>
      </trkpt>
      <trkpt lat="45.72369" lon="5.99218">
        <ele>630.00891113281</ele>
        <time>2020-07-07T22:55:19.508Z</time>
      </trkpt>
      <trkpt lat="45.72378" lon="5.99292">
        <ele>626.57495117188</ele>
        <time>2020-07-07T22:55:33.530Z</time>
      </trkpt>
      <trkpt lat="45.72355" lon="5.99374">
        <ele>627.86114501953</ele>
        <time>2020-07-07T22:55:47.561Z</time>
      </trkpt>
      <trkpt lat="45.72308" lon="5.99536">
        <ele>630.75061035156</ele>
        <time>2020-07-07T22:56:01.612Z</time>
      </trkpt>
      <trkpt lat="45.72288" lon="5.99584">
        <ele>631.33380126953</ele>
        <time>2020-07-07T22:56:15.669Z</time>
      </trkpt>
      <trkpt lat="45.72288" lon="5.99584">
        <ele>631.33349609375</ele>
        <time>2020-07-07T22:56:29.726Z</time>
      </trkpt>
      <trkpt lat="45.7228" lon="5.99604">
        <ele>630.67730712891</ele>
        <time>2020-07-07T22:56:43.786Z</time>
      </trkpt>
      <trkpt lat="45.72278" lon="5.99634">
        <ele>630.16143798828</ele>
        <time>2020-07-07T22:56:57.849Z</time>
      </trkpt>
      <trkpt lat="45.72309" lon="5.99713">
        <ele>621.46197509766</ele>
        <time>2020-07-07T22:57:11.923Z</time>
      </trkpt>
      <trkpt lat="45.72304" lon="5.99743">
        <ele>618.66967773438</ele>
        <time>2020-07-07T22:57:26.000Z</time>
      </trkpt>
      <trkpt lat="45.72204" lon="5.99763">
        <ele>619.47186279297</ele>
        <time>2020-07-07T22:57:40.093Z</time>
      </trkpt>
      <trkpt lat="45.72175" lon="5.99799">
        <ele>613.96087646484</ele>
        <time>2020-07-07T22:57:54.192Z</time>
      </trkpt>
      <trkpt lat="45.72083" lon="5.99857">
        <ele>613.74224853516</ele>
        <time>2020-07-07T22:58:08.307Z</time>
      </trkpt>
      <trkpt lat="45.72044" lon="5.99901">
        <ele>608.51708984375</ele>
        <time>2020-07-07T22:58:22.430Z</time>
      </trkpt>
      <trkpt lat="45.7203" lon="5.99936">
        <ele>606.86944580078</ele>
        <time>2020-07-07T22:58:36.558Z</time>
      </trkpt>
      <trkpt lat="45.72055" lon="6.00067">
        <ele>604.45684814453</ele>
        <time>2020-07-07T22:58:50.701Z</time>
      </trkpt>
      <trkpt lat="45.72056" lon="6.00071">
        <ele>604.611328125</ele>
        <time>2020-07-07T22:59:04.845Z</time>
      </trkpt>
      <trkpt lat="45.72069" lon="6.0014">
        <ele>607.70190429688</ele>
        <time>2020-07-07T22:59:18.997Z</time>
      </trkpt>
      <trkpt lat="45.72102" lon="6.00189">
        <ele>613.89312744141</ele>
        <time>2020-07-07T22:59:33.156Z</time>
      </trkpt>
      <trkpt lat="45.72205" lon="6.00274">
        <ele>623.80432128906</ele>
        <time>2020-07-07T22:59:47.334Z</time>
      </trkpt>
      <trkpt lat="45.72205" lon="6.00274">
        <ele>623.80377197266</ele>
        <time>2020-07-07T23:00:01.512Z</time>
      </trkpt>
      <trkpt lat="45.72305" lon="6.00357">
        <ele>627.98272705078</ele>
        <time>2020-07-07T23:00:15.709Z</time>
      </trkpt>
      <trkpt lat="45.72319" lon="6.00379">
        <ele>632.78411865234</ele>
        <time>2020-07-07T23:00:29.909Z</time>
      </trkpt>
      <trkpt lat="45.72333" lon="6.00425">
        <ele>641.17211914062</ele>
        <time>2020-07-07T23:00:44.115Z</time>
      </trkpt>
      <trkpt lat="45.72322" lon="6.00471">
        <ele>651.90777587891</ele>
        <time>2020-07-07T23:00:58.326Z</time>
      </trkpt>
      <trkpt lat="45.7233" lon="6.00497">
        <ele>655.33380126953</ele>
        <time>2020-07-07T23:01:12.540Z</time>
      </trkpt>
      <trkpt lat="45.72349" lon="6.005">
        <ele>654.40698242188</ele>
        <time>2020-07-07T23:01:26.757Z</time>
      </trkpt>
      <trkpt lat="45.72397" lon="6.00481">
        <ele>648.38824462891</ele>
        <time>2020-07-07T23:01:40.982Z</time>
      </trkpt>
      <trkpt lat="45.7243" lon="6.00447">
        <ele>642.73065185547</ele>
        <time>2020-07-07T23:01:55.214Z</time>
      </trkpt>
      <trkpt lat="45.72451" lon="6.00432">
        <ele>642.79510498047</ele>
        <time>2020-07-07T23:02:09.450Z</time>
      </trkpt>
      <trkpt lat="45.72468" lon="6.00435">
        <ele>644.80322265625</ele>
        <time>2020-07-07T23:02:23.688Z</time>
      </trkpt>
      <trkpt lat="45.7253" lon="6.00517">
        <ele>647.67596435547</ele>
        <time>2020-07-07T23:02:37.940Z</time>
      </trkpt>
      <trkpt lat="45.72559" lon="6.00538">
        <ele>648.16571044922</ele>
        <time>2020-07-07T23:02:52.197Z</time>
      </trkpt>
      <trkpt lat="45.72637" lon="6.00567">
        <ele>645.70642089844</ele>
        <time>2020-07-07T23:03:06.467Z</time>
      </trkpt>
      <trkpt lat="45.72762" lon="6.00609">
        <ele>643.84869384766</ele>
        <time>2020-07-07T23:03:20.758Z</time>
      </trkpt>
      <trkpt lat="45.72943" lon="6.00637">
        <ele>640.64135742188</ele>
        <time>2020-07-07T23:03:35.078Z</time>
      </trkpt>
      <trkpt lat="45.72981" lon="6.00631">
        <ele>639.36608886719</ele>
        <time>2020-07-07T23:03:49.404Z</time>
      </trkpt>
      <trkpt lat="45.73009" lon="6.00614">
        <ele>638.72247314453</ele>
        <time>2020-07-07T23:04:03.735Z</time>
      </trkpt>
      <trkpt lat="45.73042" lon="6.00571">
        <ele>637.20599365234</ele>
        <time>2020-07-07T23:04:18.073Z</time>
      </trkpt>
      <trkpt lat="45.73068" lon="6.00542">
        <ele>636.08435058594</ele>
        <time>2020-07-07T23:04:32.416Z</time>
      </trkpt>
      <trkpt lat="45.73126" lon="6.00478">
        <ele>630.95538330078</ele>
        <time>2020-07-07T23:04:46.771Z</time>
      </trkpt>
      <trkpt lat="45.73163" lon="6.0046">
        <ele>627.35314941406</ele>
        <time>2020-07-07T23:05:01.132Z</time>
      </trkpt>
      <trkpt lat="45.73241" lon="6.00448">
        <ele>622.58142089844</ele>
        <time>2020-07-07T23:05:15.506Z</time>
      </trkpt>
      <trkpt lat="45.73304" lon="6.00406">
        <ele>617.54119873047</ele>
        <time>2020-07-07T23:05:29.891Z</time>
      </trkpt>
      <trkpt lat="45.73337" lon="6.00393">
        <ele>615.75732421875</ele>
        <time>2020-07-07T23:05:44.281Z</time>
      </trkpt>
      <trkpt lat="45.73393" lon="6.0039">
        <ele>614.4560546875</ele>
        <time>2020-07-07T23:05:58.680Z</time>
      </trkpt>
      <trkpt lat="45.73423" lon="6.00338">
        <ele>606.80291748047</ele>
        <time>2020-07-07T23:06:13.087Z</time>
      </trkpt>
      <trkpt lat="45.7344" lon="6.00321">
        <ele>605.77307128906</ele>
        <time>2020-07-07T23:06:27.497Z</time>
      </trkpt>
      <trkpt lat="45.7348" lon="6.00281">
        <ele>602.00799560547</ele>
        <time>2020-07-07T23:06:41.915Z</time>
      </trkpt>
      <trkpt lat="45.73517" lon="6.00285">
        <ele>599.66522216797</ele>
        <time>2020-07-07T23:06:56.339Z</time>
      </trkpt>
      <trkpt lat="45.73645" lon="6.00358">
        <ele>596.232421875</ele>
        <time>2020-07-07T23:07:10.785Z</time>
      </trkpt>
      <trkpt lat="45.73666" lon="6.0038">
        <ele>595.49871826172</ele>
        <time>2020-07-07T23:07:25.235Z</time>
      </trkpt>
      <trkpt lat="45.73767" lon="6.00539">
        <ele>597.28045654297</ele>
        <time>2020-07-07T23:07:39.709Z</time>
      </trkpt>
      <trkpt lat="45.73856" lon="6.00586">
        <ele>597.53991699219</ele>
        <time>2020-07-07T23:07:54.198Z</time>
      </trkpt>
      <trkpt lat="45.73856" lon="6.00586">
        <ele>597.53936767578</ele>
        <time>2020-07-07T23:08:08.687Z</time>
      </trkpt>
      <trkpt lat="45.73939" lon="6.00622">
        <ele>595.36456298828</ele>
        <time>2020-07-07T23:08:23.190Z</time>
      </trkpt>
      <trkpt lat="45.73939" lon="6.00622">
        <ele>595.36395263672</ele>
        <time>2020-07-07T23:08:37.693Z</time>
      </trkpt>
      <trkpt lat="45.73962" lon="6.00636">
        <ele>595.00408935547</ele>
        <time>2020-07-07T23:08:52.200Z</time>
      </trkpt>
      <trkpt lat="45.74029" lon="6.00708">
        <ele>593.44055175781</ele>
        <time>2020-07-07T23:09:06.721Z</time>
      </trkpt>
      <trkpt lat="45.74203" lon="6.00849">
        <ele>594.51727294922</ele>
        <time>2020-07-07T23:09:21.274Z</time>
      </trkpt>
      <trkpt lat="45.74301" lon="6.00979">
        <ele>600.36657714844</ele>
        <time>2020-07-07T23:09:35.848Z</time>
      </trkpt>
      <trkpt lat="45.74328" lon="6.01002">
        <ele>602.18505859375</ele>
        <time>2020-07-07T23:09:50.427Z</time>
      </trkpt>
      <trkpt lat="45.74328" lon="6.01002">
        <ele>602.18511962891</ele>
        <time>2020-07-07T23:10:05.006Z</time>
      </trkpt>
      <trkpt lat="45.74345" lon="6.01015">
        <ele>603.32788085938</ele>
        <time>2020-07-07T23:10:19.588Z</time>
      </trkpt>
      <trkpt lat="45.74399" lon="6.01053">
        <ele>605.56964111328</ele>
        <time>2020-07-07T23:10:34.180Z</time>
      </trkpt>
      <trkpt lat="45.74503" lon="6.01088">
        <ele>601.04095458984</ele>
        <time>2020-07-07T23:10:48.789Z</time>
      </trkpt>
      <trkpt lat="45.74526" lon="6.01102">
        <ele>599.88244628906</ele>
        <time>2020-07-07T23:11:03.402Z</time>
      </trkpt>
      <trkpt lat="45.74609" lon="6.01191">
        <ele>603.28955078125</ele>
        <time>2020-07-07T23:11:18.032Z</time>
      </trkpt>
      <trkpt lat="45.74652" lon="6.01223">
        <ele>605.6748046875</ele>
        <time>2020-07-07T23:11:32.669Z</time>
      </trkpt>
      <trkpt lat="45.74723" lon="6.0125">
        <ele>608.39172363281</ele>
        <time>2020-07-07T23:11:47.318Z</time>
      </trkpt>
      <trkpt lat="45.74757" lon="6.01254">
        <ele>612.38433837891</ele>
        <time>2020-07-07T23:12:01.973Z</time>
      </trkpt>
      <trkpt lat="45.74757" lon="6.01254">
        <ele>612.38323974609</ele>
        <time>2020-07-07T23:12:16.628Z</time>
      </trkpt>
      <trkpt lat="45.74757" lon="6.01254">
        <ele>612.38684082031</ele>
        <time>2020-07-07T23:12:31.283Z</time>
      </trkpt>
      <trkpt lat="45.74769" lon="6.01256">
        <ele>613.30419921875</ele>
        <time>2020-07-07T23:12:45.940Z</time>
      </trkpt>
      <trkpt lat="45.7482" lon="6.0123">
        <ele>610.65881347656</ele>
        <time>2020-07-07T23:13:00.605Z</time>
      </trkpt>
      <trkpt lat="45.74855" lon="6.01224">
        <ele>608.28149414062</ele>
        <time>2020-07-07T23:13:15.276Z</time>
      </trkpt>
      <trkpt lat="45.74932" lon="6.0123">
        <ele>599.76037597656</ele>
        <time>2020-07-07T23:13:29.959Z</time>
      </trkpt>
      <trkpt lat="45.74948" lon="6.01245">
        <ele>597.95825195312</ele>
        <time>2020-07-07T23:13:44.645Z</time>
      </trkpt>
      <trkpt lat="45.75052" lon="6.01404">
        <ele>581.65667724609</ele>
        <time>2020-07-07T23:13:59.356Z</time>
      </trkpt>
      <trkpt lat="45.75058" lon="6.01422">
        <ele>581.41717529297</ele>
        <time>2020-07-07T23:14:14.069Z</time>
      </trkpt>
      <trkpt lat="45.75046" lon="6.01464">
        <ele>584.48864746094</ele>
        <time>2020-07-07T23:14:28.787Z</time>
      </trkpt>
      <trkpt lat="45.75048" lon="6.01485">
        <ele>585.14630126953</ele>
        <time>2020-07-07T23:14:43.507Z</time>
      </trkpt>
      <trkpt lat="45.75102" lon="6.01547">
        <ele>581.55352783203</ele>
        <time>2020-07-07T23:14:58.238Z</time>
      </trkpt>
      <trkpt lat="45.7516" lon="6.01608">
        <ele>575.56512451172</ele>
        <time>2020-07-07T23:15:12.981Z</time>
      </trkpt>
      <trkpt lat="45.75237" lon="6.01661">
        <ele>569.82000732422</ele>
        <time>2020-07-07T23:15:27.738Z</time>
      </trkpt>
      <trkpt lat="45.75237" lon="6.01661">
        <ele>569.82049560547</ele>
        <time>2020-07-07T23:15:42.495Z</time>
      </trkpt>
      <trkpt lat="45.75309" lon="6.01662">
        <ele>564.74017333984</ele>
        <time>2020-07-07T23:15:57.263Z</time>
      </trkpt>
      <trkpt lat="45.75333" lon="6.01671">
        <ele>563.81335449219</ele>
        <time>2020-07-07T23:16:12.035Z</time>
      </trkpt>
      <trkpt lat="45.7538" lon="6.01716">
        <ele>566.44409179688</ele>
        <time>2020-07-07T23:16:26.816Z</time>
      </trkpt>
      <trkpt lat="45.75413" lon="6.01736">
        <ele>565.76416015625</ele>
        <time>2020-07-07T23:16:41.603Z</time>
      </trkpt>
      <trkpt lat="45.75517" lon="6.01761">
        <ele>558.19232177734</ele>
        <time>2020-07-07T23:16:56.407Z</time>
      </trkpt>
      <trkpt lat="45.7559" lon="6.01829">
        <ele>559.45709228516</ele>
        <time>2020-07-07T23:17:11.225Z</time>
      </trkpt>
      <trkpt lat="45.75662" lon="6.01879">
        <ele>560.98089599609</ele>
        <time>2020-07-07T23:17:26.056Z</time>
      </trkpt>
      <trkpt lat="45.7575" lon="6.01932">
        <ele>563.63513183594</ele>
        <time>2020-07-07T23:17:40.902Z</time>
      </trkpt>
      <trkpt lat="45.75838" lon="6.01962">
        <ele>561.22503662109</ele>
        <time>2020-07-07T23:17:55.762Z</time>
      </trkpt>
      <trkpt lat="45.75898" lon="6.01999">
        <ele>560.84692382812</ele>
        <time>2020-07-07T23:18:10.633Z</time>
      </trkpt>
      <trkpt lat="45.75943" lon="6.0207">
        <ele>564.97583007812</ele>
        <time>2020-07-07T23:18:25.514Z</time>
      </trkpt>
      <trkpt lat="45.76023" lon="6.02156">
        <ele>563.37634277344</ele>
        <time>2020-07-07T23:18:40.412Z</time>
      </trkpt>
      <trkpt lat="45.76069" lon="6.02232">
        <ele>561.05267333984</ele>
        <time>2020-07-07T23:18:55.321Z</time>
      </trkpt>
      <trkpt lat="45.76069" lon="6.02232">
        <ele>561.05377197266</ele>
        <time>2020-07-07T23:19:10.230Z</time>
      </trkpt>
      <trkpt lat="45.76073" lon="6.0224">
        <ele>560.39617919922</ele>
        <time>2020-07-07T23:19:25.140Z</time>
      </trkpt>
      <trkpt lat="45.76086" lon="6.02248">
        <ele>558.59399414062</ele>
        <time>2020-07-07T23:19:40.052Z</time>
      </trkpt>
      <trkpt lat="45.76097" lon="6.02277">
        <ele>556.37817382812</ele>
        <time>2020-07-07T23:19:54.968Z</time>
      </trkpt>
      <trkpt lat="45.76088" lon="6.02331">
        <ele>556.05419921875</ele>
        <time>2020-07-07T23:20:09.890Z</time>
      </trkpt>
      <trkpt lat="45.76092" lon="6.02389">
        <ele>555.32330322266</ele>
        <time>2020-07-07T23:20:24.819Z</time>
      </trkpt>
      <trkpt lat="45.76119" lon="6.02421">
        <ele>554.39031982422</ele>
        <time>2020-07-07T23:20:39.753Z</time>
      </trkpt>
      <trkpt lat="45.76199" lon="6.02465">
        <ele>555.36151123047</ele>
        <time>2020-07-07T23:20:54.701Z</time>
      </trkpt>
      <trkpt lat="45.76217" lon="6.02552">
        <ele>554.11309814453</ele>
        <time>2020-07-07T23:21:09.659Z</time>
      </trkpt>
      <trkpt lat="45.76272" lon="6.02681">
        <ele>553.77166748047</ele>
        <time>2020-07-07T23:21:24.634Z</time>
      </trkpt>
      <trkpt lat="45.76341" lon="6.02794">
        <ele>551.34875488281</ele>
        <time>2020-07-07T23:21:39.626Z</time>
      </trkpt>
      <trkpt lat="45.76353" lon="6.02809">
        <ele>550.994140625</ele>
        <time>2020-07-07T23:21:54.620Z</time>
      </trkpt>
      <trkpt lat="45.76428" lon="6.02906">
        <ele>551.43487548828</ele>
        <time>2020-07-07T23:22:09.631Z</time>
      </trkpt>
      <trkpt lat="45.76468" lon="6.02956">
        <ele>551.52496337891</ele>
        <time>2020-07-07T23:22:24.650Z</time>
      </trkpt>
      <trkpt lat="45.76487" lon="6.02983">
        <ele>550.62762451172</ele>
        <time>2020-07-07T23:22:39.673Z</time>
      </trkpt>
      <trkpt lat="45.76501" lon="6.03013">
        <ele>549.83392333984</ele>
        <time>2020-07-07T23:22:54.700Z</time>
      </trkpt>
      <trkpt lat="45.76503" lon="6.03026">
        <ele>549.62799072266</ele>
        <time>2020-07-07T23:23:09.729Z</time>
      </trkpt>
      <trkpt lat="45.76499" lon="6.03052">
        <ele>549.42181396484</ele>
        <time>2020-07-07T23:23:24.761Z</time>
      </trkpt>
      <trkpt lat="45.76486" lon="6.03094">
        <ele>550.30310058594</ele>
        <time>2020-07-07T23:23:39.798Z</time>
      </trkpt>
      <trkpt lat="45.76481" lon="6.03147">
        <ele>551.84411621094</ele>
        <time>2020-07-07T23:23:54.841Z</time>
      </trkpt>
      <trkpt lat="45.76484" lon="6.03172">
        <ele>552.41076660156</ele>
        <time>2020-07-07T23:24:09.887Z</time>
      </trkpt>
      <trkpt lat="45.76486" lon="6.03253">
        <ele>554.45465087891</ele>
        <time>2020-07-07T23:24:24.942Z</time>
      </trkpt>
      <trkpt lat="45.76488" lon="6.03317">
        <ele>557.17529296875</ele>
        <time>2020-07-07T23:24:40.004Z</time>
      </trkpt>
      <trkpt lat="45.76489" lon="6.03358">
        <ele>558.45672607422</ele>
        <time>2020-07-07T23:24:55.071Z</time>
      </trkpt>
      <trkpt lat="45.76494" lon="6.03515">
        <ele>564.10290527344</ele>
        <time>2020-07-07T23:25:10.155Z</time>
      </trkpt>
      <trkpt lat="45.76514" lon="6.03644">
        <ele>566.41271972656</ele>
        <time>2020-07-07T23:25:25.254Z</time>
      </trkpt>
      <trkpt lat="45.76519" lon="6.0379">
        <ele>571.33282470703</ele>
        <time>2020-07-07T23:25:40.369Z</time>
      </trkpt>
      <trkpt lat="45.7653" lon="6.03953">
        <ele>575.26940917969</ele>
        <time>2020-07-07T23:25:55.503Z</time>
      </trkpt>
      <trkpt lat="45.76512" lon="6.04059">
        <ele>579.15844726562</ele>
        <time>2020-07-07T23:26:10.649Z</time>
      </trkpt>
      <trkpt lat="45.765" lon="6.04116">
        <ele>578.46868896484</ele>
        <time>2020-07-07T23:26:25.802Z</time>
      </trkpt>
      <trkpt lat="45.76493" lon="6.0415">
        <ele>578.33343505859</ele>
        <time>2020-07-07T23:26:40.959Z</time>
      </trkpt>
      <trkpt lat="45.76493" lon="6.0415">
        <ele>578.33471679688</ele>
        <time>2020-07-07T23:26:56.116Z</time>
      </trkpt>
      <trkpt lat="45.76484" lon="6.04202">
        <ele>578.0419921875</ele>
        <time>2020-07-07T23:27:11.279Z</time>
      </trkpt>
      <trkpt lat="45.76435" lon="6.04354">
        <ele>583.87786865234</ele>
        <time>2020-07-07T23:27:26.460Z</time>
      </trkpt>
      <trkpt lat="45.76418" lon="6.04416">
        <ele>585.58666992188</ele>
        <time>2020-07-07T23:27:41.649Z</time>
      </trkpt>
      <trkpt lat="45.76399" lon="6.04528">
        <ele>589.34387207031</ele>
        <time>2020-07-07T23:27:56.851Z</time>
      </trkpt>
      <trkpt lat="45.76399" lon="6.04724">
        <ele>586.73315429688</ele>
        <time>2020-07-07T23:28:12.075Z</time>
      </trkpt>
      <trkpt lat="45.76376" lon="6.04813">
        <ele>590.50854492188</ele>
        <time>2020-07-07T23:28:27.309Z</time>
      </trkpt>
      <trkpt lat="45.76376" lon="6.04813">
        <ele>590.50982666016</ele>
        <time>2020-07-07T23:28:42.543Z</time>
      </trkpt>
      <trkpt lat="45.76346" lon="6.04916">
        <ele>590.74078369141</ele>
        <time>2020-07-07T23:28:57.790Z</time>
      </trkpt>
      <trkpt lat="45.76326" lon="6.04963">
        <ele>592.72821044922</ele>
        <time>2020-07-07T23:29:13.043Z</time>
      </trkpt>
      <trkpt lat="45.76293" lon="6.05104">
        <ele>598.08050537109</ele>
        <time>2020-07-07T23:29:28.313Z</time>
      </trkpt>
      <trkpt lat="45.76239" lon="6.05236">
        <ele>600.71875</ele>
        <time>2020-07-07T23:29:43.600Z</time>
      </trkpt>
      <trkpt lat="45.76222" lon="6.05265">
        <ele>602.92553710938</ele>
        <time>2020-07-07T23:29:58.891Z</time>
      </trkpt>
      <trkpt lat="45.76141" lon="6.05336">
        <ele>605.99896240234</ele>
        <time>2020-07-07T23:30:14.197Z</time>
      </trkpt>
      <trkpt lat="45.7612" lon="6.05368">
        <ele>609.84851074219</ele>
        <time>2020-07-07T23:30:29.508Z</time>
      </trkpt>
      <trkpt lat="45.76066" lon="6.05513">
        <ele>604.61975097656</ele>
        <time>2020-07-07T23:30:44.838Z</time>
      </trkpt>
      <trkpt lat="45.76046" lon="6.05546">
        <ele>603.20526123047</ele>
        <time>2020-07-07T23:31:00.173Z</time>
      </trkpt>
      <trkpt lat="45.7602" lon="6.05561">
        <ele>603.85131835938</ele>
        <time>2020-07-07T23:31:15.512Z</time>
      </trkpt>
      <trkpt lat="45.75972" lon="6.05559">
        <ele>611.89868164062</ele>
        <time>2020-07-07T23:31:30.859Z</time>
      </trkpt>
      <trkpt lat="45.75938" lon="6.05586">
        <ele>616.34136962891</ele>
        <time>2020-07-07T23:31:46.212Z</time>
      </trkpt>
      <trkpt lat="45.7592" lon="6.05671">
        <ele>612.49621582031</ele>
        <time>2020-07-07T23:32:01.575Z</time>
      </trkpt>
      <trkpt lat="45.75899" lon="6.0574">
        <ele>617.25939941406</ele>
        <time>2020-07-07T23:32:16.946Z</time>
      </trkpt>
      <trkpt lat="45.75899" lon="6.0574">
        <ele>617.26177978516</ele>
        <time>2020-07-07T23:32:32.317Z</time>
      </trkpt>
      <trkpt lat="45.75888" lon="6.05782">
        <ele>621.85723876953</ele>
        <time>2020-07-07T23:32:47.693Z</time>
      </trkpt>
      <trkpt lat="45.75875" lon="6.05798">
        <ele>623.26293945312</ele>
        <time>2020-07-07T23:33:03.072Z</time>
      </trkpt>
      <trkpt lat="45.75763" lon="6.05823">
        <ele>620.84484863281</ele>
        <time>2020-07-07T23:33:18.469Z</time>
      </trkpt>
      <trkpt lat="45.75763" lon="6.05823">
        <ele>620.84454345703</ele>
        <time>2020-07-07T23:33:33.866Z</time>
      </trkpt>
      <trkpt lat="45.75711" lon="6.05854">
        <ele>618.08227539062</ele>
        <time>2020-07-07T23:33:49.272Z</time>
      </trkpt>
      <trkpt lat="45.75617" lon="6.05979">
        <ele>609.87567138672</ele>
        <time>2020-07-07T23:34:04.699Z</time>
      </trkpt>
      <trkpt lat="45.7549" lon="6.06031">
        <ele>609.44165039062</ele>
        <time>2020-07-07T23:34:20.147Z</time>
      </trkpt>
      <trkpt lat="45.75456" lon="6.06059">
        <ele>610.56811523438</ele>
        <time>2020-07-07T23:34:35.601Z</time>
      </trkpt>
      <trkpt lat="45.75456" lon="6.06059">
        <ele>610.56951904297</ele>
        <time>2020-07-07T23:34:51.055Z</time>
      </trkpt>
      <trkpt lat="45.75427" lon="6.06101">
        <ele>612.0556640625</ele>
        <time>2020-07-07T23:35:06.516Z</time>
      </trkpt>
      <trkpt lat="45.75389" lon="6.06138">
        <ele>603.94604492188</ele>
        <time>2020-07-07T23:35:21.984Z</time>
      </trkpt>
      <trkpt lat="45.7529" lon="6.06163">
        <ele>607.09381103516</ele>
        <time>2020-07-07T23:35:37.468Z</time>
      </trkpt>
      <trkpt lat="45.7529" lon="6.06163">
        <ele>607.09796142578</ele>
        <time>2020-07-07T23:35:52.952Z</time>
      </trkpt>
      <trkpt lat="45.75272" lon="6.06182">
        <ele>608.82281494141</ele>
        <time>2020-07-07T23:36:08.440Z</time>
      </trkpt>
      <trkpt lat="45.75243" lon="6.06283">
        <ele>595.16412353516</ele>
        <time>2020-07-07T23:36:23.940Z</time>
      </trkpt>
      <trkpt lat="45.75218" lon="6.06339">
        <ele>596.03326416016</ele>
        <time>2020-07-07T23:36:39.448Z</time>
      </trkpt>
      <trkpt lat="45.75181" lon="6.06392">
        <ele>596.31024169922</ele>
        <time>2020-07-07T23:36:54.964Z</time>
      </trkpt>
      <trkpt lat="45.75101" lon="6.06481">
        <ele>601.140625</ele>
        <time>2020-07-07T23:37:10.496Z</time>
      </trkpt>
      <trkpt lat="45.75065" lon="6.06556">
        <ele>599.17236328125</ele>
        <time>2020-07-07T23:37:26.038Z</time>
      </trkpt>
      <trkpt lat="45.75018" lon="6.06687">
        <ele>599.32891845703</ele>
        <time>2020-07-07T23:37:41.597Z</time>
      </trkpt>
      <trkpt lat="45.74978" lon="6.06736">
        <ele>601.38720703125</ele>
        <time>2020-07-07T23:37:57.164Z</time>
      </trkpt>
      <trkpt lat="45.74942" lon="6.06812">
        <ele>601.47650146484</ele>
        <time>2020-07-07T23:38:12.742Z</time>
      </trkpt>
      <trkpt lat="45.74885" lon="6.0704">
        <ele>602.90789794922</ele>
        <time>2020-07-07T23:38:28.347Z</time>
      </trkpt>
      <trkpt lat="45.74806" lon="6.07219">
        <ele>604.26251220703</ele>
        <time>2020-07-07T23:38:43.975Z</time>
      </trkpt>
      <trkpt lat="45.74818" lon="6.07334">
        <ele>594.01312255859</ele>
        <time>2020-07-07T23:38:59.616Z</time>
      </trkpt>
      <trkpt lat="45.74815" lon="6.07372">
        <ele>592.23669433594</ele>
        <time>2020-07-07T23:39:15.262Z</time>
      </trkpt>
      <trkpt lat="45.74769" lon="6.07498">
        <ele>595.69610595703</ele>
        <time>2020-07-07T23:39:30.924Z</time>
      </trkpt>
      <trkpt lat="45.74757" lon="6.07559">
        <ele>595.61779785156</ele>
        <time>2020-07-07T23:39:46.593Z</time>
      </trkpt>
      <trkpt lat="45.74735" lon="6.07669">
        <ele>590.60101318359</ele>
        <time>2020-07-07T23:40:02.275Z</time>
      </trkpt>
      <trkpt lat="45.74703" lon="6.07771">
        <ele>589.31805419922</ele>
        <time>2020-07-07T23:40:17.969Z</time>
      </trkpt>
      <trkpt lat="45.74704" lon="6.07875">
        <ele>580.23059082031</ele>
        <time>2020-07-07T23:40:33.675Z</time>
      </trkpt>
      <trkpt lat="45.74685" lon="6.08007">
        <ele>583.61584472656</ele>
        <time>2020-07-07T23:40:49.396Z</time>
      </trkpt>
      <trkpt lat="45.74679" lon="6.0811">
        <ele>582.46301269531</ele>
        <time>2020-07-07T23:41:05.129Z</time>
      </trkpt>
      <trkpt lat="45.74659" lon="6.08158">
        <ele>586.89880371094</ele>
        <time>2020-07-07T23:41:20.868Z</time>
      </trkpt>
      <trkpt lat="45.74646" lon="6.08227">
        <ele>583.55877685547</ele>
        <time>2020-07-07T23:41:36.615Z</time>
      </trkpt>
      <trkpt lat="45.74651" lon="6.08313">
        <ele>573.27532958984</ele>
        <time>2020-07-07T23:41:52.371Z</time>
      </trkpt>
      <trkpt lat="45.74644" lon="6.08399">
        <ele>571.09283447266</ele>
        <time>2020-07-07T23:42:08.137Z</time>
      </trkpt>
      <trkpt lat="45.74616" lon="6.08554">
        <ele>573.86987304688</ele>
        <time>2020-07-07T23:42:23.921Z</time>
      </trkpt>
      <trkpt lat="45.74621" lon="6.08628">
        <ele>569.85357666016</ele>
        <time>2020-07-07T23:42:39.713Z</time>
      </trkpt>
      <trkpt lat="45.74646" lon="6.08754">
        <ele>561.73864746094</ele>
        <time>2020-07-07T23:42:55.520Z</time>
      </trkpt>
      <trkpt lat="45.74643" lon="6.08837">
        <ele>559.57641601562</ele>
        <time>2020-07-07T23:43:11.336Z</time>
      </trkpt>
      <trkpt lat="45.74594" lon="6.09017">
        <ele>572.06127929688</ele>
        <time>2020-07-07T23:43:27.174Z</time>
      </trkpt>
      <trkpt lat="45.74594" lon="6.09017">
        <ele>572.06359863281</ele>
        <time>2020-07-07T23:43:43.012Z</time>
      </trkpt>
      <trkpt lat="45.74554" lon="6.09196">
        <ele>559.14935302734</ele>
        <time>2020-07-07T23:43:58.871Z</time>
      </trkpt>
      <trkpt lat="45.74526" lon="6.09256">
        <ele>565.89636230469</ele>
        <time>2020-07-07T23:44:14.738Z</time>
      </trkpt>
      <trkpt lat="45.74483" lon="6.0932">
        <ele>564.16235351562</ele>
        <time>2020-07-07T23:44:30.615Z</time>
      </trkpt>
      <trkpt lat="45.74471" lon="6.09345">
        <ele>560.91613769531</ele>
        <time>2020-07-07T23:44:46.496Z</time>
      </trkpt>
      <trkpt lat="45.74468" lon="6.09372">
        <ele>560.31036376953</ele>
        <time>2020-07-07T23:45:02.380Z</time>
      </trkpt>
      <trkpt lat="45.74469" lon="6.09384">
        <ele>559.23199462891</ele>
        <time>2020-07-07T23:45:18.265Z</time>
      </trkpt>
      <trkpt lat="45.74473" lon="6.09439">
        <ele>564.72747802734</ele>
        <time>2020-07-07T23:45:34.156Z</time>
      </trkpt>
      <trkpt lat="45.74467" lon="6.09475">
        <ele>568.53167724609</ele>
        <time>2020-07-07T23:45:50.051Z</time>
      </trkpt>
      <trkpt lat="45.74428" lon="6.09556">
        <ele>576.25775146484</ele>
        <time>2020-07-07T23:46:05.957Z</time>
      </trkpt>
      <trkpt lat="45.74428" lon="6.09556">
        <ele>576.25592041016</ele>
        <time>2020-07-07T23:46:21.863Z</time>
      </trkpt>
      <trkpt lat="45.74402" lon="6.09604">
        <ele>580.71356201172</ele>
        <time>2020-07-07T23:46:37.776Z</time>
      </trkpt>
      <trkpt lat="45.74288" lon="6.09739">
        <ele>577.1005859375</ele>
        <time>2020-07-07T23:46:53.713Z</time>
      </trkpt>
      <trkpt lat="45.74206" lon="6.09806">
        <ele>585.82049560547</ele>
        <time>2020-07-07T23:47:09.665Z</time>
      </trkpt>
      <trkpt lat="45.74103" lon="6.09843">
        <ele>587.17425537109</ele>
        <time>2020-07-07T23:47:25.634Z</time>
      </trkpt>
      <trkpt lat="45.74058" lon="6.0984">
        <ele>578.86102294922</ele>
        <time>2020-07-07T23:47:41.610Z</time>
      </trkpt>
      <trkpt lat="45.74011" lon="6.09822">
        <ele>569.72839355469</ele>
        <time>2020-07-07T23:47:57.594Z</time>
      </trkpt>
      <trkpt lat="45.73944" lon="6.09805">
        <ele>563.41925048828</ele>
        <time>2020-07-07T23:48:13.589Z</time>
      </trkpt>
      <trkpt lat="45.7373" lon="6.09809">
        <ele>571.79431152344</ele>
        <time>2020-07-07T23:48:29.618Z</time>
      </trkpt>
      <trkpt lat="45.73608" lon="6.09811">
        <ele>571.18414306641</ele>
        <time>2020-07-07T23:48:45.667Z</time>
      </trkpt>
      <trkpt lat="45.73558" lon="6.09811">
        <ele>571.18414306641</ele>
        <time>2020-07-07T23:49:01.724Z</time>
      </trkpt>
      <trkpt lat="45.73558" lon="6.09811">
        <ele>571.18414306641</ele>
        <time>2020-07-07T23:49:17.781Z</time>
      </trkpt>
      <trkpt lat="45.73474" lon="6.098">
        <ele>569.94506835938</ele>
        <time>2020-07-07T23:49:33.851Z</time>
      </trkpt>
      <trkpt lat="45.73394" lon="6.09766">
        <ele>570.04138183594</ele>
        <time>2020-07-07T23:49:49.934Z</time>
      </trkpt>
      <trkpt lat="45.73307" lon="6.09692">
        <ele>572.51831054688</ele>
        <time>2020-07-07T23:50:06.034Z</time>
      </trkpt>
      <trkpt lat="45.73282" lon="6.09684">
        <ele>573.76159667969</ele>
        <time>2020-07-07T23:50:22.138Z</time>
      </trkpt>
      <trkpt lat="45.73282" lon="6.09684">
        <ele>573.76208496094</ele>
        <time>2020-07-07T23:50:38.242Z</time>
      </trkpt>
      <trkpt lat="45.73249" lon="6.09674">
        <ele>575.77124023438</ele>
        <time>2020-07-07T23:50:54.351Z</time>
      </trkpt>
      <trkpt lat="45.73248" lon="6.09674">
        <ele>575.78393554688</ele>
        <time>2020-07-07T23:51:10.460Z</time>
      </trkpt>
      <trkpt lat="45.7316" lon="6.09646">
        <ele>585.27392578125</ele>
        <time>2020-07-07T23:51:26.584Z</time>
      </trkpt>
      <trkpt lat="45.7316" lon="6.09646">
        <ele>585.27520751953</ele>
        <time>2020-07-07T23:51:42.708Z</time>
      </trkpt>
      <trkpt lat="45.73096" lon="6.09626">
        <ele>591.017578125</ele>
        <time>2020-07-07T23:51:58.842Z</time>
      </trkpt>
      <trkpt lat="45.72986" lon="6.09541">
        <ele>581.03662109375</ele>
        <time>2020-07-07T23:52:14.996Z</time>
      </trkpt>
      <trkpt lat="45.72986" lon="6.09541">
        <ele>581.03784179688</ele>
        <time>2020-07-07T23:52:31.150Z</time>
      </trkpt>
      <trkpt lat="45.72944" lon="6.09517">
        <ele>579.38122558594</ele>
        <time>2020-07-07T23:52:47.311Z</time>
      </trkpt>
      <trkpt lat="45.72905" lon="6.09518">
        <ele>581.98272705078</ele>
        <time>2020-07-07T23:53:03.479Z</time>
      </trkpt>
      <trkpt lat="45.72877" lon="6.09527">
        <ele>585.22863769531</ele>
        <time>2020-07-07T23:53:19.651Z</time>
      </trkpt>
      <trkpt lat="45.72835" lon="6.09561">
        <ele>594.42791748047</ele>
        <time>2020-07-07T23:53:35.831Z</time>
      </trkpt>
      <trkpt lat="45.72802" lon="6.09571">
        <ele>599.62841796875</ele>
        <time>2020-07-07T23:53:52.017Z</time>
      </trkpt>
      <trkpt lat="45.72598" lon="6.09536">
        <ele>585.27960205078</ele>
        <time>2020-07-07T23:54:08.235Z</time>
      </trkpt>
      <trkpt lat="45.72562" lon="6.09503">
        <ele>582.07434082031</ele>
        <time>2020-07-07T23:54:24.460Z</time>
      </trkpt>
      <trkpt lat="45.72539" lon="6.09494">
        <ele>582.76611328125</ele>
        <time>2020-07-07T23:54:40.689Z</time>
      </trkpt>
      <trkpt lat="45.72501" lon="6.09512">
        <ele>591.96960449219</ele>
        <time>2020-07-07T23:54:56.924Z</time>
      </trkpt>
      <trkpt lat="45.72433" lon="6.09592">
        <ele>616.79852294922</ele>
        <time>2020-07-07T23:55:13.174Z</time>
      </trkpt>
      <trkpt lat="45.72383" lon="6.09655">
        <ele>620.71264648438</ele>
        <time>2020-07-07T23:55:29.434Z</time>
      </trkpt>
      <trkpt lat="45.72279" lon="6.09841">
        <ele>615.57318115234</ele>
        <time>2020-07-07T23:55:45.721Z</time>
      </trkpt>
      <trkpt lat="45.72221" lon="6.09902">
        <ele>612.70666503906</ele>
        <time>2020-07-07T23:56:02.019Z</time>
      </trkpt>
      <trkpt lat="45.72206" lon="6.0996">
        <ele>615.77728271484</ele>
        <time>2020-07-07T23:56:18.324Z</time>
      </trkpt>
      <trkpt lat="45.7221" lon="6.10048">
        <ele>614.61096191406</ele>
        <time>2020-07-07T23:56:34.639Z</time>
      </trkpt>
      <trkpt lat="45.72221" lon="6.10077">
        <ele>615.12432861328</ele>
        <time>2020-07-07T23:56:50.958Z</time>
      </trkpt>
      <trkpt lat="45.72259" lon="6.10127">
        <ele>619.30786132812</ele>
        <time>2020-07-07T23:57:07.285Z</time>
      </trkpt>
      <trkpt lat="45.72267" lon="6.10162">
        <ele>621.10559082031</ele>
        <time>2020-07-07T23:57:23.616Z</time>
      </trkpt>
      <trkpt lat="45.72264" lon="6.10204">
        <ele>623.19665527344</ele>
        <time>2020-07-07T23:57:39.952Z</time>
      </trkpt>
      <trkpt lat="45.72263" lon="6.10207">
        <ele>623.23376464844</ele>
        <time>2020-07-07T23:57:56.288Z</time>
      </trkpt>
      <trkpt lat="45.72272" lon="6.10219">
        <ele>625.62957763672</ele>
        <time>2020-07-07T23:58:12.626Z</time>
      </trkpt>
      <trkpt lat="45.7228" lon="6.1023">
        <ele>628.20092773438</ele>
        <time>2020-07-07T23:58:28.966Z</time>
      </trkpt>
      <trkpt lat="45.72276" lon="6.1025">
        <ele>629.74560546875</ele>
        <time>2020-07-07T23:58:45.308Z</time>
      </trkpt>
      <trkpt lat="45.72244" lon="6.10273">
        <ele>626.78491210938</ele>
        <time>2020-07-07T23:59:01.656Z</time>
      </trkpt>
      <trkpt lat="45.72232" lon="6.10297">
        <ele>627.49291992188</ele>
        <time>2020-07-07T23:59:18.007Z</time>
      </trkpt>
      <trkpt lat="45.72228" lon="6.10332">
        <ele>627.56805419922</ele>
        <time>2020-07-07T23:59:34.363Z</time>
      </trkpt>
      <trkpt lat="45.72235" lon="6.10369">
        <ele>627.52941894531</ele>
        <time>2020-07-07T23:59:50.723Z</time>
      </trkpt>
      <trkpt lat="45.72284" lon="6.1045">
        <ele>625.29779052734</ele>
        <time>2020-07-08T00:00:07.095Z</time>
      </trkpt>
      <trkpt lat="45.72358" lon="6.10477">
        <ele>629.18426513672</ele>
        <time>2020-07-08T00:00:23.479Z</time>
      </trkpt>
      <trkpt lat="45.72358" lon="6.10477">
        <ele>629.18511962891</ele>
        <time>2020-07-08T00:00:39.863Z</time>
      </trkpt>
      <trkpt lat="45.72617" lon="6.10575">
        <ele>642.22894287109</ele>
        <time>2020-07-08T00:00:56.290Z</time>
      </trkpt>
      <trkpt lat="45.72805" lon="6.10507">
        <ele>662.12054443359</ele>
        <time>2020-07-08T00:01:12.748Z</time>
      </trkpt>
      <trkpt lat="45.72823" lon="6.10509">
        <ele>662.78991699219</ele>
        <time>2020-07-08T00:01:29.209Z</time>
      </trkpt>
      <trkpt lat="45.73027" lon="6.1078">
        <ele>682.80285644531</ele>
        <time>2020-07-08T00:01:45.714Z</time>
      </trkpt>
      <trkpt lat="45.73055" lon="6.10868">
        <ele>677.88354492188</ele>
        <time>2020-07-08T00:02:02.230Z</time>
      </trkpt>
      <trkpt lat="45.73072" lon="6.10901">
        <ele>676.39031982422</ele>
        <time>2020-07-08T00:02:18.751Z</time>
      </trkpt>
      <trkpt lat="45.7309" lon="6.1092">
        <ele>677.11279296875</ele>
        <time>2020-07-08T00:02:35.275Z</time>
      </trkpt>
      <trkpt lat="45.73217" lon="6.10996">
        <ele>687.32299804688</ele>
        <time>2020-07-08T00:02:51.821Z</time>
      </trkpt>
      <trkpt lat="45.73329" lon="6.11045">
        <ele>697.57623291016</ele>
        <time>2020-07-08T00:03:08.386Z</time>
      </trkpt>
      <trkpt lat="45.73329" lon="6.11045">
        <ele>697.57794189453</ele>
        <time>2020-07-08T00:03:24.951Z</time>
      </trkpt>
      <trkpt lat="45.73399" lon="6.11092">
        <ele>710.95343017578</ele>
        <time>2020-07-08T00:03:41.529Z</time>
      </trkpt>
      <trkpt lat="45.73435" lon="6.11132">
        <ele>718.07189941406</ele>
        <time>2020-07-08T00:03:58.114Z</time>
      </trkpt>
      <trkpt lat="45.73485" lon="6.11236">
        <ele>713.3330078125</ele>
        <time>2020-07-08T00:04:14.713Z</time>
      </trkpt>
      <trkpt lat="45.73537" lon="6.11274">
        <ele>714.10534667969</ele>
        <time>2020-07-08T00:04:31.321Z</time>
      </trkpt>
      <trkpt lat="45.73588" lon="6.11297">
        <ele>713.39221191406</ele>
        <time>2020-07-08T00:04:47.938Z</time>
      </trkpt>
      <trkpt lat="45.73618" lon="6.11292">
        <ele>713.35357666016</ele>
        <time>2020-07-08T00:05:04.560Z</time>
      </trkpt>
      <trkpt lat="45.73646" lon="6.1127">
        <ele>715.40972900391</ele>
        <time>2020-07-08T00:05:21.187Z</time>
      </trkpt>
      <trkpt lat="45.73674" lon="6.11263">
        <ele>717.61346435547</ele>
        <time>2020-07-08T00:05:37.818Z</time>
      </trkpt>
      <trkpt lat="45.73748" lon="6.11267">
        <ele>719.92932128906</ele>
        <time>2020-07-08T00:05:54.461Z</time>
      </trkpt>
      <trkpt lat="45.73769" lon="6.11254">
        <ele>723.28985595703</ele>
        <time>2020-07-08T00:06:11.108Z</time>
      </trkpt>
      <trkpt lat="45.73811" lon="6.11131">
        <ele>734.96215820312</ele>
        <time>2020-07-08T00:06:27.770Z</time>
      </trkpt>
      <trkpt lat="45.73817" lon="6.11087">
        <ele>735.27111816406</ele>
        <time>2020-07-08T00:06:44.437Z</time>
      </trkpt>
      <trkpt lat="45.73833" lon="6.11078">
        <ele>737.67828369141</ele>
        <time>2020-07-08T00:07:01.107Z</time>
      </trkpt>
      <trkpt lat="45.7384" lon="6.11086">
        <ele>738.93975830078</ele>
        <time>2020-07-08T00:07:17.779Z</time>
      </trkpt>
      <trkpt lat="45.73849" lon="6.11156">
        <ele>740.36022949219</ele>
        <time>2020-07-08T00:07:34.459Z</time>
      </trkpt>
      <trkpt lat="45.73864" lon="6.11214">
        <ele>740.1865234375</ele>
        <time>2020-07-08T00:07:51.146Z</time>
      </trkpt>
      <trkpt lat="45.73923" lon="6.11265">
        <ele>740.41265869141</ele>
        <time>2020-07-08T00:08:07.844Z</time>
      </trkpt>
      <trkpt lat="45.74024" lon="6.11279">
        <ele>745.97692871094</ele>
        <time>2020-07-08T00:08:24.558Z</time>
      </trkpt>
      <trkpt lat="45.74092" lon="6.11259">
        <ele>754.77514648438</ele>
        <time>2020-07-08T00:08:41.283Z</time>
      </trkpt>
      <trkpt lat="45.74114" lon="6.1126">
        <ele>756.70599365234</ele>
        <time>2020-07-08T00:08:58.011Z</time>
      </trkpt>
      <trkpt lat="45.74248" lon="6.11374">
        <ele>766.14215087891</ele>
        <time>2020-07-08T00:09:14.764Z</time>
      </trkpt>
      <trkpt lat="45.74327" lon="6.11417">
        <ele>771.25067138672</ele>
        <time>2020-07-08T00:09:31.531Z</time>
      </trkpt>
      <trkpt lat="45.74363" lon="6.11431">
        <ele>772.71636962891</ele>
        <time>2020-07-08T00:09:48.304Z</time>
      </trkpt>
      <trkpt lat="45.74403" lon="6.1143">
        <ele>774.63891601562</ele>
        <time>2020-07-08T00:10:05.083Z</time>
      </trkpt>
      <trkpt lat="45.74476" lon="6.11428">
        <ele>777.87261962891</ele>
        <time>2020-07-08T00:10:21.874Z</time>
      </trkpt>
      <trkpt lat="45.74565" lon="6.11447">
        <ele>782.09509277344</ele>
        <time>2020-07-08T00:10:38.679Z</time>
      </trkpt>
      <trkpt lat="45.74605" lon="6.11445">
        <ele>785.58349609375</ele>
        <time>2020-07-08T00:10:55.491Z</time>
      </trkpt>
      <trkpt lat="45.74626" lon="6.11417">
        <ele>788.15496826172</ele>
        <time>2020-07-08T00:11:12.307Z</time>
      </trkpt>
      <trkpt lat="45.74642" lon="6.11407">
        <ele>789.63256835938</ele>
        <time>2020-07-08T00:11:29.126Z</time>
      </trkpt>
      <trkpt lat="45.74704" lon="6.11436">
        <ele>792.72198486328</ele>
        <time>2020-07-08T00:11:45.956Z</time>
      </trkpt>
      <trkpt lat="45.74794" lon="6.11437">
        <ele>796.87908935547</ele>
        <time>2020-07-08T00:12:02.800Z</time>
      </trkpt>
      <trkpt lat="45.7484" lon="6.11429">
        <ele>799.66766357422</ele>
        <time>2020-07-08T00:12:19.651Z</time>
      </trkpt>
      <trkpt lat="45.74902" lon="6.11414">
        <ele>806.88732910156</ele>
        <time>2020-07-08T00:12:36.513Z</time>
      </trkpt>
      <trkpt lat="45.74989" lon="6.11434">
        <ele>809.78942871094</ele>
        <time>2020-07-08T00:12:53.389Z</time>
      </trkpt>
      <trkpt lat="45.7499" lon="6.11434">
        <ele>809.87884521484</ele>
        <time>2020-07-08T00:13:10.265Z</time>
      </trkpt>
      <trkpt lat="45.7499" lon="6.11434">
        <ele>809.87951660156</ele>
        <time>2020-07-08T00:13:27.141Z</time>
      </trkpt>
      <trkpt lat="45.7511" lon="6.11475">
        <ele>817.09600830078</ele>
        <time>2020-07-08T00:13:44.037Z</time>
      </trkpt>
      <trkpt lat="45.75409" lon="6.11638">
        <ele>820.95861816406</ele>
        <time>2020-07-08T00:14:00.984Z</time>
      </trkpt>
      <trkpt lat="45.75475" lon="6.11657">
        <ele>822.38787841797</ele>
        <time>2020-07-08T00:14:17.942Z</time>
      </trkpt>
      <trkpt lat="45.75475" lon="6.11657">
        <ele>822.38854980469</ele>
        <time>2020-07-08T00:14:34.900Z</time>
      </trkpt>
      <trkpt lat="45.7554" lon="6.1171">
        <ele>816.57946777344</ele>
        <time>2020-07-08T00:14:51.869Z</time>
      </trkpt>
      <trkpt lat="45.75834" lon="6.11801">
        <ele>838.13140869141</ele>
        <time>2020-07-08T00:15:08.887Z</time>
      </trkpt>
      <trkpt lat="45.75964" lon="6.1189">
        <ele>838.68981933594</ele>
        <time>2020-07-08T00:15:25.928Z</time>
      </trkpt>
      <trkpt lat="45.76055" lon="6.12004">
        <ele>844.46722412109</ele>
        <time>2020-07-08T00:15:42.988Z</time>
      </trkpt>
      <trkpt lat="45.761" lon="6.12048">
        <ele>842.98693847656</ele>
        <time>2020-07-08T00:16:00.057Z</time>
      </trkpt>
      <trkpt lat="45.76352" lon="6.12182">
        <ele>857.16577148438</ele>
        <time>2020-07-08T00:16:17.169Z</time>
      </trkpt>
      <trkpt lat="45.76372" lon="6.12208">
        <ele>858.18273925781</ele>
        <time>2020-07-08T00:16:34.285Z</time>
      </trkpt>
      <trkpt lat="45.76396" lon="6.12258">
        <ele>860.43572998047</ele>
        <time>2020-07-08T00:16:51.408Z</time>
      </trkpt>
      <trkpt lat="45.76406" lon="6.12378">
        <ele>861.18658447266</ele>
        <time>2020-07-08T00:17:08.545Z</time>
      </trkpt>
      <trkpt lat="45.76419" lon="6.12412">
        <ele>861.94104003906</ele>
        <time>2020-07-08T00:17:25.686Z</time>
      </trkpt>
      <trkpt lat="45.76496" lon="6.12524">
        <ele>865.42065429688</ele>
        <time>2020-07-08T00:17:42.844Z</time>
      </trkpt>
      <trkpt lat="45.76648" lon="6.12642">
        <ele>869.40625</ele>
        <time>2020-07-08T00:18:00.030Z</time>
      </trkpt>
      <trkpt lat="45.76777" lon="6.12714">
        <ele>874.57214355469</ele>
        <time>2020-07-08T00:18:17.238Z</time>
      </trkpt>
      <trkpt lat="45.76806" lon="6.1272">
        <ele>875.91229248047</ele>
        <time>2020-07-08T00:18:34.451Z</time>
      </trkpt>
      <trkpt lat="45.76884" lon="6.12714">
        <ele>882.74444580078</ele>
        <time>2020-07-08T00:18:51.676Z</time>
      </trkpt>
      <trkpt lat="45.76884" lon="6.12714">
        <ele>882.74487304688</ele>
        <time>2020-07-08T00:19:08.901Z</time>
      </trkpt>
      <trkpt lat="45.76923" lon="6.12747">
        <ele>884.84185791016</ele>
        <time>2020-07-08T00:19:26.134Z</time>
      </trkpt>
      <trkpt lat="45.76992" lon="6.12825">
        <ele>890.10498046875</ele>
        <time>2020-07-08T00:19:43.381Z</time>
      </trkpt>
      <trkpt lat="45.77005" lon="6.12853">
        <ele>891.35583496094</ele>
        <time>2020-07-08T00:20:00.631Z</time>
      </trkpt>
      <trkpt lat="45.77022" lon="6.1297">
        <ele>893.88220214844</ele>
        <time>2020-07-08T00:20:17.895Z</time>
      </trkpt>
      <trkpt lat="45.77031" lon="6.12996">
        <ele>893.66168212891</ele>
        <time>2020-07-08T00:20:35.162Z</time>
      </trkpt>
      <trkpt lat="45.77182" lon="6.13164">
        <ele>898.63500976562</ele>
        <time>2020-07-08T00:20:52.460Z</time>
      </trkpt>
      <trkpt lat="45.77207" lon="6.13185">
        <ele>897.68225097656</ele>
        <time>2020-07-08T00:21:09.762Z</time>
      </trkpt>
      <trkpt lat="45.77276" lon="6.13222">
        <ele>895.40167236328</ele>
        <time>2020-07-08T00:21:27.076Z</time>
      </trkpt>
      <trkpt lat="45.77359" lon="6.13296">
        <ele>893.84661865234</ele>
        <time>2020-07-08T00:21:44.406Z</time>
      </trkpt>
      <trkpt lat="45.77389" lon="6.133">
        <ele>894.19207763672</ele>
        <time>2020-07-08T00:22:01.741Z</time>
      </trkpt>
      <trkpt lat="45.77432" lon="6.13261">
        <ele>893.66516113281</ele>
        <time>2020-07-08T00:22:19.084Z</time>
      </trkpt>
      <trkpt lat="45.77456" lon="6.13255">
        <ele>894.48901367188</ele>
        <time>2020-07-08T00:22:36.431Z</time>
      </trkpt>
      <trkpt lat="45.77477" lon="6.13263">
        <ele>893.38525390625</ele>
        <time>2020-07-08T00:22:53.781Z</time>
      </trkpt>
      <trkpt lat="45.775" lon="6.13285">
        <ele>889.42053222656</ele>
        <time>2020-07-08T00:23:11.136Z</time>
      </trkpt>
      <trkpt lat="45.77528" lon="6.13294">
        <ele>886.02215576172</ele>
        <time>2020-07-08T00:23:28.495Z</time>
      </trkpt>
      <trkpt lat="45.77605" lon="6.13275">
        <ele>883.5146484375</ele>
        <time>2020-07-08T00:23:45.867Z</time>
      </trkpt>
      <trkpt lat="45.77691" lon="6.1328">
        <ele>877.39984130859</ele>
        <time>2020-07-08T00:24:03.252Z</time>
      </trkpt>
      <trkpt lat="45.77713" lon="6.13275">
        <ele>875.85516357422</ele>
        <time>2020-07-08T00:24:20.641Z</time>
      </trkpt>
      <trkpt lat="45.7774" lon="6.13256">
        <ele>877.41052246094</ele>
        <time>2020-07-08T00:24:38.035Z</time>
      </trkpt>
      <trkpt lat="45.77779" lon="6.13255">
        <ele>876.63818359375</ele>
        <time>2020-07-08T00:24:55.435Z</time>
      </trkpt>
      <trkpt lat="45.77836" lon="6.13274">
        <ele>871.01104736328</ele>
        <time>2020-07-08T00:25:12.844Z</time>
      </trkpt>
      <trkpt lat="45.77883" lon="6.1327">
        <ele>868.23059082031</ele>
        <time>2020-07-08T00:25:30.261Z</time>
      </trkpt>
      <trkpt lat="45.7794" lon="6.13227">
        <ele>867.22521972656</ele>
        <time>2020-07-08T00:25:47.688Z</time>
      </trkpt>
      <trkpt lat="45.77962" lon="6.13183">
        <ele>869.54113769531</ele>
        <time>2020-07-08T00:26:05.121Z</time>
      </trkpt>
      <trkpt lat="45.77974" lon="6.13128">
        <ele>873.77545166016</ele>
        <time>2020-07-08T00:26:22.561Z</time>
      </trkpt>
      <trkpt lat="45.7799" lon="6.13091">
        <ele>876.99359130859</ele>
        <time>2020-07-08T00:26:40.006Z</time>
      </trkpt>
      <trkpt lat="45.78009" lon="6.13082">
        <ele>878.19989013672</ele>
        <time>2020-07-08T00:26:57.454Z</time>
      </trkpt>
      <trkpt lat="45.78027" lon="6.13085">
        <ele>877.76220703125</ele>
        <time>2020-07-08T00:27:14.905Z</time>
      </trkpt>
      <trkpt lat="45.78154" lon="6.13193">
        <ele>858.45660400391</ele>
        <time>2020-07-08T00:27:32.379Z</time>
      </trkpt>
      <trkpt lat="45.78225" lon="6.13222">
        <ele>854.29571533203</ele>
        <time>2020-07-08T00:27:49.865Z</time>
      </trkpt>
      <trkpt lat="45.78325" lon="6.13231">
        <ele>852.75769042969</ele>
        <time>2020-07-08T00:28:07.367Z</time>
      </trkpt>
      <trkpt lat="45.78381" lon="6.13253">
        <ele>853.16961669922</ele>
        <time>2020-07-08T00:28:24.878Z</time>
      </trkpt>
      <trkpt lat="45.7843" lon="6.13246">
        <ele>854.37786865234</ele>
        <time>2020-07-08T00:28:42.397Z</time>
      </trkpt>
      <trkpt lat="45.78458" lon="6.13243">
        <ele>855.40753173828</ele>
        <time>2020-07-08T00:28:59.921Z</time>
      </trkpt>
      <trkpt lat="45.78524" lon="6.13281">
        <ele>851.26934814453</ele>
        <time>2020-07-08T00:29:17.456Z</time>
      </trkpt>
      <trkpt lat="45.78524" lon="6.13281">
        <ele>851.26995849609</ele>
        <time>2020-07-08T00:29:34.991Z</time>
      </trkpt>
      <trkpt lat="45.78633" lon="6.13362">
        <ele>841.76446533203</ele>
        <time>2020-07-08T00:29:52.546Z</time>
      </trkpt>
      <trkpt lat="45.7876" lon="6.13374">
        <ele>840.85717773438</ele>
        <time>2020-07-08T00:30:10.121Z</time>
      </trkpt>
      <trkpt lat="45.78797" lon="6.13356">
        <ele>843.12103271484</ele>
        <time>2020-07-08T00:30:27.703Z</time>
      </trkpt>
      <trkpt lat="45.78818" lon="6.13355">
        <ele>844.6923828125</ele>
        <time>2020-07-08T00:30:45.288Z</time>
      </trkpt>
      <trkpt lat="45.78854" lon="6.13386">
        <ele>845.15582275391</ele>
        <time>2020-07-08T00:31:02.880Z</time>
      </trkpt>
      <trkpt lat="45.78864" lon="6.13413">
        <ele>843.86669921875</ele>
        <time>2020-07-08T00:31:20.475Z</time>
      </trkpt>
      <trkpt lat="45.78873" lon="6.13469">
        <ele>840.1953125</ele>
        <time>2020-07-08T00:31:38.077Z</time>
      </trkpt>
      <trkpt lat="45.78885" lon="6.13493">
        <ele>837.68218994141</ele>
        <time>2020-07-08T00:31:55.682Z</time>
      </trkpt>
      <trkpt lat="45.78911" lon="6.13513">
        <ele>836.46905517578</ele>
        <time>2020-07-08T00:32:13.292Z</time>
      </trkpt>
      <trkpt lat="45.78965" lon="6.13547">
        <ele>835.62536621094</ele>
        <time>2020-07-08T00:32:30.911Z</time>
      </trkpt>
      <trkpt lat="45.79005" lon="6.13562">
        <ele>831.05236816406</ele>
        <time>2020-07-08T00:32:48.537Z</time>
      </trkpt>
      <trkpt lat="45.79057" lon="6.13569">
        <ele>825.86566162109</ele>
        <time>2020-07-08T00:33:06.171Z</time>
      </trkpt>
      <trkpt lat="45.79093" lon="6.13539">
        <ele>829.93615722656</ele>
        <time>2020-07-08T00:33:23.812Z</time>
      </trkpt>
      <trkpt lat="45.79103" lon="6.13528">
        <ele>831.63549804688</ele>
        <time>2020-07-08T00:33:41.455Z</time>
      </trkpt>
      <trkpt lat="45.79128" lon="6.13525">
        <ele>831.59692382812</ele>
        <time>2020-07-08T00:33:59.102Z</time>
      </trkpt>
      <trkpt lat="45.79243" lon="6.1362">
        <ele>826.36218261719</ele>
        <time>2020-07-08T00:34:16.770Z</time>
      </trkpt>
      <trkpt lat="45.79404" lon="6.13693">
        <ele>809.09295654297</ele>
        <time>2020-07-08T00:34:34.465Z</time>
      </trkpt>
      <trkpt lat="45.79441" lon="6.13703">
        <ele>807.08483886719</ele>
        <time>2020-07-08T00:34:52.166Z</time>
      </trkpt>
      <trkpt lat="45.79471" lon="6.13674">
        <ele>808.44226074219</ele>
        <time>2020-07-08T00:35:09.873Z</time>
      </trkpt>
      <trkpt lat="45.79471" lon="6.13674">
        <ele>808.44146728516</ele>
        <time>2020-07-08T00:35:27.580Z</time>
      </trkpt>
      <trkpt lat="45.79491" lon="6.13644">
        <ele>810.56506347656</ele>
        <time>2020-07-08T00:35:45.291Z</time>
      </trkpt>
      <trkpt lat="45.79517" lon="6.13627">
        <ele>810.96258544922</ele>
        <time>2020-07-08T00:36:03.007Z</time>
      </trkpt>
      <trkpt lat="45.79546" lon="6.13624">
        <ele>809.81811523438</ele>
        <time>2020-07-08T00:36:20.728Z</time>
      </trkpt>
      <trkpt lat="45.79566" lon="6.13641">
        <ele>806.64105224609</ele>
        <time>2020-07-08T00:36:38.452Z</time>
      </trkpt>
      <trkpt lat="45.79583" lon="6.13688">
        <ele>802.7587890625</ele>
        <time>2020-07-08T00:36:56.182Z</time>
      </trkpt>
      <trkpt lat="45.79602" lon="6.137">
        <ele>802.28253173828</ele>
        <time>2020-07-08T00:37:13.916Z</time>
      </trkpt>
      <trkpt lat="45.79624" lon="6.13695">
        <ele>803.17010498047</ele>
        <time>2020-07-08T00:37:31.653Z</time>
      </trkpt>
      <trkpt lat="45.79654" lon="6.13674">
        <ele>804.61926269531</ele>
        <time>2020-07-08T00:37:49.396Z</time>
      </trkpt>
      <trkpt lat="45.79663" lon="6.13683">
        <ele>803.89837646484</ele>
        <time>2020-07-08T00:38:07.140Z</time>
      </trkpt>
      <trkpt lat="45.79686" lon="6.13751">
        <ele>796.23687744141</ele>
        <time>2020-07-08T00:38:24.893Z</time>
      </trkpt>
      <trkpt lat="45.79702" lon="6.13755">
        <ele>795.27142333984</ele>
        <time>2020-07-08T00:38:42.648Z</time>
      </trkpt>
      <trkpt lat="45.79725" lon="6.13745">
        <ele>796.62200927734</ele>
        <time>2020-07-08T00:39:00.407Z</time>
      </trkpt>
      <trkpt lat="45.79761" lon="6.13701">
        <ele>802.96594238281</ele>
        <time>2020-07-08T00:39:18.174Z</time>
      </trkpt>
      <trkpt lat="45.79784" lon="6.13701">
        <ele>803.11486816406</ele>
        <time>2020-07-08T00:39:35.944Z</time>
      </trkpt>
      <trkpt lat="45.79845" lon="6.13783">
        <ele>782.21704101562</ele>
        <time>2020-07-08T00:39:53.728Z</time>
      </trkpt>
      <trkpt lat="45.7988" lon="6.1378">
        <ele>781.1728515625</ele>
        <time>2020-07-08T00:40:11.517Z</time>
      </trkpt>
      <trkpt lat="45.79899" lon="6.13753">
        <ele>790.88580322266</ele>
        <time>2020-07-08T00:40:29.311Z</time>
      </trkpt>
      <trkpt lat="45.79919" lon="6.13754">
        <ele>792.27978515625</ele>
        <time>2020-07-08T00:40:47.108Z</time>
      </trkpt>
      <trkpt lat="45.79933" lon="6.13767">
        <ele>789.49932861328</ele>
        <time>2020-07-08T00:41:04.908Z</time>
      </trkpt>
      <trkpt lat="45.79947" lon="6.13802">
        <ele>780.11157226562</ele>
        <time>2020-07-08T00:41:22.712Z</time>
      </trkpt>
      <trkpt lat="45.79979" lon="6.13818">
        <ele>777.74737548828</ele>
        <time>2020-07-08T00:41:40.522Z</time>
      </trkpt>
      <trkpt lat="45.80012" lon="6.13813">
        <ele>776.57763671875</ele>
        <time>2020-07-08T00:41:58.337Z</time>
      </trkpt>
      <trkpt lat="45.8003" lon="6.13795">
        <ele>779.306640625</ele>
        <time>2020-07-08T00:42:16.155Z</time>
      </trkpt>
      <trkpt lat="45.80041" lon="6.13758">
        <ele>784.466796875</ele>
        <time>2020-07-08T00:42:33.978Z</time>
      </trkpt>
      <trkpt lat="45.80055" lon="6.13745">
        <ele>784.97796630859</ele>
        <time>2020-07-08T00:42:51.804Z</time>
      </trkpt>
      <trkpt lat="45.80075" lon="6.13744">
        <ele>784.46539306641</ele>
        <time>2020-07-08T00:43:09.633Z</time>
      </trkpt>
      <trkpt lat="45.80094" lon="6.1377">
        <ele>778.97937011719</ele>
        <time>2020-07-08T00:43:27.466Z</time>
      </trkpt>
      <trkpt lat="45.80104" lon="6.13803">
        <ele>772.92932128906</ele>
        <time>2020-07-08T00:43:45.303Z</time>
      </trkpt>
      <trkpt lat="45.80127" lon="6.13829">
        <ele>765.93939208984</ele>
        <time>2020-07-08T00:44:03.145Z</time>
      </trkpt>
      <trkpt lat="45.80193" lon="6.13846">
        <ele>759.0400390625</ele>
        <time>2020-07-08T00:44:20.997Z</time>
      </trkpt>
      <trkpt lat="45.80232" lon="6.13842">
        <ele>755.4990234375</ele>
        <time>2020-07-08T00:44:38.856Z</time>
      </trkpt>
      <trkpt lat="45.8027" lon="6.13826">
        <ele>752.6201171875</ele>
        <time>2020-07-08T00:44:56.721Z</time>
      </trkpt>
      <trkpt lat="45.80312" lon="6.13785">
        <ele>750.82977294922</ele>
        <time>2020-07-08T00:45:14.594Z</time>
      </trkpt>
      <trkpt lat="45.80391" lon="6.13664">
        <ele>748.47729492188</ele>
        <time>2020-07-08T00:45:32.486Z</time>
      </trkpt>
      <trkpt lat="45.80441" lon="6.1359">
        <ele>752.19641113281</ele>
        <time>2020-07-08T00:45:50.389Z</time>
      </trkpt>
      <trkpt lat="45.80475" lon="6.13598">
        <ele>747.17980957031</ele>
        <time>2020-07-08T00:46:08.298Z</time>
      </trkpt>
      <trkpt lat="45.80496" lon="6.1359">
        <ele>745.58251953125</ele>
        <time>2020-07-08T00:46:26.210Z</time>
      </trkpt>
      <trkpt lat="45.80577" lon="6.13551">
        <ele>746.8388671875</ele>
        <time>2020-07-08T00:46:44.136Z</time>
      </trkpt>
      <trkpt lat="45.80641" lon="6.13582">
        <ele>735.64385986328</ele>
        <time>2020-07-08T00:47:02.073Z</time>
      </trkpt>
      <trkpt lat="45.80658" lon="6.1358">
        <ele>734.93408203125</ele>
        <time>2020-07-08T00:47:20.012Z</time>
      </trkpt>
      <trkpt lat="45.80678" lon="6.13566">
        <ele>737.68835449219</ele>
        <time>2020-07-08T00:47:37.955Z</time>
      </trkpt>
      <trkpt lat="45.80723" lon="6.13562">
        <ele>736.81402587891</ele>
        <time>2020-07-08T00:47:55.905Z</time>
      </trkpt>
      <trkpt lat="45.80753" lon="6.13576">
        <ele>737.47686767578</ele>
        <time>2020-07-08T00:48:13.860Z</time>
      </trkpt>
      <trkpt lat="45.8078" lon="6.13609">
        <ele>732.08459472656</ele>
        <time>2020-07-08T00:48:31.821Z</time>
      </trkpt>
      <trkpt lat="45.80795" lon="6.13618">
        <ele>731.95458984375</ele>
        <time>2020-07-08T00:48:49.784Z</time>
      </trkpt>
      <trkpt lat="45.80844" lon="6.1362">
        <ele>737.17474365234</ele>
        <time>2020-07-08T00:49:07.755Z</time>
      </trkpt>
      <trkpt lat="45.80858" lon="6.1363">
        <ele>735.59143066406</ele>
        <time>2020-07-08T00:49:25.729Z</time>
      </trkpt>
      <trkpt lat="45.80879" lon="6.13665">
        <ele>727.52362060547</ele>
        <time>2020-07-08T00:49:43.708Z</time>
      </trkpt>
      <trkpt lat="45.80903" lon="6.1368">
        <ele>724.52227783203</ele>
        <time>2020-07-08T00:50:01.691Z</time>
      </trkpt>
      <trkpt lat="45.80938" lon="6.13686">
        <ele>724.12243652344</ele>
        <time>2020-07-08T00:50:19.680Z</time>
      </trkpt>
      <trkpt lat="45.80972" lon="6.13681">
        <ele>726.92864990234</ele>
        <time>2020-07-08T00:50:37.674Z</time>
      </trkpt>
      <trkpt lat="45.80994" lon="6.13668">
        <ele>729.73187255859</ele>
        <time>2020-07-08T00:50:55.672Z</time>
      </trkpt>
      <trkpt lat="45.81024" lon="6.13668">
        <ele>729.98767089844</ele>
        <time>2020-07-08T00:51:13.675Z</time>
      </trkpt>
      <trkpt lat="45.81062" lon="6.13685">
        <ele>724.02532958984</ele>
        <time>2020-07-08T00:51:31.684Z</time>
      </trkpt>
      <trkpt lat="45.81146" lon="6.13695">
        <ele>722.30218505859</ele>
        <time>2020-07-08T00:51:49.707Z</time>
      </trkpt>
      <trkpt lat="45.81224" lon="6.13721">
        <ele>714.7314453125</ele>
        <time>2020-07-08T00:52:07.743Z</time>
      </trkpt>
      <trkpt lat="45.81249" lon="6.13729">
        <ele>713.48461914062</ele>
        <time>2020-07-08T00:52:25.783Z</time>
      </trkpt>
      <trkpt lat="45.81282" lon="6.13727">
        <ele>716.42999267578</ele>
        <time>2020-07-08T00:52:43.828Z</time>
      </trkpt>
      <trkpt lat="45.81341" lon="6.1378">
        <ele>702.73547363281</ele>
        <time>2020-07-08T00:53:01.884Z</time>
      </trkpt>
      <trkpt lat="45.8142" lon="6.13775">
        <ele>703.19421386719</ele>
        <time>2020-07-08T00:53:19.953Z</time>
      </trkpt>
      <trkpt lat="45.81496" lon="6.13785">
        <ele>695.26690673828</ele>
        <time>2020-07-08T00:53:38.034Z</time>
      </trkpt>
      <trkpt lat="45.8152" lon="6.1378">
        <ele>694.40447998047</ele>
        <time>2020-07-08T00:53:56.119Z</time>
      </trkpt>
      <trkpt lat="45.81617" lon="6.13716">
        <ele>695.83599853516</ele>
        <time>2020-07-08T00:54:14.221Z</time>
      </trkpt>
      <trkpt lat="45.81768" lon="6.1357">
        <ele>688.09045410156</ele>
        <time>2020-07-08T00:54:32.352Z</time>
      </trkpt>
      <trkpt lat="45.81778" lon="6.1355">
        <ele>687.29833984375</ele>
        <time>2020-07-08T00:54:50.486Z</time>
      </trkpt>
      <trkpt lat="45.81796" lon="6.13485">
        <ele>684.51977539062</ele>
        <time>2020-07-08T00:55:08.628Z</time>
      </trkpt>
      <trkpt lat="45.81798" lon="6.13476">
        <ele>684.26300048828</ele>
        <time>2020-07-08T00:55:26.771Z</time>
      </trkpt>
      <trkpt lat="45.81825" lon="6.13371">
        <ele>690.62231445312</ele>
        <time>2020-07-08T00:55:44.926Z</time>
      </trkpt>
      <trkpt lat="45.81857" lon="6.13348">
        <ele>694.67352294922</ele>
        <time>2020-07-08T00:56:03.087Z</time>
      </trkpt>
      <trkpt lat="45.81953" lon="6.13405">
        <ele>678.21661376953</ele>
        <time>2020-07-08T00:56:21.265Z</time>
      </trkpt>
      <trkpt lat="45.82005" lon="6.13413">
        <ele>681.36676025391</ele>
        <time>2020-07-08T00:56:39.451Z</time>
      </trkpt>
      <trkpt lat="45.82052" lon="6.13403">
        <ele>688.11126708984</ele>
        <time>2020-07-08T00:56:57.645Z</time>
      </trkpt>
      <trkpt lat="45.82092" lon="6.13413">
        <ele>691.75323486328</ele>
        <time>2020-07-08T00:57:15.845Z</time>
      </trkpt>
      <trkpt lat="45.82108" lon="6.13434">
        <ele>689.24310302734</ele>
        <time>2020-07-08T00:57:34.049Z</time>
      </trkpt>
      <trkpt lat="45.82127" lon="6.13523">
        <ele>672.27294921875</ele>
        <time>2020-07-08T00:57:52.263Z</time>
      </trkpt>
      <trkpt lat="45.82139" lon="6.13552">
        <ele>668.74584960938</ele>
        <time>2020-07-08T00:58:10.481Z</time>
      </trkpt>
      <trkpt lat="45.82242" lon="6.13657">
        <ele>657.40728759766</ele>
        <time>2020-07-08T00:58:28.719Z</time>
      </trkpt>
      <trkpt lat="45.8237" lon="6.13682">
        <ele>666.24029541016</ele>
        <time>2020-07-08T00:58:46.978Z</time>
      </trkpt>
      <trkpt lat="45.82379" lon="6.13709">
        <ele>667.07696533203</ele>
        <time>2020-07-08T00:59:05.240Z</time>
      </trkpt>
      <trkpt lat="45.82382" lon="6.13766">
        <ele>661.96270751953</ele>
        <time>2020-07-08T00:59:23.508Z</time>
      </trkpt>
      <trkpt lat="45.82394" lon="6.13817">
        <ele>658.57061767578</ele>
        <time>2020-07-08T00:59:41.782Z</time>
      </trkpt>
      <trkpt lat="45.82437" lon="6.13901">
        <ele>657.55023193359</ele>
        <time>2020-07-08T01:00:00.068Z</time>
      </trkpt>
      <trkpt lat="45.82459" lon="6.13961">
        <ele>651.47442626953</ele>
        <time>2020-07-08T01:00:18.362Z</time>
      </trkpt>
      <trkpt lat="45.82524" lon="6.14056">
        <ele>642.06683349609</ele>
        <time>2020-07-08T01:00:36.671Z</time>
      </trkpt>
      <trkpt lat="45.82524" lon="6.14056">
        <ele>642.06842041016</ele>
        <time>2020-07-08T01:00:54.980Z</time>
      </trkpt>
      <trkpt lat="45.82591" lon="6.14193">
        <ele>628.84716796875</ele>
        <time>2020-07-08T01:01:13.307Z</time>
      </trkpt>
      <trkpt lat="45.82613" lon="6.14211">
        <ele>626.27264404297</ele>
        <time>2020-07-08T01:01:31.638Z</time>
      </trkpt>
      <trkpt lat="45.82613" lon="6.14211">
        <ele>626.27276611328</ele>
        <time>2020-07-08T01:01:49.969Z</time>
      </trkpt>
      <trkpt lat="45.82808" lon="6.14224">
        <ele>620.08618164062</ele>
        <time>2020-07-08T01:02:08.332Z</time>
      </trkpt>
      <trkpt lat="45.82871" lon="6.14215">
        <ele>614.29449462891</ele>
        <time>2020-07-08T01:02:26.705Z</time>
      </trkpt>
      <trkpt lat="45.82912" lon="6.14185">
        <ele>615.5087890625</ele>
        <time>2020-07-08T01:02:45.085Z</time>
      </trkpt>
      <trkpt lat="45.82912" lon="6.14185">
        <ele>615.50854492188</ele>
        <time>2020-07-08T01:03:03.465Z</time>
      </trkpt>
      <trkpt lat="45.82926" lon="6.14166">
        <ele>616.73291015625</ele>
        <time>2020-07-08T01:03:21.848Z</time>
      </trkpt>
      <trkpt lat="45.82952" lon="6.14186">
        <ele>613.41180419922</ele>
        <time>2020-07-08T01:03:40.236Z</time>
      </trkpt>
      <trkpt lat="45.83" lon="6.14187">
        <ele>610.19757080078</ele>
        <time>2020-07-08T01:03:58.632Z</time>
      </trkpt>
      <trkpt lat="45.8302" lon="6.14201">
        <ele>608.03503417969</ele>
        <time>2020-07-08T01:04:17.031Z</time>
      </trkpt>
      <trkpt lat="45.83034" lon="6.14273">
        <ele>602.02355957031</ele>
        <time>2020-07-08T01:04:35.438Z</time>
      </trkpt>
      <trkpt lat="45.83008" lon="6.14328">
        <ele>596.61047363281</ele>
        <time>2020-07-08T01:04:53.853Z</time>
      </trkpt>
      <trkpt lat="45.8301" lon="6.14354">
        <ele>595.34136962891</ele>
        <time>2020-07-08T01:05:12.271Z</time>
      </trkpt>
      <trkpt lat="45.83041" lon="6.14503">
        <ele>580.28631591797</ele>
        <time>2020-07-08T01:05:30.706Z</time>
      </trkpt>
      <trkpt lat="45.83054" lon="6.14517">
        <ele>577.93054199219</ele>
        <time>2020-07-08T01:05:49.144Z</time>
      </trkpt>
      <trkpt lat="45.83122" lon="6.14546">
        <ele>567.97607421875</ele>
        <time>2020-07-08T01:06:07.593Z</time>
      </trkpt>
      <trkpt lat="45.83174" lon="6.14551">
        <ele>562.14239501953</ele>
        <time>2020-07-08T01:06:26.050Z</time>
      </trkpt>
      <trkpt lat="45.83231" lon="6.14536">
        <ele>558.23815917969</ele>
        <time>2020-07-08T01:06:44.517Z</time>
      </trkpt>
      <trkpt lat="45.83343" lon="6.14512">
        <ele>550.56317138672</ele>
        <time>2020-07-08T01:07:03.002Z</time>
      </trkpt>
      <trkpt lat="45.8336" lon="6.14522">
        <ele>548.28411865234</ele>
        <time>2020-07-08T01:07:21.490Z</time>
      </trkpt>
      <trkpt lat="45.83366" lon="6.14553">
        <ele>544.640625</ele>
        <time>2020-07-08T01:07:39.981Z</time>
      </trkpt>
      <trkpt lat="45.83367" lon="6.14563">
        <ele>543.57641601562</ele>
        <time>2020-07-08T01:07:58.473Z</time>
      </trkpt>
      <trkpt lat="45.83365" lon="6.14625">
        <ele>536.51141357422</ele>
        <time>2020-07-08T01:08:16.972Z</time>
      </trkpt>
      <trkpt lat="45.8338" lon="6.14671">
        <ele>529.91302490234</ele>
        <time>2020-07-08T01:08:35.477Z</time>
      </trkpt>
      <trkpt lat="45.83387" lon="6.14713">
        <ele>524.04205322266</ele>
        <time>2020-07-08T01:08:53.987Z</time>
      </trkpt>
      <trkpt lat="45.83395" lon="6.14766">
        <ele>517.43481445312</ele>
        <time>2020-07-08T01:09:12.503Z</time>
      </trkpt>
      <trkpt lat="45.83398" lon="6.14801">
        <ele>513.18688964844</ele>
        <time>2020-07-08T01:09:31.023Z</time>
      </trkpt>
      <trkpt lat="45.834" lon="6.14811">
        <ele>512.02838134766</ele>
        <time>2020-07-08T01:09:49.544Z</time>
      </trkpt>
      <trkpt lat="45.83407" lon="6.1486">
        <ele>507.44027709961</ele>
        <time>2020-07-08T01:10:08.071Z</time>
      </trkpt>
      <trkpt lat="45.83413" lon="6.14893">
        <ele>504.49249267578</ele>
        <time>2020-07-08T01:10:26.602Z</time>
      </trkpt>
      <trkpt lat="45.83411" lon="6.14973">
        <ele>494.78482055664</ele>
        <time>2020-07-08T01:10:45.141Z</time>
      </trkpt>
      <trkpt lat="45.83385" lon="6.15061">
        <ele>486.02844238281</ele>
        <time>2020-07-08T01:11:03.691Z</time>
      </trkpt>
      <trkpt lat="45.83386" lon="6.15117">
        <ele>481.92788696289</ele>
        <time>2020-07-08T01:11:22.248Z</time>
      </trkpt>
      <trkpt lat="45.83386" lon="6.15117">
        <ele>481.92788696289</ele>
        <time>2020-07-08T01:11:40.805Z</time>
      </trkpt>
      <trkpt lat="45.83386" lon="6.15135">
        <ele>480.69213867188</ele>
        <time>2020-07-08T01:11:59.363Z</time>
      </trkpt>
      <trkpt lat="45.83387" lon="6.15173">
        <ele>478.66229248047</ele>
        <time>2020-07-08T01:12:17.926Z</time>
      </trkpt>
      <trkpt lat="45.8339" lon="6.15324">
        <ele>470.65112304688</ele>
        <time>2020-07-08T01:12:36.506Z</time>
      </trkpt>
      <trkpt lat="45.83391" lon="6.15364">
        <ele>469.67282104492</ele>
        <time>2020-07-08T01:12:55.090Z</time>
      </trkpt>
      <trkpt lat="45.83386" lon="6.15458">
        <ele>468.44134521484</ele>
        <time>2020-07-08T01:13:13.685Z</time>
      </trkpt>
      <trkpt lat="45.83381" lon="6.15528">
        <ele>468.36645507812</ele>
        <time>2020-07-08T01:13:32.288Z</time>
      </trkpt>
      <trkpt lat="45.83389" lon="6.15723">
        <ele>468.88232421875</ele>
        <time>2020-07-08T01:13:50.912Z</time>
      </trkpt>
      <trkpt lat="45.83343" lon="6.15828">
        <ele>468.3547668457</ele>
        <time>2020-07-08T01:14:09.550Z</time>
      </trkpt>
      <trkpt lat="45.8332" lon="6.15873">
        <ele>468.65069580078</ele>
        <time>2020-07-08T01:14:28.194Z</time>
      </trkpt>
      <trkpt lat="45.83308" lon="6.15895">
        <ele>468.93408203125</ele>
        <time>2020-07-08T01:14:46.842Z</time>
      </trkpt>
      <trkpt lat="45.83306" lon="6.15915">
        <ele>468.51416015625</ele>
        <time>2020-07-08T01:15:05.492Z</time>
      </trkpt>
      <trkpt lat="45.83293" lon="6.15921">
        <ele>468.35968017578</ele>
        <time>2020-07-08T01:15:24.144Z</time>
      </trkpt>
      <trkpt lat="45.83274" lon="6.15959">
        <ele>467.75772094727</ele>
        <time>2020-07-08T01:15:42.801Z</time>
      </trkpt>
      <trkpt lat="45.83274" lon="6.15959">
        <ele>467.75790405273</ele>
        <time>2020-07-08T01:16:01.458Z</time>
      </trkpt>
      <trkpt lat="45.83273" lon="6.1596">
        <ele>467.78366088867</ele>
        <time>2020-07-08T01:16:20.115Z</time>
      </trkpt>
      <trkpt lat="45.83256" lon="6.15985">
        <ele>468.1955871582</ele>
        <time>2020-07-08T01:16:38.776Z</time>
      </trkpt>
      <trkpt lat="45.83233" lon="6.16015">
        <ele>468.73602294922</ele>
        <time>2020-07-08T01:16:57.442Z</time>
      </trkpt>
      <trkpt lat="45.83233" lon="6.16015">
        <ele>468.73620605469</ele>
        <time>2020-07-08T01:17:16.108Z</time>
      </trkpt>
      <trkpt lat="45.83192" lon="6.16071">
        <ele>469.46994018555</ele>
        <time>2020-07-08T01:17:34.783Z</time>
      </trkpt>
      <trkpt lat="45.83176" lon="6.16107">
        <ele>469.10397338867</ele>
        <time>2020-07-08T01:17:53.463Z</time>
      </trkpt>
      <trkpt lat="45.83219" lon="6.16187">
        <ele>467.61859130859</ele>
        <time>2020-07-08T01:18:12.154Z</time>
      </trkpt>
      <trkpt lat="45.83219" lon="6.16187">
        <ele>467.61889648438</ele>
        <time>2020-07-08T01:18:30.845Z</time>
      </trkpt>
      <trkpt lat="45.83234" lon="6.16206">
        <ele>467.30963134766</ele>
        <time>2020-07-08T01:18:49.540Z</time>
      </trkpt>
      <trkpt lat="45.83234" lon="6.16206">
        <ele>467.30993652344</ele>
        <time>2020-07-08T01:19:08.235Z</time>
      </trkpt>
      <trkpt lat="45.83264" lon="6.16242">
        <ele>466.65313720703</ele>
        <time>2020-07-08T01:19:26.936Z</time>
      </trkpt>
      <trkpt lat="45.83308" lon="6.16297">
        <ele>465.75939941406</ele>
        <time>2020-07-08T01:19:45.646Z</time>
      </trkpt>
      <trkpt lat="45.83308" lon="6.16297">
        <ele>465.75958251953</ele>
        <time>2020-07-08T01:20:04.356Z</time>
      </trkpt>
      <trkpt lat="45.83385" lon="6.16391">
        <ele>464.10620117188</ele>
        <time>2020-07-08T01:20:23.082Z</time>
      </trkpt>
      <trkpt lat="45.83436" lon="6.1642">
        <ele>464.30584716797</ele>
        <time>2020-07-08T01:20:41.817Z</time>
      </trkpt>
      <trkpt lat="45.83489" lon="6.16543">
        <ele>463.43127441406</ele>
        <time>2020-07-08T01:21:00.568Z</time>
      </trkpt>
      <trkpt lat="45.83501" lon="6.16577">
        <ele>462.78482055664</ele>
        <time>2020-07-08T01:21:19.324Z</time>
      </trkpt>
      <trkpt lat="45.8351" lon="6.16599">
        <ele>462.64074707031</ele>
        <time>2020-07-08T01:21:38.082Z</time>
      </trkpt>
      <trkpt lat="45.8351" lon="6.16599">
        <ele>462.64105224609</ele>
        <time>2020-07-08T01:21:56.840Z</time>
      </trkpt>
      <trkpt lat="45.83251" lon="6.17144">
        <ele>461.64916992188</ele>
        <time>2020-07-08T01:22:15.672Z</time>
      </trkpt>
      <trkpt lat="45.83241" lon="6.17177">
        <ele>461.77801513672</ele>
        <time>2020-07-08T01:22:34.508Z</time>
      </trkpt>
      <trkpt lat="45.83227" lon="6.17267">
        <ele>461.47024536133</ele>
        <time>2020-07-08T01:22:53.355Z</time>
      </trkpt>
      <trkpt lat="45.83188" lon="6.17291">
        <ele>461.65036010742</ele>
        <time>2020-07-08T01:23:12.208Z</time>
      </trkpt>
      <trkpt lat="45.83188" lon="6.17291">
        <ele>461.65048217773</ele>
        <time>2020-07-08T01:23:31.061Z</time>
      </trkpt>
      <trkpt lat="45.83175" lon="6.17319">
        <ele>461.47015380859</ele>
        <time>2020-07-08T01:23:49.918Z</time>
      </trkpt>
      <trkpt lat="45.83175" lon="6.17319">
        <ele>461.47024536133</ele>
        <time>2020-07-08T01:24:08.775Z</time>
      </trkpt>
      <trkpt lat="45.82983" lon="6.17713">
        <ele>459.73477172852</ele>
        <time>2020-07-08T01:24:27.686Z</time>
      </trkpt>
      <trkpt lat="45.82956" lon="6.17778">
        <ele>458.98434448242</ele>
        <time>2020-07-08T01:24:46.605Z</time>
      </trkpt>
      <trkpt lat="45.82956" lon="6.17778">
        <ele>458.98443603516</ele>
        <time>2020-07-08T01:25:05.524Z</time>
      </trkpt>
      <trkpt lat="45.8291" lon="6.17955">
        <ele>456.01638793945</ele>
        <time>2020-07-08T01:25:24.464Z</time>
      </trkpt>
      <trkpt lat="45.8278" lon="6.18549">
        <ele>456.66632080078</ele>
        <time>2020-07-08T01:25:43.474Z</time>
      </trkpt>
      <trkpt lat="45.8278" lon="6.18549">
        <ele>456.66674804688</ele>
        <time>2020-07-08T01:26:02.484Z</time>
      </trkpt>
      <trkpt lat="45.82729" lon="6.18783">
        <ele>458.59033203125</ele>
        <time>2020-07-08T01:26:21.522Z</time>
      </trkpt>
      <trkpt lat="45.82718" lon="6.18829">
        <ele>457.77813720703</ele>
        <time>2020-07-08T01:26:40.565Z</time>
      </trkpt>
      <trkpt lat="45.82718" lon="6.18829">
        <ele>457.77853393555</ele>
        <time>2020-07-08T01:26:59.608Z</time>
      </trkpt>
      <trkpt lat="45.82668" lon="6.19056">
        <ele>454.95568847656</ele>
        <time>2020-07-08T01:27:18.678Z</time>
      </trkpt>
      <trkpt lat="45.82583" lon="6.19322">
        <ele>455.21826171875</ele>
        <time>2020-07-08T01:27:37.780Z</time>
      </trkpt>
      <trkpt lat="45.82573" lon="6.19378">
        <ele>455.12814331055</ele>
        <time>2020-07-08T01:27:56.889Z</time>
      </trkpt>
      <trkpt lat="45.82566" lon="6.19438">
        <ele>455.37390136719</ele>
        <time>2020-07-08T01:28:16.005Z</time>
      </trkpt>
      <trkpt lat="45.82564" lon="6.19534">
        <ele>454.92749023438</ele>
        <time>2020-07-08T01:28:35.131Z</time>
      </trkpt>
      <trkpt lat="45.82572" lon="6.19641">
        <ele>453.98721313477</ele>
        <time>2020-07-08T01:28:54.269Z</time>
      </trkpt>
      <trkpt lat="45.8269" lon="6.20372">
        <ele>456.02868652344</ele>
        <time>2020-07-08T01:29:13.491Z</time>
      </trkpt>
      <trkpt lat="45.82694" lon="6.20409">
        <ele>463.68469238281</ele>
        <time>2020-07-08T01:29:32.717Z</time>
      </trkpt>
      <trkpt lat="45.82696" lon="6.20423">
        <ele>465.65417480469</ele>
        <time>2020-07-08T01:29:51.945Z</time>
      </trkpt>
      <trkpt lat="45.82697" lon="6.20439">
        <ele>468.28225708008</ele>
        <time>2020-07-08T01:30:11.175Z</time>
      </trkpt>
      <trkpt lat="45.82676" lon="6.20576">
        <ele>493.88888549805</ele>
        <time>2020-07-08T01:30:30.421Z</time>
      </trkpt>
      <trkpt lat="45.82653" lon="6.20659">
        <ele>467.00677490234</ele>
        <time>2020-07-08T01:30:49.677Z</time>
      </trkpt>
      <trkpt lat="45.82653" lon="6.20659">
        <ele>467.00756835938</ele>
        <time>2020-07-08T01:31:08.933Z</time>
      </trkpt>
      <trkpt lat="45.82633" lon="6.20702">
        <ele>459.23083496094</ele>
        <time>2020-07-08T01:31:28.194Z</time>
      </trkpt>
      <trkpt lat="45.82584" lon="6.20767">
        <ele>457.18225097656</ele>
        <time>2020-07-08T01:31:47.466Z</time>
      </trkpt>
      <trkpt lat="45.8253" lon="6.20811">
        <ele>458.50427246094</ele>
        <time>2020-07-08T01:32:06.748Z</time>
      </trkpt>
      <trkpt lat="45.82492" lon="6.20828">
        <ele>460.31481933594</ele>
        <time>2020-07-08T01:32:26.036Z</time>
      </trkpt>
      <trkpt lat="45.82418" lon="6.20841">
        <ele>456.70129394531</ele>
        <time>2020-07-08T01:32:45.336Z</time>
      </trkpt>
      <trkpt lat="45.82387" lon="6.20837">
        <ele>457.42468261719</ele>
        <time>2020-07-08T01:33:04.641Z</time>
      </trkpt>
      <trkpt lat="45.82302" lon="6.20799">
        <ele>461.85903930664</ele>
        <time>2020-07-08T01:33:23.961Z</time>
      </trkpt>
      <trkpt lat="45.82171" lon="6.20667">
        <ele>470.12020874023</ele>
        <time>2020-07-08T01:33:43.306Z</time>
      </trkpt>
      <trkpt lat="45.82124" lon="6.20638">
        <ele>469.56921386719</ele>
        <time>2020-07-08T01:34:02.659Z</time>
      </trkpt>
      <trkpt lat="45.82076" lon="6.20625">
        <ele>468.30770874023</ele>
        <time>2020-07-08T01:34:22.020Z</time>
      </trkpt>
      <trkpt lat="45.82024" lon="6.2062">
        <ele>463.41275024414</ele>
        <time>2020-07-08T01:34:41.390Z</time>
      </trkpt>
      <trkpt lat="45.81951" lon="6.20643">
        <ele>456.70349121094</ele>
        <time>2020-07-08T01:35:00.771Z</time>
      </trkpt>
      <trkpt lat="45.81951" lon="6.20643">
        <ele>456.70401000977</ele>
        <time>2020-07-08T01:35:20.152Z</time>
      </trkpt>
      <trkpt lat="45.81814" lon="6.207">
        <ele>455.90670776367</ele>
        <time>2020-07-08T01:35:39.556Z</time>
      </trkpt>
      <trkpt lat="45.81241" lon="6.20835">
        <ele>462.60494995117</ele>
        <time>2020-07-08T01:35:59.053Z</time>
      </trkpt>
      <trkpt lat="45.80967" lon="6.20929">
        <ele>468.16390991211</ele>
        <time>2020-07-08T01:36:18.595Z</time>
      </trkpt>
      <trkpt lat="45.80953" lon="6.2094">
        <ele>468.66595458984</ele>
        <time>2020-07-08T01:36:38.140Z</time>
      </trkpt>
      <trkpt lat="45.80943" lon="6.20951">
        <ele>469.00128173828</ele>
        <time>2020-07-08T01:36:57.687Z</time>
      </trkpt>
      <trkpt lat="45.80919" lon="6.20947">
        <ele>469.11712646484</ele>
        <time>2020-07-08T01:37:17.238Z</time>
      </trkpt>
      <trkpt lat="45.80405" lon="6.21129">
        <ele>467.78457641602</ele>
        <time>2020-07-08T01:37:36.873Z</time>
      </trkpt>
      <trkpt lat="45.80285" lon="6.21146">
        <ele>465.93682861328</ele>
        <time>2020-07-08T01:37:56.528Z</time>
      </trkpt>
      <trkpt lat="45.79528" lon="6.21166">
        <ele>456.65609741211</ele>
        <time>2020-07-08T01:38:16.304Z</time>
      </trkpt>
      <trkpt lat="45.79488" lon="6.21166">
        <ele>456.3581237793</ele>
        <time>2020-07-08T01:38:36.086Z</time>
      </trkpt>
      <trkpt lat="45.79346" lon="6.212">
        <ele>452.99014282227</ele>
        <time>2020-07-08T01:38:55.891Z</time>
      </trkpt>
      <trkpt lat="45.79346" lon="6.212">
        <ele>452.9899597168</ele>
        <time>2020-07-08T01:39:15.696Z</time>
      </trkpt>
      <trkpt lat="45.79235" lon="6.21259">
        <ele>451.79559326172</ele>
        <time>2020-07-08T01:39:35.520Z</time>
      </trkpt>
      <trkpt lat="45.79147" lon="6.21333">
        <ele>454.30075073242</ele>
        <time>2020-07-08T01:39:55.361Z</time>
      </trkpt>
      <trkpt lat="45.78886" lon="6.21583">
        <ele>455.69747924805</ele>
        <time>2020-07-08T01:40:15.252Z</time>
      </trkpt>
      <trkpt lat="45.78811" lon="6.21661">
        <ele>454.07162475586</ele>
        <time>2020-07-08T01:40:35.158Z</time>
      </trkpt>
      <trkpt lat="45.78721" lon="6.21778">
        <ele>455.61959838867</ele>
        <time>2020-07-08T01:40:55.083Z</time>
      </trkpt>
      <trkpt lat="45.78721" lon="6.21778">
        <ele>455.61990356445</ele>
        <time>2020-07-08T01:41:15.008Z</time>
      </trkpt>
      <trkpt lat="45.78712" lon="6.21793">
        <ele>456.10876464844</ele>
        <time>2020-07-08T01:41:34.936Z</time>
      </trkpt>
      <trkpt lat="45.78672" lon="6.21857">
        <ele>458.09094238281</ele>
        <time>2020-07-08T01:41:54.873Z</time>
      </trkpt>
      <trkpt lat="45.78599" lon="6.22004">
        <ele>458.77114868164</ele>
        <time>2020-07-08T01:42:14.830Z</time>
      </trkpt>
      <trkpt lat="45.78599" lon="6.22004">
        <ele>458.77124023438</ele>
        <time>2020-07-08T01:42:34.787Z</time>
      </trkpt>
      <trkpt lat="45.7849" lon="6.22244">
        <ele>461.35510253906</ele>
        <time>2020-07-08T01:42:54.776Z</time>
      </trkpt>
      <trkpt lat="45.7849" lon="6.22244">
        <ele>461.35510253906</ele>
        <time>2020-07-08T01:43:14.765Z</time>
      </trkpt>
      <trkpt lat="45.78424" lon="6.22368">
        <ele>462.24609375</ele>
        <time>2020-07-08T01:43:34.772Z</time>
      </trkpt>
      <trkpt lat="45.7837" lon="6.2245">
        <ele>465.17358398438</ele>
        <time>2020-07-08T01:43:54.791Z</time>
      </trkpt>
      <trkpt lat="45.78342" lon="6.22487">
        <ele>466.00750732422</ele>
        <time>2020-07-08T01:44:14.817Z</time>
      </trkpt>
      <trkpt lat="45.78342" lon="6.22487">
        <ele>466.00769042969</ele>
        <time>2020-07-08T01:44:34.843Z</time>
      </trkpt>
      <trkpt lat="45.78099" lon="6.228">
        <ele>465.46270751953</ele>
        <time>2020-07-08T01:44:54.921Z</time>
      </trkpt>
      <trkpt lat="45.78087" lon="6.22818">
        <ele>465.6171875</ele>
        <time>2020-07-08T01:45:15.002Z</time>
      </trkpt>
      <trkpt lat="45.78087" lon="6.22818">
        <ele>465.61727905273</ele>
        <time>2020-07-08T01:45:35.083Z</time>
      </trkpt>
      <trkpt lat="45.78072" lon="6.2283">
        <ele>465.79751586914</ele>
        <time>2020-07-08T01:45:55.167Z</time>
      </trkpt>
      <trkpt lat="45.78034" lon="6.22825">
        <ele>466.248046875</ele>
        <time>2020-07-08T01:46:15.257Z</time>
      </trkpt>
      <trkpt lat="45.78005" lon="6.22845">
        <ele>466.59561157227</ele>
        <time>2020-07-08T01:46:35.352Z</time>
      </trkpt>
      <trkpt lat="45.77839" lon="6.2306">
        <ele>470</ele>
        <time>2020-07-08T01:46:55.483Z</time>
      </trkpt>
      <trkpt lat="45.77817" lon="6.23121">
        <ele>469.29278564453</ele>
        <time>2020-07-08T01:47:15.621Z</time>
      </trkpt>
      <trkpt lat="45.77757" lon="6.23223">
        <ele>468.13980102539</ele>
        <time>2020-07-08T01:47:35.774Z</time>
      </trkpt>
      <trkpt lat="45.77763" lon="6.23233">
        <ele>468.04595947266</ele>
        <time>2020-07-08T01:47:55.929Z</time>
      </trkpt>
      <trkpt lat="45.77756" lon="6.23251">
        <ele>468.26480102539</ele>
        <time>2020-07-08T01:48:16.086Z</time>
      </trkpt>
      <trkpt lat="45.77756" lon="6.23251">
        <ele>468.26480102539</ele>
        <time>2020-07-08T01:48:36.243Z</time>
      </trkpt>
      <trkpt lat="45.7688" lon="6.24398">
        <ele>474.73239135742</ele>
        <time>2020-07-08T01:48:56.590Z</time>
      </trkpt>
      <trkpt lat="45.7688" lon="6.24398">
        <ele>474.73199462891</ele>
        <time>2020-07-08T01:49:16.937Z</time>
      </trkpt>
      <trkpt lat="45.76666" lon="6.24679">
        <ele>476.55239868164</ele>
        <time>2020-07-08T01:49:37.331Z</time>
      </trkpt>
      <trkpt lat="45.76482" lon="6.25002">
        <ele>479.54528808594</ele>
        <time>2020-07-08T01:49:57.771Z</time>
      </trkpt>
      <trkpt lat="45.76482" lon="6.25002">
        <ele>479.54528808594</ele>
        <time>2020-07-08T01:50:18.211Z</time>
      </trkpt>
      <trkpt lat="45.76356" lon="6.25237">
        <ele>478.89465332031</ele>
        <time>2020-07-08T01:50:38.684Z</time>
      </trkpt>
      <trkpt lat="45.76356" lon="6.25237">
        <ele>478.89456176758</ele>
        <time>2020-07-08T01:50:59.157Z</time>
      </trkpt>
      <trkpt lat="45.76303" lon="6.25367">
        <ele>478.6379699707</ele>
        <time>2020-07-08T01:51:19.647Z</time>
      </trkpt>
      <trkpt lat="45.76284" lon="6.25457">
        <ele>482.65280151367</ele>
        <time>2020-07-08T01:51:40.148Z</time>
      </trkpt>
      <trkpt lat="45.76265" lon="6.25513">
        <ele>482.17590332031</ele>
        <time>2020-07-08T01:52:00.656Z</time>
      </trkpt>
      <trkpt lat="45.76248" lon="6.25532">
        <ele>481.63882446289</ele>
        <time>2020-07-08T01:52:21.167Z</time>
      </trkpt>
      <trkpt lat="45.76222" lon="6.25546">
        <ele>481.02075195312</ele>
        <time>2020-07-08T01:52:41.683Z</time>
      </trkpt>
      <trkpt lat="45.76216" lon="6.25558">
        <ele>480.7919921875</ele>
        <time>2020-07-08T01:53:02.200Z</time>
      </trkpt>
      <trkpt lat="45.76256" lon="6.25641">
        <ele>480.47766113281</ele>
        <time>2020-07-08T01:53:22.729Z</time>
      </trkpt>
      <trkpt lat="45.76269" lon="6.25693">
        <ele>481.70178222656</ele>
        <time>2020-07-08T01:53:43.264Z</time>
      </trkpt>
      <trkpt lat="45.76273" lon="6.26018">
        <ele>483.884765625</ele>
        <time>2020-07-08T01:54:03.835Z</time>
      </trkpt>
      <trkpt lat="45.76266" lon="6.26149">
        <ele>482.58145141602</ele>
        <time>2020-07-08T01:54:24.421Z</time>
      </trkpt>
      <trkpt lat="45.76248" lon="6.26297">
        <ele>481</ele>
        <time>2020-07-08T01:54:45.024Z</time>
      </trkpt>
      <trkpt lat="45.76187" lon="6.2658">
        <ele>485.24160766602</ele>
        <time>2020-07-08T01:55:05.660Z</time>
      </trkpt>
      <trkpt lat="45.76161" lon="6.26739">
        <ele>485.23284912109</ele>
        <time>2020-07-08T01:55:26.314Z</time>
      </trkpt>
      <trkpt lat="45.76073" lon="6.27155">
        <ele>492.10766601562</ele>
        <time>2020-07-08T01:55:47.017Z</time>
      </trkpt>
      <trkpt lat="45.76031" lon="6.27331">
        <ele>489.5625</ele>
        <time>2020-07-08T01:56:07.741Z</time>
      </trkpt>
      <trkpt lat="45.76031" lon="6.27331">
        <ele>489.5625</ele>
        <time>2020-07-08T01:56:28.465Z</time>
      </trkpt>
      <trkpt lat="45.75972" lon="6.27564">
        <ele>490.07766723633</ele>
        <time>2020-07-08T01:56:49.216Z</time>
      </trkpt>
      <trkpt lat="45.75919" lon="6.27682">
        <ele>494.61965942383</ele>
        <time>2020-07-08T01:57:09.983Z</time>
      </trkpt>
      <trkpt lat="45.75723" lon="6.2802">
        <ele>500.09872436523</ele>
        <time>2020-07-08T01:57:30.799Z</time>
      </trkpt>
      <trkpt lat="45.75625" lon="6.28127">
        <ele>499.37658691406</ele>
        <time>2020-07-08T01:57:51.635Z</time>
      </trkpt>
      <trkpt lat="45.75476" lon="6.28247">
        <ele>501.66012573242</ele>
        <time>2020-07-08T01:58:12.498Z</time>
      </trkpt>
      <trkpt lat="45.75457" lon="6.28265">
        <ele>501.91738891602</ele>
        <time>2020-07-08T01:58:33.365Z</time>
      </trkpt>
      <trkpt lat="45.75457" lon="6.28265">
        <ele>501.91757202148</ele>
        <time>2020-07-08T01:58:54.232Z</time>
      </trkpt>
      <trkpt lat="45.75352" lon="6.28359">
        <ele>502.44943237305</ele>
        <time>2020-07-08T01:59:15.119Z</time>
      </trkpt>
      <trkpt lat="45.75299" lon="6.28435">
        <ele>503.05993652344</ele>
        <time>2020-07-08T01:59:36.018Z</time>
      </trkpt>
      <trkpt lat="45.75302" lon="6.28447">
        <ele>503.0212097168</ele>
        <time>2020-07-08T01:59:56.918Z</time>
      </trkpt>
      <trkpt lat="45.75321" lon="6.28506">
        <ele>502.91885375977</ele>
        <time>2020-07-08T02:00:17.826Z</time>
      </trkpt>
      <trkpt lat="45.75372" lon="6.28673">
        <ele>505.82888793945</ele>
        <time>2020-07-08T02:00:38.754Z</time>
      </trkpt>
      <trkpt lat="45.75369" lon="6.28684">
        <ele>506.12496948242</ele>
        <time>2020-07-08T02:00:59.683Z</time>
      </trkpt>
      <trkpt lat="45.7538" lon="6.2869">
        <ele>506.15078735352</ele>
        <time>2020-07-08T02:01:20.614Z</time>
      </trkpt>
      <trkpt lat="45.75388" lon="6.28736">
        <ele>507.27127075195</ele>
        <time>2020-07-08T02:01:41.551Z</time>
      </trkpt>
      <trkpt lat="45.75393" lon="6.28819">
        <ele>508.84609985352</ele>
        <time>2020-07-08T02:02:02.497Z</time>
      </trkpt>
      <trkpt lat="45.75408" lon="6.28894">
        <ele>513.7119140625</ele>
        <time>2020-07-08T02:02:23.452Z</time>
      </trkpt>
      <trkpt lat="45.75401" lon="6.29017">
        <ele>507.25894165039</ele>
        <time>2020-07-08T02:02:44.420Z</time>
      </trkpt>
      <trkpt lat="45.75387" lon="6.29102">
        <ele>503.53323364258</ele>
        <time>2020-07-08T02:03:05.398Z</time>
      </trkpt>
      <trkpt lat="45.75388" lon="6.29323">
        <ele>502.2629699707</ele>
        <time>2020-07-08T02:03:26.401Z</time>
      </trkpt>
      <trkpt lat="45.75388" lon="6.29323">
        <ele>502.26275634766</ele>
        <time>2020-07-08T02:03:47.404Z</time>
      </trkpt>
      <trkpt lat="45.75387" lon="6.29541">
        <ele>504</ele>
        <time>2020-07-08T02:04:08.431Z</time>
      </trkpt>
      <trkpt lat="45.75395" lon="6.296">
        <ele>503.38458251953</ele>
        <time>2020-07-08T02:04:29.465Z</time>
      </trkpt>
      <trkpt lat="45.75395" lon="6.29634">
        <ele>502.98532104492</ele>
        <time>2020-07-08T02:04:50.503Z</time>
      </trkpt>
      <trkpt lat="45.75389" lon="6.29641">
        <ele>503.0241394043</ele>
        <time>2020-07-08T02:05:11.542Z</time>
      </trkpt>
      <trkpt lat="45.75388" lon="6.29655">
        <ele>502.79055786133</ele>
        <time>2020-07-08T02:05:32.583Z</time>
      </trkpt>
      <trkpt lat="45.75395" lon="6.29667">
        <ele>502.43002319336</ele>
        <time>2020-07-08T02:05:53.625Z</time>
      </trkpt>
      <trkpt lat="45.75402" lon="6.29669">
        <ele>502.28842163086</ele>
        <time>2020-07-08T02:06:14.669Z</time>
      </trkpt>
      <trkpt lat="45.75412" lon="6.2966">
        <ele>502.25180053711</ele>
        <time>2020-07-08T02:06:35.714Z</time>
      </trkpt>
      <trkpt lat="45.75448" lon="6.29672">
        <ele>501.23468017578</ele>
        <time>2020-07-08T02:06:56.765Z</time>
      </trkpt>
      <trkpt lat="45.75527" lon="6.29715">
        <ele>501.51669311523</ele>
        <time>2020-07-08T02:07:17.830Z</time>
      </trkpt>
      <trkpt lat="45.75564" lon="6.29726">
        <ele>501.18276977539</ele>
        <time>2020-07-08T02:07:38.901Z</time>
      </trkpt>
      <trkpt lat="45.75615" lon="6.29727">
        <ele>497.57849121094</ele>
        <time>2020-07-08T02:07:59.980Z</time>
      </trkpt>
      <trkpt lat="45.75623" lon="6.29737">
        <ele>497.03411865234</ele>
        <time>2020-07-08T02:08:21.061Z</time>
      </trkpt>
      <trkpt lat="45.75633" lon="6.29737">
        <ele>496.33901977539</ele>
        <time>2020-07-08T02:08:42.143Z</time>
      </trkpt>
      <trkpt lat="45.75642" lon="6.29718">
        <ele>496.69927978516</ele>
        <time>2020-07-08T02:09:03.228Z</time>
      </trkpt>
      <trkpt lat="45.75674" lon="6.29689">
        <ele>499.24801635742</ele>
        <time>2020-07-08T02:09:24.319Z</time>
      </trkpt>
      <trkpt lat="45.75706" lon="6.29672">
        <ele>501.74307250977</ele>
        <time>2020-07-08T02:09:45.415Z</time>
      </trkpt>
      <trkpt lat="45.75745" lon="6.29667">
        <ele>502.46557617188</ele>
        <time>2020-07-08T02:10:06.518Z</time>
      </trkpt>
      <trkpt lat="45.75779" lon="6.29674">
        <ele>503.1220703125</ele>
        <time>2020-07-08T02:10:27.626Z</time>
      </trkpt>
      <trkpt lat="45.75779" lon="6.29674">
        <ele>503.12249755859</ele>
        <time>2020-07-08T02:10:48.734Z</time>
      </trkpt>
      <trkpt lat="45.75858" lon="6.29719">
        <ele>502.35147094727</ele>
        <time>2020-07-08T02:11:09.856Z</time>
      </trkpt>
    </trkseg>
  </trk>
</gpx>